     2              OBSERVATION DATA    GPS                 RINEX VERSION / TYPE
teqc 2000Feb29 20030805 02:56:35UTC                         PGM / RUN BY / DATE
                                                            COMMENT
L2: 1 -> 1; 150 -> 5; 250 -> 9                              COMMENT
L2: 1 -> 1; 150 -> 5; 250 -> 9                              COMMENT
L2: 1 -> 1; 150 -> 5; 250 -> 9                              COMMENT
L2: 1 -> 1; 150 -> 5; 250 -> 9                              COMMENT
L2: 1 -> 1; 150 -> 5; 250 -> 9                              COMMENT
Original Marker Name: FIGP                                  COMMENT
Campaign Name: USC/SCEC 2003                                COMMENT
4-Character Station Name: FIGP                              COMMENT
6-Character Antenna Code: DMRCHT                            COMMENT
Vertical Measurement Point: BCR                             COMMENT
Vertical Offset to Rinex Ref. Point: 0.0348                 COMMENT
Radial Measurement Point: ECF                               COMMENT
Radial Offset to Rinex Ref. Point: 0.1897                   COMMENT
Antenna Height from Field Measurement: 1.0190 m             COMMENT
Additional Antenna Identification Info.:                    COMMENT
Turborogue and Ashtech Choke Ring                           COMMENT
Original XYZ: -2621741.7048 -4547381.1854 3613343.0893      COMMENT
New XYZ position is based on association with SCEC monument COMMENT
E1E9F9J6+0011. Position of that monument is believed to be  COMMENT
valid to within 1 m horizontally; vertical accuracy         COMMENT
should be no worse than 3-times this value.                 COMMENT
                                                            COMMENT
Revised Rinex header created by UCSD GPS archive for        COMMENT
GSAC on 09-Nov-2004 (2004:314) 22:44:42 GMT                 COMMENT
For assistance contact dagnew@ucsd.edu                      COMMENT
or anderson@python.ucsd.edu                                 COMMENT
                                                            COMMENT
FIGP                                                        MARKER NAME
KEA UNIV SOUTHERN CALIFORNIA                                OBSERVER / AGENCY
278 ASHTECH Z-XII3 CD00                                     REC # / TYPE / VERS
374 DORNE-MARGOL. TYPE T                                    ANT # / TYPE
 -2621734.0000 -4547370.0000  3613340.0000                  APPROX POSITION XYZ
        0.9664        0.0000        0.0000                  ANTENNA: DELTA H/E/N
     1     1     0                                          WAVELENGTH FACT L1/2
     7    C1    L1    L2    P1    P2    S1    S2            # / TYPES OF OBSERV
     0                                                      INTERVAL
  2003     3    19     0     0   30.000000                  TIME OF FIRST OBS
  2003     3    19    23    59   30.000000                  TIME OF LAST OBS
                                                            END OF HEADER
 03  3 19  0  0 30.0000000  0 10G16G 3G 2G23G29G 6G26G17G15G18
  23545843.550    -4217427.87349  -3274791.86045  23545842.802    23545852.406
       215.000         160.000
  23747542.173    -4479201.56549  -3471572.25045  23747542.059    23747551.966
       199.000         134.000
  24735728.549    -4555725.57349  -3542233.49545  24735728.482    24735739.557
       206.000         140.000
  20726847.703   -22443096.76849 -17442822.04347  20726847.342    20726854.415
       242.000         212.000
  24325540.979    -5715287.36549  -4432270.62345  24325542.667    24325551.322
       212.000         147.000
  22535029.147     2483815.83149   1947638.29646  22535029.664    22535039.220
       226.000         175.000
  22457910.127   -12995892.93449 -10112337.19046  22457910.872    22457918.257
       225.000         173.000
  20845861.084   -15408406.46149 -11996244.43247  20845860.331    20845867.945
       241.000         209.000
  20814710.943   -23149719.98849 -18025215.59447  20814710.396    20814717.698
       242.000         207.000
  20431867.144   -23508099.08649 -18297500.70248  20431866.853    20431872.729
       239.000         213.000
 03  3 19  0  1  0.0000000  0 10G16G 3G 2G23G29G 6G26G17G15G18
  23553374.719    -4177851.54749  -3243953.21245  23553374.608    23553382.836
       215.000         160.000
  23729934.847    -4571727.98549  -3543670.64945  23729933.089    23729943.171
       198.000         134.000
  24735673.693    -4556013.03649  -3542457.53245  24735674.549    24735684.762
       207.000         143.000
  20731517.813   -22418555.04149 -17423698.62647  20731517.359    20731524.368
       242.000         212.000
  24340815.512    -5635019.33249  -4369724.16845  24340814.994    24340826.256
       210.000         147.000
  22553282.789     2579738.76649   2022383.35246  22553283.337    22553291.968
       226.000         174.000
  22470269.953   -12930941.36649 -10061725.61246  22470269.456    22470278.520
       224.000         173.000
  20847790.725   -15398266.10349 -11988342.86447  20847790.275    20847797.579
       241.000         209.000
  20807687.650   -23186627.57849 -18053974.73547  20807687.218    20807694.375
       242.000         208.000
  20429440.012   -23520853.42349 -18307439.13148  20429439.523    20429445.299
       239.000         213.000
 03  3 19  0  1 30.0000000  0 10G16G 3G 2G23G29G 6G26G17G15G18
  23560983.886    -4137865.44549  -3212795.25545  23560983.910    23560992.183
       215.000         159.000
  23712372.478    -4664017.09749  -3615584.10145  23712371.187    23712381.496
       198.000         134.000
  24735696.932    -4555891.15349  -3542362.56545  24735696.913    24735708.693
       206.000         144.000
  20736248.525   -22393694.95049 -17404327.12947  20736248.054    20736255.162
       241.000         212.000
  24356153.380    -5554418.78349  -4306918.60545  24356153.306    24356164.433
       208.000         146.000
  22571588.899     2675937.09249   2097343.01846  22571589.354    22571598.364
       226.000         174.000
  22482732.497   -12865450.32949 -10010693.68046  22482732.698    22482740.909
       224.000         173.000
  20849761.805   -15387907.90949 -11980271.55347  20849761.441    20849768.571
       241.000         209.000
  20800701.370   -23223340.45249 -18082582.15247  20800700.645    20800708.169
       241.000         208.000
  20427089.514   -23533205.08449 -18317063.79148  20427089.240    20427095.064
       239.000         214.000
 03  3 19  0  2  0.0000000  0 10G16G 3G 2G23G29G 6G26G17G15G18
  23568670.379    -4097472.56849  -3181320.33545  23568669.809    23568678.868
       215.000         159.000
  23694855.937    -4756066.85449  -3687311.06845  23694854.584    23694865.407
       201.000         137.000
  24735797.965    -4555361.15749  -3541949.63045  24735797.344    24735808.469
       205.000         143.000
  20741039.351   -22368518.77549 -17384709.33447  20741039.067    20741045.969
       242.000         212.000
  24371553.877    -5473488.26149  -4243855.95645  24371555.113    24371564.614
       209.000         145.000
  22589946.860     2772408.10349   2172515.15446  22589947.235    22589955.260
       226.000         174.000
  22495297.291   -12799422.68449  -9959243.61746  22495297.120    22495305.566
       222.000         173.000
  20851774.344   -15377331.89249 -11972030.50747  20851773.827    20851781.389
       241.000         209.000
  20793752.229   -23259858.23149 -18111037.55047  20793751.545    20793758.788
       242.000         208.000
  20424815.432   -23545155.30549 -18326375.63748  20424815.105    20424821.027
       239.000         214.000
 03  3 19  0  2 30.0000000  0 10G16G 3G 2G23G29G 6G26G17G15G18
  23576433.781    -4056675.18449  -3149530.24745  23576433.894    23576442.289
       216.000         158.000
  23677385.386    -4847874.53349  -3758849.40245  23677385.737    23677394.453
       199.000         138.000
  24735976.470    -4554423.74249  -3541219.21045  24735976.110    24735987.807
       203.000         144.000
  20745890.091   -22343028.05749 -17364846.44247  20745889.709    20745896.732
       242.000         212.000
  24387016.761    -5392230.32249  -4180538.14645  24387016.820    24387027.603
       208.000         144.000
  22608356.355     2869150.10549   2247898.44846  22608355.811    22608365.450
       223.000         174.000
  22507963.622   -12732860.56549  -9907377.07346  22507963.561    22507971.780
       223.000         172.000
  20853828.525   -15366537.04149 -11963618.94247  20853828.275    20853835.553
       241.000         208.000
  20786840.378   -23296180.02149 -18139340.23647  20786840.010    20786847.122
       242.000         208.000
  20422617.655   -23556704.81649 -18335375.24448  20422617.446    20422623.277
       239.000         214.000
 03  3 19  0  3  0.0000000  0 10G16G 3G 2G23G29G 6G26G17G15G18
  23584273.997    -4015474.97349  -3117426.22745  23584274.157    23584283.373
       217.000         158.000
  23659961.461    -4939437.61549  -3830197.16245  23659961.380    23659970.553
       201.000         138.000
  24736232.246    -4553079.63749  -3540171.88445  24736232.253    24736243.236
       205.000         144.000
  20750800.458   -22317224.19149 -17344739.53647  20750800.250    20750807.143
       242.000         212.000
  24402541.655    -5310647.05549  -4116966.82645  24402542.202    24402552.246
       209.000         145.000
  22626816.986     2966161.05349   2323491.31146  22626816.971    22626826.455
       227.000         174.000
  22520731.298   -12665766.22049  -9855095.80446  22520731.932    22520740.294
       224.000         172.000
  20855924.475   -15355522.80649 -11955036.43647  20855924.034    20855931.678
       241.000         209.000
  20779966.071   -23332304.78649 -18167489.38647  20779965.619    20779972.949
       241.000         208.000
  20420496.052   -23567853.90749 -18344062.83548  20420495.635    20420501.478
       239.000         214.000
 03  3 19  0  3 30.0000000  0 10G16G 3G 2G23G29G 6G26G17G15G18
  23592190.344    -3973874.96449  -3085010.70345  23592190.237    23592198.352
       216.000         159.000
  23642584.445    -5030753.80049  -3901352.51345  23642583.640    23642594.012
       201.000         140.000
  24736565.385    -4551329.78149  -3538808.37845  24736565.742    24736576.716
       206.000         145.000
  20755770.002   -22291108.96449 -17324390.01247  20755769.790    20755776.646
       242.000         212.000
  24418127.952    -5228741.05749  -4053144.06645  24418129.341    24418138.883
       211.000         147.000
  22645328.318     3063438.39649   2399291.75446  22645327.626    22645337.053
       224.000         173.000
  22533599.880   -12598142.13349  -9802401.75546  22533600.793    22533607.771
       225.000         172.000
  20858062.230   -15344288.82249 -11946282.68347  20858061.524    20858069.242
       240.000         208.000
  20773129.418   -23368231.95949 -18195484.56547  20773128.912    20773136.098
       242.000         209.000
  20418450.421   -23578603.68449 -18352439.27348  20418449.971    20418455.793
       239.000         214.000
 03  3 19  0  4  0.0000000  0 11G16G 3G 2G23G29G 6G26G17G14G15G18
  23600182.273    -3931877.06049  -3052285.14445  23600181.954    23600189.834
       215.000         157.000
  23625254.814    -5121820.32949  -3972313.34045  23625254.976    23625263.036
       205.000         141.000
  24736975.479    -4549175.01949  -3537129.35445  24736974.629    24736985.810
       208.000         144.000
  20760798.524   -22264684.04449 -17303799.16447  20760798.238    20760805.220
       242.000         212.000
  24433775.439    -5146514.46949  -3989071.45245  24433775.509    24433785.244
       208.000         146.000
  22663889.716     3160980.07649   2475298.15846  22663889.816    22663899.159
       224.000         173.000
  22546568.757   -12529990.66649  -9749296.77446  22546568.855    22546576.768
       224.000         172.000
  20860241.958   -15332834.06349 -11937356.90547  20860241.435    20860248.947
       241.000         208.000
                   -658871.51749   -469276.29343                  24636177.817
       202.000          88.000
  20766330.531   -23403960.45649 -18223324.93347  20766329.949    20766337.165
       243.000         209.000
  20416480.591   -23588955.00149 -18360505.22748  20416480.275    20416485.970
       239.000         214.000
 03  3 19  0  4 30.0000000  0 11G16G 3G 2G23G29G 6G26G17G14G15G18
  23608249.337    -3889484.88049  -3019252.33745  23608250.119    23608257.268
       215.000         157.000
  23607973.162    -5212635.75749  -4043078.50645  23607973.080    23607982.473
       205.000         142.000
  24737462.316    -4546617.33649  -3535136.38145  24737462.121    24737473.930
       209.000         143.000
  20765885.476   -22237952.23749 -17282969.18447  20765885.297    20765891.962
       242.000         212.000
  24449483.110    -5063970.78649  -3924751.76245  24449483.045    24449492.991
       210.000         145.000
  22682501.027     3258782.89349   2551508.06646  22682500.811    22682510.690
       225.000         173.000
  22559637.209   -12461315.14249  -9695783.42746  22559637.738    22559645.555
       225.000         172.000
  20862463.730   -15321158.59649 -11928259.15147  20862463.407    20862470.845
       241.000         208.000
  24614651.594     -771925.32449   -557369.79044  24614650.192    24614664.908
       202.000         128.000
  20759569.362   -23439490.49649 -18251010.66347  20759568.880    20759575.941
       242.000         209.000
  20414586.239   -23598909.86449 -18368262.25648  20414585.826    20414591.742
       239.000         214.000
 03  3 19  0  5  0.0000000  0 11G16G 3G 2G23G29G 6G26G17G14G15G18
  23616390.949    -3846700.89949  -2985914.24845  23616391.013    23616400.030
       216.000         158.000
  23590739.793    -5303197.99749  -4113646.39645  23590739.151    23590748.896
       209.000         144.000
  24738025.419    -4543658.05849  -3532830.47845  24738025.401    24738036.343
       209.000         144.000
  20771030.412   -22210915.55549 -17261901.64147  20771030.095    20771036.775
       241.000         212.000
  24465250.510    -4981112.62549  -3860187.01845  24465250.989    24465259.655
       207.000         145.000
  22701161.514     3356844.33049   2627919.49146  22701161.513    22701170.548
       223.000         172.000
  22572805.002   -12392118.40349  -9641863.92946  22572805.012    22572813.407
       224.000         172.000
  20864727.585   -15309261.97249 -11918989.06447  20864727.050    20864734.924
       241.000         208.000
  24593135.308     -884992.81349   -645474.00545  24593133.908    24593147.023
       202.000         133.000
  20752846.049   -23474821.55049 -18278541.34247  20752845.584    20752852.779
       241.000         208.000
  20412767.166   -23608469.21349 -18375711.08948  20412766.955    20412772.583
       239.000         214.000
 03  3 19  0  5 30.0000000  0 11G16G 3G 2G23G29G 6G26G17G14G15G18
  23624606.832    -3803526.81049  -2952272.14945  23624607.185    23624615.632
       215.000         158.000
  23573555.201    -5393503.62149  -4184014.31045  23573554.688    23573563.894
       206.000         146.000
  24738665.067    -4540297.04749  -3530211.53845  24738664.319    24738675.799
       205.000         144.000
  20776233.168   -22183574.67549 -17240597.05447  20776232.903    20776239.673
       242.000         212.000
  24481077.406    -4897941.53349  -3795378.43545  24481078.022    24481086.929
       211.000         145.000
  22719870.964     3455163.12949   2704531.44946  22719870.691    22719881.208
       224.000         172.000
  22586071.738   -12322401.95249  -9587539.46746  22586071.488    22586080.416
       224.000         171.000
  20867033.767   -15297142.99349 -11909545.70447  20867033.413    20867041.213
       241.000         208.000
  24571617.145     -998070.55549   -733586.17445  24571616.334    24571628.094
       204.000         134.000
  20746160.986   -23509951.65649 -18305915.43447  20746160.122    20746167.768
       241.000         208.000
  20411023.327   -23617633.16049 -18382851.82148  20411023.213    20411028.750
       239.000         214.000
 03  3 19  0  6  0.0000000  0 11G16G 3G 2G23G29G 6G26G17G14G15G18
  23632896.451    -3759964.70749  -2918327.72545  23632896.446    23632905.112
       211.000         157.000
  23556419.922    -5483549.64149  -4254179.94845  23556419.450    23556428.576
       208.000         148.000
  24739380.874    -4536534.96349  -3527280.06945  24739380.313    24739391.849
       209.000         144.000
  20781493.636   -22155930.91949 -17219056.46047  20781493.182    20781500.030
       242.000         212.000
  24496963.656    -4814459.66349  -3730327.69145  24496963.995    24496973.464
       210.000         145.000
  22738629.113     3553737.58249   2781342.61146  22738629.874    22738637.831
       222.000         171.000
  22599436.776   -12252167.82849  -9532811.61346  22599437.315    22599444.727
       223.000         170.000
  20869382.531   -15284800.19349 -11899927.94247  20869382.167    20869389.507
       241.000         208.000
  24550097.644    -1111155.46249   -821703.98545  24550096.662    24550109.296
       202.000         135.000
  20739514.321   -23544879.91949 -18333132.24547  20739513.783    20739521.336
       241.000         208.000
  20409354.677   -23626401.90049 -18389684.59848  20409354.388    20409360.299
       240.000         214.000
 03  3 19  0  6 30.0000000  0 11G16G 3G 2G23G29G 6G26G17G14G15G18
  23641259.568    -3716015.74749  -2884081.84945  23641259.427    23641268.497
       215.000         156.000
  23539334.736    -5573332.71149  -4324140.69545  23539334.518    23539342.807
       208.000         150.000
  24740172.994    -4532371.77149  -3524036.06245  24740172.875    24740184.115
       205.000         143.000
  20786811.537   -22127985.05649 -17197280.46247  20786811.200    20786818.059
       242.000         212.000
  24512908.639    -4730668.16949  -3665035.68945  24512908.517    24512918.595
       207.000         146.000
  22757435.761     3652566.59349   2858352.13446  22757436.335    22757445.205
       223.000         171.000
  22612900.142   -12181417.33949  -9477681.41746  22612900.785    22612908.300
       223.000         169.000
  20871774.225   -15272231.76849 -11890134.36447  20871773.732    20871781.397
       241.000         208.000
  24528577.478    -1224244.04949   -909824.65045  24528577.289    24528588.158
       205.000         135.000
  20732906.472   -23579604.26149 -18360190.15647  20732906.088    20732913.048
       242.000         208.000
  20407761.247   -23634775.36449 -18396209.36948  20407760.991    20407766.713
       239.000         214.000
 03  3 19  0  7  0.0000000  0 11G16G 3G 2G23G29G 6G26G17G14G15G18
  23649695.864    -3671683.42449  -2849537.24245  23649696.246    23649704.653
       215.000         156.000
  23522299.959    -5662851.03649  -4393895.14145  23522299.621    23522308.105
       213.000         152.000
  24741041.355    -4527809.10549  -3520480.76545  24741040.954    24741052.570
       210.000         143.000
  20792186.465   -22099739.47849 -17175270.91947  20792186.149    20792193.096
       242.000         212.000
  24528911.894    -4646570.29949  -3599504.92745  24528911.768    24528921.520
       207.000         145.000
  22776290.358     3751647.09649   2935557.62546  22776291.302    22776299.839
       224.000         171.000
  22626461.216   -12110153.97949  -9422151.57146  22626462.016    22626469.379
       223.000         168.000
  20874208.866   -15259437.91249 -11880165.13147  20874208.676    20874215.802
       241.000         208.000
  24507056.912    -1337334.35349   -997946.67745  24507055.548    24507068.239
       205.000         136.000
  20726337.529   -23614124.43349 -18387088.97147  20726337.035    20726344.312
       242.000         209.000
  20406242.679   -23642755.56349 -18402427.70148  20406242.632    20406248.040
       240.000         214.000
 03  3 19  0  7 30.0000000  0 11G16G 3G 2G23G29G 6G26G17G14G15G18
  23658204.501    -3626970.28649  -2814695.89445  23658205.075    23658213.760
       216.000         155.000
  23505315.955    -5752102.38649  -4463441.56045  23505315.449    23505324.047
       212.000         154.000
  24741985.591    -4522848.20349  -3516615.16645  24741984.910    24741995.768
       207.000         143.000
  20797618.027   -22071196.23249 -17153029.42747  20797617.699    20797624.373
       242.000         212.000
  24544973.022    -4562168.76349  -3533737.59545  24544972.309    24544982.570
       207.000         144.000
  22795192.268     3850976.49349   3012957.06446  22795192.377    22795200.889
       222.000         171.000
  22640119.349   -12038380.28949  -9366224.06846  22640119.811    22640127.916
       223.000         168.000
  20876686.458   -15246418.22749 -11870019.92047  20876685.981    20876693.336
       241.000         208.000
  24485536.432    -1450424.04449  -1086068.21045  24485535.666    24485547.955
       203.000         136.000
  20719807.474   -23648439.89849 -18413828.27147  20719806.746    20719814.116
       242.000         209.000
  20404798.855   -23650342.96849 -18408339.95848  20404798.562    20404803.981
       240.000         214.000
 03  3 19  0  8  0.0000000  0 11G16G 3G 2G23G29G 6G26G17G14G15G18
  23666785.107    -3581879.16649  -2779560.03445  23666784.806    23666793.697
       215.000         154.000
  23488383.177    -5841084.30849  -4532778.02645  23488383.141    23488391.691
       213.000         156.000
  24743005.208    -4517490.58349  -3512440.43145  24743003.575    24743016.226
       205.000         143.000
  20803105.897   -22042357.42949 -17130557.63547  20803105.490    20803112.349
       242.000         212.000
  24561091.385    -4477466.30049  -3467735.75045  24561091.940    24561101.676
       207.000         144.000
  22814140.896     3950552.38149   3090548.56646  22814141.658    22814150.120
       221.000         170.000
  22653874.008   -11966099.12349  -9309901.12046  22653874.139    22653882.511
       222.000         167.000
  20879207.107   -15233172.01049 -11859698.20147  20879206.966    20879213.990
       241.000         208.000
  24464016.609    -1563510.66249  -1174187.36745  24464015.574    24464027.381
       205.000         136.000
  20713316.500   -23682549.94149 -18440407.50247  20713315.670    20713323.307
       241.000         208.000
  20403429.451   -23657539.06649 -18413947.30048  20403429.260    20403434.782
       240.000         214.000
 03  3 19  0  8 30.0000000  0 11G16G 3G 2G23G29G 6G26G17G14G15G18
  23675437.412    -3536411.32149  -2744130.60545  23675437.146    23675446.512
       218.000         155.000
  23471502.291    -5929793.28949  -4601901.80545  23471501.947    23471510.854
       216.000         158.000
  24744100.232    -4511736.23649  -3507956.57645  24744099.796    24744109.294
       207.000         142.000
  20808649.876   -22013223.54649 -17107855.91147  20808649.612    20808655.954
       241.000         212.000
  24577266.997    -4392464.19849  -3401500.42245  24577267.452    24577276.446
       208.000         145.000
  22833136.207     4050373.67949   3168331.29346  22833136.658    22833145.905
       223.000         170.000
  22667724.942   -11893311.87349  -9253183.82746  22667725.660    22667732.936
       221.000         167.000
  20881771.237   -15219697.45149 -11849198.54647  20881770.611    20881778.105
       241.000         208.000
  24442498.064    -1676590.60149  -1262301.31945  24442497.221    24442509.646
       201.000         137.000
  20706864.929   -23716452.75449 -18466825.25747  20706864.226    20706871.733
       241.000         208.000
  20402134.578   -23664343.80149 -18419249.68348  20402134.306    20402139.989
       240.000         214.000
 03  3 19  0  9  0.0000000  0 11G16G 3G 2G23G29G 6G26G17G14G15G18
  23684160.500    -3490571.17649  -2708411.09145  23684159.847    23684169.782
       214.000         154.000
  23454673.650    -6018228.61149  -4670812.33545  23454673.517    23454682.123
       217.000         159.000
  24745270.075    -4505588.19749  -3503165.94845  24745271.025    24745281.729
       207.000         143.000
  20814249.322   -21983798.16349 -17084927.04347  20814248.955    20814255.666
       242.000         211.000
  24593498.662    -4307166.57049  -3335034.79745  24593498.965    24593507.886
       207.000         144.000
  22852177.726     4150436.33249   3246302.10146  22852177.167    22852186.807
       221.000         170.000
  22681671.316   -11820023.20949  -9196075.81546  22681671.196    22681679.488
       222.000         167.000
  20884378.518   -15205996.03949 -11838522.12347  20884378.146    20884385.447
       241.000         208.000
  24420980.978    -1789662.87649  -1350409.28245  24420980.307    24420991.911
       201.000         136.000
  20700452.690   -23750148.96149 -18493082.02147  20700452.235    20700459.576
       242.000         209.000
  20400913.596   -23670759.88349 -18424249.22048  20400913.342    20400918.877
       239.000         214.000
 03  3 19  0  9 30.0000000  0 11G16G 3G 2G23G29G 6G26G17G14G15G18
  23692954.104    -3444360.37349  -2672402.74745  23692954.049    23692963.583
       215.000         154.000
  23437897.756    -6106386.94749  -4739507.05446  23437897.611    23437906.084
       217.000         163.000
  24746514.938    -4499046.43449  -3498068.49145  24746514.415    24746526.114
       205.000         143.000
  20819904.097   -21954082.03449 -17061771.63047  20819903.731    20819910.669
       242.000         211.000
  24609786.180    -4221575.20449  -3268340.31845  24609786.479    24609796.754
       208.000         144.000
  22871264.788     4250738.98649   3324459.90346  22871265.612    22871274.292
       221.000         169.000
  22695712.778   -11746234.43649  -9138578.10346  22695712.965    22695721.866
       221.000         166.000
  20887029.375   -15192065.67549 -11827667.29147  20887028.701    20887036.538
       240.000         208.000
  24399465.977    -1902723.95149  -1438508.52545  24399464.892    24399476.152
       202.000         137.000
  20694080.187   -23783636.85549 -18519176.46647  20694079.757    20694086.960
       242.000         209.000
  20399766.576   -23676787.32449 -18428945.92748  20399766.486    20399772.006
       240.000         214.000
 03  3 19  0 10  0.0000000  0 11G16G 3G 2G23G29G 6G26G17G14G15G18
  23701817.711    -3397781.70049  -2636107.74845  23701816.724    23701827.233
       215.000         154.000
  23421174.822    -6194266.21349  -4807984.29246  23421174.139    23421182.803
       216.000         164.000
  24747834.448    -4492112.50749  -3492665.46945  24747832.932    24747845.974
       204.000         142.000
  20825613.803   -21924077.35149 -17038391.36347  20825613.368    20825620.431
       241.000         211.000
  24626129.278    -4135692.72549  -3201418.97545  24626129.455    24626139.243
       209.000         142.000
  22890396.986     4351278.97849   3402802.64646  22890396.868    22890406.775
       221.000         168.000
  22709849.005   -11671948.59349  -9080693.06746  22709849.079    22709858.147
       221.000         166.000
  20889723.820   -15177906.01549 -11816633.79147  20889723.266    20889730.989
       240.000         208.000
  24377953.548    -2015771.61549  -1526597.31045  24377952.055    24377963.613
       203.000         138.000
  20687747.443   -23816915.92549 -18545108.18947  20687747.091    20687754.119
       243.000         210.000
  20398693.306   -23682427.48049 -18433340.84748  20398692.899    20398698.526
       240.000         214.000
 03  3 19  0 10 30.0000000  0 11G16G 3G 2G23G29G 6G26G17G14G15G18
  23710751.032    -3350837.07449  -2599527.60545  23710749.640    23710760.728
       213.000         154.000
  23404505.482    -6281863.41449  -4876241.74146  23404504.928    23404513.918
       219.000         166.000
  24749228.378    -4484786.98349  -3486957.30745  24749228.915    24749239.123
       206.000         140.000
  20831378.195   -21893785.16049 -17014787.06747  20831377.927    20831384.794
       241.000         211.000
  24642527.187    -4049520.97849  -3134272.23345  24642528.043    24642536.831
       206.000         140.000
  22909574.053     4452054.61649   3481329.00946  22909573.752    22909584.244
       221.000         168.000
  22724079.304   -11597167.73249  -9022422.30546  22724079.117    22724088.091
       218.000         166.000
  20892462.142   -15163515.81149 -11805420.64547  20892461.600    20892469.037
       240.000         208.000
  24356444.280    -2128802.62949  -1614673.11345  24356443.445    24356454.390
       204.000         138.000
  20681454.704   -23849984.77249 -18570876.10047  20681454.297    20681461.138
       243.000         210.000
  20397693.668   -23687680.74149 -18437434.29248  20397693.631    20397698.993
       240.000         214.000
 03  3 19  0 11  0.0000000  0 11G16G 3G 2G23G29G 6G26G17G14G15G18
  23719753.343    -3303529.57749  -2562664.69545  23719753.816    23719762.513
       217.000         155.000
  23387890.276    -6369176.03749  -4944277.43246  23387889.531    23387898.219
       218.000         166.000
  24750696.500    -4477071.03249  -3480944.92345  24750696.190    24750706.992
       204.000         140.000
  20837196.948   -21863207.45749 -16990960.29347  20837196.749    20837203.530
       242.000         211.000
  24658979.687    -3963062.77649  -3066902.29045  24658980.083    24658988.112
       205.000         141.000
  22928795.447     4553063.48949   3560037.11846  22928795.935    22928805.115
       223.000         168.000
  22738403.094   -11521894.72249  -8963768.05746  22738403.021    22738412.269
       219.000         165.000
  20895244.514   -15148894.42249 -11794027.36247  20895244.243    20895251.722
       240.000         208.000
  24334938.662    -2241814.39149  -1702733.88745  24334937.353    24334948.185
       205.000         139.000
  20675202.033   -23882842.70149 -18596479.66547  20675201.286    20675208.674
       242.000         209.000
  20396767.491   -23692548.13249 -18441227.06048  20396767.302    20396772.821
       239.000         215.000
 03  3 19  0 11 30.0000000  0 11G16G 3G 2G23G29G 6G26G17G14G15G18
  23728824.486    -3255861.36949  -2525520.71345  23728824.247    23728833.204
       217.000         156.000
  23371329.688    -6456201.61049  -5012089.46546  23371329.175    23371338.097
       216.000         167.000
  24752238.871    -4468966.02949  -3474629.38745  24752237.423    24752251.631
       204.000         140.000
  20843069.696   -21832345.99449 -16966912.40747  20843069.233    20843075.958
       241.000         211.000
  24675486.148    -3876320.33349  -2999310.83945  24675485.667    24675494.768
       207.000         140.000
  22948060.854     4654303.28049   3638925.17146  22948062.577    22948070.222
       222.000         167.000
  22752820.211   -11446132.10049  -8904732.28346  22752819.951    22752829.793
       219.000         165.000
  20898071.041   -15134041.02749 -11782453.29347  20898070.567    20898078.080
       240.000         208.000
  24313437.243    -2354804.30749  -1790777.62845  24313436.418    24313447.205
       204.000         139.000
  20668989.663   -23915488.71949 -18621918.09747  20668989.107    20668996.189
       242.000         209.000
  20395914.465   -23697030.74449 -18444720.00148  20395914.242    20395919.967
       240.000         215.000
 03  3 19  0 12  0.0000000  0 11G16G 3G 2G23G29G 6G26G17G14G15G18
  23737963.505    -3207835.77149  -2488098.24845  23737963.540    23737973.420
       217.000         156.000
  23354824.093    -6542938.08849  -5079676.21746  23354823.352    23354832.698
       219.000         167.000
  24753854.988    -4460473.51449  -3468011.87445  24753854.323    24753866.421
       205.000         140.000
  20848996.007   -21801202.71849 -16942644.92947  20848995.411    20849002.647
       241.000         211.000
  24692046.208    -3789296.74149  -2931500.35045  24692044.943    24692055.128
       205.000         140.000
  22967369.679     4755771.41349   3717991.14746  22967369.721    22967378.997
       220.000         166.000
  22767329.913   -11369882.95449  -8845317.41146  22767330.565    22767338.481
       217.000         164.000
  20900941.732   -15118955.39249 -11770698.26247  20900941.319    20900948.812
       240.000         208.000
  24291940.347    -2467770.17749  -1878802.63845  24291938.991    24291949.563
       208.000         139.000
  20662817.759   -23947922.22149 -18647190.92847  20662817.069    20662824.489
       243.000         210.000
  20395134.438   -23701129.75449 -18447914.02648  20395133.973    20395139.958
       239.000         215.000
 03  3 19  0 12 30.0000000  0 11G16G 3G 2G23G29G 6G26G17G14G15G18
  23747170.095    -3159455.03149  -2450399.03945  23747170.106    23747178.597
       217.000         156.000
  23338374.010    -6629383.12749  -5147035.88546  23338373.740    23338383.076
       219.000         168.000
  24755544.751    -4451594.41749  -3461093.12145  24755544.403    24755556.247
       203.000         139.000
  20854975.636   -21769779.34049 -16918159.18447  20854975.461    20854982.174
       241.000         211.000
  24708659.193    -3701994.15149  -2863472.43345  24708658.811    24708669.146
       206.000         140.000
  22986721.459     4857465.62449   3797233.28646  22986721.444    22986730.720
       219.000         166.000
  22781931.746   -11293149.74549  -8785525.34446  22781932.886    22781939.970
       218.000         163.000
  20903856.764   -15103636.56049 -11758761.52147  20903856.351    20903863.888
       240.000         207.000
  24270448.662    -2580709.13249  -1966806.66645  24270447.709    24270458.458
       207.000         141.000
  20656686.500   -23980142.27449 -18672297.44247  20656685.894    20656692.958
       243.000         210.000
  20394427.152   -23704846.43349 -18450810.13248  20394427.002    20394432.612
       240.000         215.000
 03  3 19  0 13  0.0000000  0 11G16G 3G 2G23G29G 6G26G17G14G15G18
  23756443.832    -3110721.85449  -2412425.21545  23756444.156    23756452.394
       218.000         156.000
  23321980.040    -6715533.87249  -5214166.23646  23321979.799    23321988.884
       218.000         168.000
  24757307.844    -4442329.72349  -3453873.92045  24757307.513    24757318.583
       201.000         137.000
  20861008.244   -21738077.47049 -16893456.43347  20861007.825    20861014.950
       241.000         210.000
  24725324.918    -3614414.93849  -2795228.95945  24725324.784    24725335.137
       206.000         140.000
  23006116.000     4959383.96549   3876650.07246  23006115.408    23006125.711
       220.000         166.000
  22796625.232   -11215935.04449  -8725358.08446  22796625.864    22796634.045
       218.000         164.000
  20906816.368   -15088083.59849 -11746642.34047  20906815.873    20906823.516
       239.000         207.000
  24248962.482    -2693618.31249  -2054787.49745  24248961.373    24248971.893
       209.000         142.000
  20650596.116   -24012147.66049 -18697236.68547  20650595.640    20650602.452
       243.000         211.000
  20393792.552   -23708181.37149 -18453408.77848  20393792.311    20393797.946
       240.000         215.000
 03  3 19  0 13 30.0000000  0 11G16G 3G 2G23G29G 6G26G17G14G15G18
  23765784.141    -3061639.03349  -2374178.94745  23765784.850    23765792.957
       219.000         156.000
  23305642.462    -6801388.09249  -5281065.53346  23305642.399    23305650.714
       216.000         168.000
  24759144.051    -4432681.21049  -3446355.64545  24759143.861    24759154.626
       205.000         139.000
  20867093.542   -21706099.07249 -16868538.20447  20867093.252    20867100.210
       241.000         210.000
  24742042.825    -3526561.95849  -2726772.15045  24742044.029    24742054.066
       206.000         141.000
  23025552.725     5061523.81849   3956239.47346  23025553.141    23025562.091
       220.000         166.000
  22811409.851   -11138241.80949  -8664817.95046  22811410.279    22811418.781
       218.000         164.000
  20909820.570   -15072296.55349 -11734340.75847  20909820.303    20909827.654
       240.000         207.000
  24227482.363    -2806495.40149  -2142743.32045  24227480.944    24227492.592
       210.000         144.000
  20644546.584   -24043937.92749 -18722008.30647  20644545.768    20644553.272
       242.000         210.000
  20393230.248   -23711136.02149 -18455711.09748  20393230.051    20393235.623
       240.000         215.000
 03  3 19  0 14  0.0000000  0 11G16G 3G 2G23G29G 6G26G17G14G15G18
  23775190.469    -3012208.94349  -2335662.07345  23775189.759    23775198.929
       217.000         155.000
  23289361.732    -6886943.12949  -5347731.72046  23289361.570    23289370.334
       214.000         166.000
  24761053.131    -4422649.89449  -3438539.08245  24761052.640    24761064.506
       208.000         140.000
  20873231.142   -21673845.77249 -16843405.76347  20873230.543    20873237.708
       241.000         210.000
  24758812.501    -3438437.31049  -2658103.65345  24758811.931    24758823.579
       204.000         139.000
  23045031.010     5163882.94849   4035999.72346  23045030.747    23045040.003
       219.000         165.000
  22826285.033   -11060072.55549  -8603906.89146  22826285.052    22826293.875
       218.000         164.000
  20912869.550   -15056274.13749 -11721855.76647  20912869.012    20912876.309
       240.000         207.000
  24206008.869    -2919337.61749  -2230671.99245  24206007.949    24206017.995
       211.000         144.000
  20638538.158   -24075511.97649 -18746611.43747  20638537.478    20638544.810
       242.000         210.000
  20392740.312   -23713710.86749 -18457717.46648  20392740.040    20392745.639
       240.000         215.000
 03  3 19  0 14 30.0000000  0 11G16G 3G 2G23G29G 6G26G17G14G15G18
  23784662.271    -2962433.97549  -2296876.45145  23784662.151    23784672.130
       216.000         155.000
  23273138.397    -6972196.43249  -5414162.77446  23273137.972    23273146.892
       218.000         164.000
  24763034.830    -4412236.85849  -3430425.03845  24763034.478    24763046.069
       204.000         142.000
  20879420.727   -21641319.17149 -16818060.35947  20879420.568    20879427.357
       241.000         210.000
  24775633.213    -3350043.62049  -2589225.50145  24775633.586    24775643.790
       206.000         138.000
  23064550.618     5266459.17849   4115929.15046  23064550.804    23064560.706
       217.000         165.000
  22841250.273   -10981429.95249  -8542626.97346  22841251.231    22841259.910
       219.000         164.000
  20915963.549   -15040015.31849 -11709186.56347  20915963.230    20915970.578
       242.000         207.000
  24184542.617    -3032141.92149  -2318571.13845  24184541.610    24184551.803
       208.000         144.000
  20632571.149   -24106868.53349 -18771045.09347  20632570.349    20632577.904
       243.000         210.000
  20392322.416   -23715907.18349 -18459428.87348  20392322.279    20392327.764
       241.000         215.000
 03  3 19  0 15  0.0000000  0 11G16G 3G 2G23G29G 6G26G17G14G15G18
  23794199.359    -2912316.95549  -2257824.31045  23794199.538    23794208.677
       216.000         155.000
  23256973.130    -7057145.44649  -5480356.73946  23256972.533    23256981.788
       214.000         163.000
  24765088.786    -4401443.56749  -3422014.73445  24765088.896    24765098.190
       204.000         140.000
  20885662.021   -21608521.15649 -16792503.46647  20885661.857    20885668.736
       241.000         210.000
  24792504.742    -3261383.31949  -2520139.63745  24792504.436    24792513.928
       204.000         137.000
  23084111.186     5369250.12949   4196025.87546  23084112.292    23084120.923
       218.000         165.000
  22856305.040   -10902316.74849  -8480980.36046  22856305.009    22856314.287
       218.000         163.000
  20919102.607   -15023519.72849 -11696332.86747  20919102.357    20919109.781
       241.000         207.000
  24163083.960    -3144906.18349  -2406439.08545  24163082.226    24163093.115
       211.000         144.000
  20626645.761   -24138006.76149 -18795308.62647  20626645.281    20626652.531
       243.000         211.000
  20391976.352   -23717726.09949 -18460846.20648  20391975.929    20391981.603
       240.000         215.000
 03  3 19  0 15 30.0000000  0 11G16G 3G 2G23G29G 6G26G17G14G15G18
  23803800.987    -2861860.66749  -2218507.80945  23803799.433    23803810.366
       216.000         155.000
  23240866.205    -7141787.75149  -5546311.72045  23240866.543    23240874.687
       215.000         162.000
  24767214.850    -4390271.26549  -3413309.08945  24767214.934    24767225.972
       207.000         137.000
  20891954.686   -21575453.18849 -16766736.21847  20891954.381    20891961.191
       241.000         210.000
  24809426.696    -3172458.72249  -2450847.78145  24809427.571    24809437.860
       205.000         139.000
  23103712.233     5472253.50249   4276288.14246  23103712.663    23103722.099
       219.000         165.000
  22871448.876   -10822735.63649  -8418969.17046  22871449.985    22871457.148
       217.000         163.000
  20922286.891   -15006786.36349 -11683293.89347  20922286.602    20922293.676
       241.000         207.000
  24141633.443    -3257627.36849  -2494273.49445  24141632.825    24141643.926
       211.000         143.000
  20620762.073   -24168925.70149 -18819401.29247  20620761.464    20620768.812
       243.000         211.000
  20391701.795   -23719168.64249 -18461970.26248  20391701.229    20391707.088
       239.000         215.000
 03  3 19  0 16  0.0000000  0 11G16G 3G 2G23G29G 6G26G17G14G15G18
  23813466.518    -2811068.02849  -2178929.21845  23813466.510    23813474.811
       214.000         154.000
  23224818.018    -7226121.30149  -5612026.10945  23224818.023    23224826.147
       216.000         162.000
  24769412.658    -4378721.72849  -3404309.53045  24769411.693    24769422.345
       203.000         138.000
  20898298.232   -21542117.40949 -16740760.28147  20898297.899    20898304.900
       240.000         210.000
  24826398.257    -3083272.95649  -2381352.48245  24826398.282    24826409.482
       206.000         139.000
  23123353.053     5575466.69349   4356713.89146  23123352.936    23123362.793
       219.000         165.000
  22886681.141   -10742689.63449  -8356595.67946  22886681.990    22886690.270
       218.000         164.000
  20925516.502   -14989814.75449 -11670069.27147  20925516.237    20925523.487
       241.000         206.000
  24120191.644    -3370303.17349  -2582072.55445  24120190.649    24120200.302
       210.000         143.000
  20614920.167   -24199624.87949 -18843322.70647  20614919.438    20614926.955
       243.000         211.000
  20391498.584   -23720236.11649 -18462802.05348  20391498.240    20391503.908
       240.000         214.000
 03  3 19  0 16 30.0000000  0 11G16G 3G 2G23G29G 6G26G17G14G15G18
  23823195.618    -2759941.39149  -2139090.36045  23823195.765    23823204.967
       217.000         154.000
  23208829.120    -7310143.31049  -5677497.73345  23208829.132    23208837.460
       215.000         161.000
  24771681.990    -4366795.60249  -3395016.49345  24771681.452    24771693.579
       204.000         139.000
  20904692.513   -21508515.25949 -16714576.79047  20904692.143    20904698.930
       241.000         209.000
  24843419.218    -2993827.94249  -2311655.13145  24843419.359    24843430.553
       202.000         139.000
  23143033.584     5678887.89249   4437301.72646  23143033.471    23143042.787
       221.000         165.000
  22902001.577   -10662181.10949  -8293861.82146  22902002.164    22902009.840
       217.000         164.000
  20928791.691   -14972603.48749 -11656657.90247  20928791.079    20928798.804
       241.000         206.000
  24098759.087    -3482930.48449  -2669833.83645  24098758.097    24098769.077
       208.000         143.000
  20609120.374   -24230102.79849 -18867071.72247  20609119.653    20609127.077
       244.000         211.000
  20391366.630   -23720929.31849 -18463342.20748  20391366.451    20391372.019
       241.000         215.000
 03  3 19  0 17  0.0000000  0 11G16G 3G 2G23G29G 6G26G17G14G15G18
  23832987.872    -2708483.58949  -2098993.44645  23832987.046    23832996.531
       215.000         153.000
  23192899.970    -7393851.59049  -5742724.90845  23192899.780    23192907.994
       216.000         162.000
  24774022.715    -4354494.80249  -3385431.46845  24774022.201    24774033.891
       204.000         140.000
  20911137.031   -21474648.76249 -16688187.30647  20911136.541    20911143.670
       241.000         209.000
  24860488.902    -2904126.25949  -2241757.80845  24860488.972    24860498.492
       200.000         139.000
  23162753.176     5782514.52349   4518049.64146  23162753.549    23162763.109
       220.000         165.000
  22917409.325   -10581213.25449  -8230770.01646  22917409.188    22917418.161
       216.000         164.000
  20932112.439   -14955152.67049 -11643059.87247  20932112.120    20932119.544
       241.000         206.000
  24077336.269    -3595506.83249  -2757555.41645  24077335.228    24077344.883
       210.000         142.000
  20603362.861   -24260358.61349 -18890647.66547  20603362.259    20603369.636
       242.000         211.000
  20391305.767   -23721249.03649 -18463591.33548  20391305.743    20391311.239
       240.000         215.000
 03  3 19  0 17 30.0000000  0 11G16G 3G 2G23G29G 6G26G17G14G15G18
  23842842.498    -2656696.82949  -2058640.23045  23842841.914    23842851.893
       215.000         152.000
  23177031.131    -7477242.99549  -5807705.16646  23177030.536    23177039.484
       215.000         163.000
  24776434.693    -4341820.06649  -3375555.08445  24776435.501    24776444.179
       205.000         138.000
  20917631.677   -21440519.13649 -16661592.78747  20917631.335    20917638.287
       242.000         209.000
  24877606.783    -2814170.18849  -2171662.25545  24877607.061    24877618.474
       200.000         138.000
  23182511.485     5886344.56349   4598956.05346  23182512.511    23182521.813
       219.000         166.000
  22932903.902   -10499788.13349  -8167321.90646  22932903.721    22932913.660
       215.000         163.000
  20935479.114   -14937460.73349 -11629273.95347  20935478.670    20935486.107
       241.000         206.000
  24055923.779    -3708029.05449  -2845234.81645  24055921.982    24055933.235
       211.000         142.000
  20597647.862   -24290391.06149 -18914049.55147  20597647.106    20597654.422
       244.000         211.000
  20391315.849   -23721196.36349 -18463550.28448  20391315.426    20391321.232
       240.000         215.000
 03  3 19  0 18  0.0000000  0 10G16G 3G 2G23G 6G26G17G14G15G18
  23852759.330    -2604583.93049  -2018032.84945  23852759.588    23852768.720
       215.000         153.000
  23161222.959    -7560315.29149  -5872436.75546  23161222.569    23161231.517
       216.000         163.000
  24778917.686    -4328772.94449  -3365388.57545  24778917.243    24778927.491
       205.000         137.000
  20924176.121   -21406128.16049 -16634794.62547  20924175.625    20924182.855
       242.000         209.000
  23202308.056     5990375.64149   4680019.12146  23202308.526    23202317.397
       219.000         165.000
  22948484.838   -10417908.71849  -8103519.79945  22948485.134    22948493.544
       219.000         162.000
  20938891.730   -14919527.13149 -11615299.73147  20938891.417    20938898.886
       241.000         206.000
  24034522.084    -3820494.61149  -2932870.07545  24034520.817    24034531.877
       208.000         142.000
  20591975.560   -24320199.13049 -18937276.60447  20591974.972    20591982.373
       243.000         211.000
  20391396.428   -23720772.62049 -18463220.08848  20391396.100    20391401.631
       239.000         215.000
 03  3 19  0 18 30.0000000  0 10G16G 3G 2G23G 6G26G17G14G15G18
  23862737.698    -2552147.47049  -1977173.35445  23862737.790    23862747.686
       215.000         154.000
  23145475.995    -7643065.91649  -5936917.69346  23145476.120    23145484.348
       216.000         163.000
  24781471.064    -4315354.54549  -3354932.72845  24781470.485    24781481.692
       205.000         136.000
  20930769.941   -21371477.48249 -16607794.09947  20930769.560    20930776.617
       242.000         209.000
  23222142.341     6094605.67949   4761237.21146  23222142.675    23222152.681
       217.000         164.000
  22964151.985   -10335577.53849  -8039365.67745  22964152.048    22964161.693
       216.000         162.000
  20942350.506   -14901350.93749 -11601136.47347  20942350.093    20942357.838
       241.000         206.000
  24013131.777    -3932900.50549  -3020458.82045  24013131.075    24013141.972
       207.000         142.000
  20586346.166   -24349781.73649 -18960327.96347  20586345.380    20586352.618
       242.000         211.000
  20391547.537   -23719978.38049 -18462601.19348  20391547.196    20391552.873
       240.000         214.000
 03  3 19  0 19  0.0000000  0 10G16G 3G 2G23G 6G26G17G14G15G18
  23872777.032    -2499390.77849  -1936064.33245  23872777.330    23872785.233
       216.000         154.000
  23129790.675    -7725492.73949  -6001146.32346  23129790.139    23129799.279
       216.000         163.000
  24784094.855    -4301566.66649  -3344188.96145  24784095.348    24784106.555
       205.000         139.000
  20937412.761   -21336569.22649 -16580592.86347  20937412.361    20937419.314
       242.000         210.000
  23242013.894     6199031.64949   4842607.98346  23242013.489    23242023.221
       219.000         164.000
  22979904.411   -10252798.12449  -7974862.27545  22979905.393    22979913.890
       216.000         162.000
  20945855.483   -14882932.10549 -11586784.15047  20945855.176    20945862.603
       241.000         206.000
  23991753.053    -4045244.58649  -3107999.42245  23991751.706    23991762.670
       208.000         141.000
  20580759.725   -24379138.52949 -18983203.36747  20580758.867    20580766.215
       243.000         211.000
  20391768.815   -23718815.42249 -18461694.98348  20391768.622    20391773.930
       240.000         214.000
 03  3 19  0 19 30.0000000  0 10G16G 3G 2G23G 6G26G17G14G15G18
  23882876.845    -2446316.54749  -1894707.87745  23882877.398    23882885.369
       215.000         153.000
  23114167.391    -7807593.41149  -6065120.79746  23114166.815    23114175.396
       218.000         163.000
  24786788.559    -4287410.98749  -3333158.57345  24786788.593    24786800.053
       206.000         140.000
  20944104.264   -21301405.21049 -16553192.33047  20944103.969    20944110.749
       242.000         210.000
  23261922.263     6303651.16449   4924129.57546  23261921.867    23261932.613
       217.000         163.000
  22995741.709   -10169573.22949  -7910011.76045  22995742.948    22995750.734
       218.000         162.000
  20949406.846   -14864269.63749 -11572241.98647  20949406.548    20949414.103
       241.000         206.000
  23970386.554    -4157524.37449  -3195489.90945  23970385.108    23970395.542
       207.000         141.000
  20575216.496   -24408268.38149 -19005901.94147  20575216.004    20575222.821
       243.000         210.000
  20392060.111   -23717284.82949 -18460502.29948  20392059.781    20392065.273
       240.000         214.000
 03  3 19  0 20  0.0000000  0 10G16G 3G 2G23G 6G26G17G14G15G18
  23893036.319    -2392927.54049  -1853106.15445  23893035.716    23893045.818
       213.000         152.000
  23098606.577    -7889365.41849  -6128839.17246  23098606.178    23098615.187
       217.000         164.000
  24789552.052    -4272888.73749  -3321842.59445  24789551.031    24789563.684
       207.000         139.000
  20950844.117   -21265987.11549 -16525593.82447  20950843.873    20950850.746
       242.000         209.000
  23281867.111     6408462.10049   5005800.30745  23281867.628    23281877.759
       216.000         162.000
  23011663.255   -10085905.56349  -7844816.21146  23011664.566    23011671.887
       219.000         163.000
  20953004.795   -14845362.67349 -11557509.30747  20953004.657    20953011.822
       241.000         206.000
  23949032.914    -4269736.94149  -3282928.02745  23949032.600    23949042.189
       208.000         141.000
  20569716.680   -24437170.04249 -19028422.70447  20569716.132    20569723.152
       243.000         210.000
  20392421.139   -23715387.61949 -18459023.94348  20392420.821    20392426.279
       240.000         215.000
 03  3 19  0 20 30.0000000  0 10G16G 3G 2G23G 6G26G17G14G15G18
  23903255.165    -2339227.13749  -1811261.76045  23903255.820    23903263.658
       215.000         151.000
  23083108.744    -7970806.93649  -6192300.02846  23083108.796    23083117.332
       220.000         164.000
  24792385.031    -4258002.13549  -3310242.72245  24792384.849    24792394.822
       204.000         137.000
  20957631.863   -21230317.24849 -16497799.13547  20957631.713    20957638.345
       242.000         209.000
  23301847.887     6513461.62149   5087617.99145  23301847.956    23301858.258
       215.000         161.000
  23027668.493   -10001798.64349  -7779278.38045  23027668.837    23027677.403
       218.000         162.000
  20956649.302   -14826210.90849 -11542585.87147  20956648.934    20956656.417
       241.000         206.000
  23927692.676    -4381880.16749  -3370312.11245  23927692.233    23927700.447
       210.000         141.000
  20564260.270   -24465843.46549 -19050765.62147  20564259.849    20564267.040
       243.000         211.000
  20392851.596   -23713125.72049 -18457261.42048  20392851.443    20392857.074
       240.000         215.000
 03  3 19  0 21  0.0000000  0 10G16G 3G 2G23G 6G26G17G14G15G18
  23913533.006    -2285217.10049  -1769176.08945  23913531.297    23913541.456
       212.000         150.000
  23067674.524    -8051914.51149  -6255500.66746  23067674.611    23067682.436
       219.000         166.000
  24795287.139    -4242751.58449  -3298359.22745  24795285.881    24795297.314
       206.000         138.000
  20964467.358   -21194396.43749 -16469808.89847  20964467.281    20964473.984
       242.000         209.000
  23321864.399     6618648.37049   5169581.56045  23321863.570    23321875.782
       215.000         160.000
  23043756.742    -9917254.29949  -7713399.72245  23043756.839    23043764.950
       216.000         162.000
  20960340.619   -14806812.86249 -11527470.52347  20960339.949    20960347.638
       241.000         206.000
  23906366.407    -4493950.27449  -3457639.21445  23906366.317    23906375.377
       210.000         142.000
  20558847.767   -24494286.55649 -19072929.04647  20558847.246    20558854.469
       243.000         211.000
  20393351.351   -23710499.27149 -18455214.82648  20393350.987    20393356.622
       240.000         215.000
 03  3 19  0 21 30.0000000  0 10G16G 3G 2G23G 6G26G17G14G15G18
  23923869.142    -2230900.40949  -1726851.47545  23923868.620    23923878.274
       214.000         149.000
  23052304.238    -8132686.17249  -6318439.56046  23052303.952    23052312.289
       221.000         167.000
  24798258.092    -4227138.95849  -3286193.60545  24798256.464    24798269.986
       201.000         138.000
  20971350.253   -21158226.76849 -16441624.75047  20971350.006    20971356.834
       242.000         209.000
  23341915.824     6724019.34249   5251688.70245  23341916.537    23341927.085
       212.000         158.000
  23059927.678    -9832275.88549  -7647182.80545  23059927.344    23059936.771
       217.000         161.000
  20964078.846   -14787168.24949 -11512163.05047  20964078.331    20964086.006
       241.000         206.000
  23885054.578    -4605944.94449  -3544907.54945  23885054.791    23885063.538
       210.000         143.000
  20553479.147   -24522498.54349 -19094912.40147  20553478.653    20553485.958
       243.000         211.000
  20393920.260   -23707509.63949 -18452885.23748  20393920.023    20393925.491
       240.000         215.000
 03  3 19  0 22  0.0000000  0 10G16G 3G 2G23G 6G26G17G14G15G18
  23934263.191    -2176279.78249  -1684289.99845  23934264.074    23934271.943
       217.000         149.000
  23036998.232    -8213119.33049  -6381114.69046  23036998.258    23037006.947
       221.000         168.000
  24801297.477    -4211165.69149  -3273746.94645  24801296.690    24801309.807
       198.000         135.000
  20978280.207   -21121809.71249 -16413247.83347  20978280.069    20978286.759
       242.000         210.000
  23362001.744     6829572.34149   5333937.65645  23362001.853    23362012.844
       211.000         157.000
  23076180.625    -9746865.90649  -7580629.63145  23076180.083    23076189.092
       216.000         160.000
  20967864.106   -14767276.12949 -11496662.70547  20967863.750    20967871.223
       240.000         205.000
  23863757.504    -4717861.29049  -3632114.83845  23863756.365    23863766.493
       210.000         145.000
  20548154.807   -24550478.17949 -19116714.69647  20548154.249    20548161.505
       242.000         211.000
  20394558.058   -23704157.78749 -18450273.40048  20394557.801    20394563.219
       240.000         215.000
 03  3 19  0 22 30.0000000  0 10G16G 3G 2G23G 6G26G17G14G15G18
  23944714.613    -2121357.78449  -1641493.71745  23944714.929    23944723.302
       211.000         150.000
  23021757.139    -8293211.36649  -6443523.98246  23021756.989    23021765.414
       221.000         168.000
  24804405.228    -4194832.89149  -3261020.13845  24804404.458    24804417.116
       202.000         134.000
  20985257.043   -21085146.60049 -16384679.18247  20985256.599    20985263.623
       242.000         210.000
  23382122.200     6935305.40349   5416326.91845  23382122.633    23382133.673
       212.000         156.000
  23092515.195    -9661026.97249  -7513742.18545  23092515.504    23092524.745
       216.000         160.000
  20971696.770   -14747135.34049 -11480968.59147  20971696.207    20971703.762
       241.000         205.000
  23842475.849    -4829696.35649  -3719258.80245  23842474.968    23842484.962
       210.000         145.000
  20542874.878   -24578224.25849 -19138334.99747  20542874.244    20542881.337
       243.000         211.000
  20395264.669   -23700444.57949 -18447379.98348  20395264.352    20395269.905
       240.000         215.000
 03  3 19  0 23  0.0000000  0 10G16G 3G 2G23G 6G26G17G14G15G18
  23955222.624    -2066137.41449  -1598464.94045  23955221.395    23955230.791
       214.000         148.000
  23006581.392    -8372960.18049  -6505665.84246  23006581.555    23006589.504
       222.000         168.000
  24807581.338    -4178142.56549  -3248014.78345  24807580.280    24807593.785
       200.000         135.000
  20992280.146   -21048239.80949 -16355920.65047  20992279.747    20992286.531
       242.000         209.000
  23402276.558     7041215.72149   5498854.32145  23402276.841    23402287.782
       216.000         157.000
  23108930.719    -9574762.47849  -7446523.13945  23108930.910    23108939.749
       215.000         160.000
  20975576.886   -14726745.40249 -11465080.33347  20975576.720    20975583.756
       240.000         205.000
  23821210.150    -4941447.73349  -3806337.56145  23821208.441    23821218.243
       212.000         147.000
  20537639.484   -24605736.34749 -19159772.96647  20537638.848    20537645.859
       243.000         211.000
  20396039.676   -23696371.64549 -18444206.25848  20396039.436    20396044.811
       240.000         215.000
 03  3 19  0 23 30.0000000  0 10G16G 3G 2G23G 6G26G17G14G15G18
  23965786.895    -2010621.92349  -1555206.18145  23965786.891    23965796.541
       212.000         149.000
  22991471.409    -8452363.33649  -6567538.35146  22991470.906    22991479.292
       221.000         169.000
  24810825.295    -4161096.56449  -3234732.24945  24810824.843    24810837.201
       201.000         135.000
  20999349.259   -21011091.38149 -16326973.83647  20999348.703    20999355.688
       242.000         209.000
  23422464.051     7147300.53449   5581517.68745  23422465.045    23422473.983
       215.000         157.000
  23125426.703    -9488075.64049  -7378975.00745  23125426.510    23125435.043
       216.000         160.000
  20979504.460   -14706105.96649 -11448997.66247  20979503.942    20979511.898
       241.000         206.000
  23799960.775    -5053113.27149  -3893349.43245  23799960.620    23799968.461
       213.000         148.000
  20532448.722   -24633013.76049 -19181028.07347  20532448.212    20532455.392
       244.000         211.000
  20396882.874   -23691940.54849 -18440753.44748  20396882.512    20396888.067
       240.000         214.000
 03  3 19  0 24  0.0000000  0 10G16G 3G 2G23G 6G26G17G14G15G18
  23976406.826    -1954814.26049  -1511719.77845  23976407.189    23976416.040
       212.000         149.000
  22976427.577    -8531418.72749  -6629139.87646  22976427.170    22976435.664
       223.000         170.000
  24814136.552    -4143696.26249  -3221173.62145  24814136.381    24814147.783
       201.000         136.000
  21006464.060   -20973703.00149 -16297840.04447  21006463.858    21006470.584
       242.000         209.000
  23442684.186     7253557.54449   5664315.23145  23442684.637    23442695.529
       214.000         157.000
  23142002.484    -9400969.22849  -7311099.93345  23142002.845    23142010.740
       215.000         159.000
  20983479.726   -14685215.95749 -11432719.73947  20983479.399    20983486.919
       240.000         206.000
  23778728.351    -5164690.04949  -3980292.15745  23778727.939    23778737.021
       215.000         150.000
  20527302.878   -24660055.30649 -19202099.38847  20527302.154    20527309.452
       242.000         211.000
  20397793.981   -23687152.32049 -18437022.35648  20397793.881    20397799.277
       240.000         214.000
 03  3 19  0 24 30.0000000  0 10G16G 3G 2G23G 6G26G17G14G15G18
  23987081.878    -1898716.51849  -1468007.33945  23987082.468    23987092.018
       213.000         149.000
  22961450.554    -8610123.36849  -6690468.09146  22961450.349    22961458.375
       223.000         171.000
  24817515.026    -4125942.77049  -3207339.77345  24817514.832    24817525.276
       202.000         135.000
  21013624.293   -20936075.65549 -16268520.04147  21013623.771    21013630.686
       241.000         208.000
  23462936.757     7359985.04749   5747245.62545  23462938.046    23462946.969
       215.000         157.000
  23158657.720    -9313445.65849  -7242899.78345  23158657.875    23158666.261
       212.000         158.000
  20987502.782   -14664074.50849 -11416245.89647  20987502.374    20987509.879
       240.000         205.000
  23757513.418    -5276174.73549  -4067163.11445  23757512.766    23757521.422
       214.000         151.000
  20522202.201   -24686859.22949 -19222985.53947  20522201.516    20522208.654
       242.000         211.000
  20398773.047   -23682007.67149 -18433013.53748  20398773.063    20398778.302
       241.000         215.000
 03  3 19  0 25  0.0000000  0 10G16G 3G 2G23G 6G26G17G14G15G18
  23997811.644    -1842331.78349  -1424071.24445  23997811.891    23997821.527
       214.000         149.000
  22946540.639    -8688474.98649  -6751521.23046  22946540.620    22946548.612
       220.000         172.000
  24820960.251    -4107837.96649  -3193232.19245  24820959.178    24820971.117
       199.000         134.000
  21020829.633   -20898211.21549 -16239015.29247  21020829.343    21020836.009
       242.000         209.000
  23483221.331     7466580.49249   5830306.88245  23483222.064    23483231.922
       214.000         157.000
  23175391.513    -9225507.95349  -7174376.94645  23175391.780    23175400.560
       215.000         157.000
  20991573.845   -14642680.89349 -11399575.55847  20991573.556    20991580.946
       240.000         205.000
  23736316.525    -5387564.76349  -4153960.30245  23736316.000    23736324.653
       215.000         152.000
  20517146.907   -24713424.72349 -19243685.91047  20517146.355    20517153.628
       243.000         211.000
  20399819.672   -23676507.76649 -18428727.89248  20399819.459    20399824.997
       240.000         215.000
 03  3 19  0 25 30.0000000  0 10G16G 3G 2G23G 6G26G17G14G15G18
  24008595.448    -1785662.68549  -1379913.58845  24008594.826    24008604.978
       212.000         149.000
  22931698.352    -8766471.18649  -6812297.41446  22931698.136    22931706.617
       221.000         170.000
  24824471.837    -4089383.82449  -3178852.39245  24824471.306    24824484.541
       204.000         134.000
  21028079.797   -20860111.44549 -16209327.16047  21028079.673    21028086.009
       242.000         209.000
  23503537.377     7573341.44449   5913497.10145  23503538.069    23503548.372
       213.000         156.000
  23192203.843    -9137159.07949  -7105533.70545  23192203.781    23192213.181
       213.000         158.000
  20995693.009   -14621034.61849 -11382708.33547  20995692.674    20995700.424
       241.000         205.000
  23715138.235    -5498857.45349  -4240681.67745  23715137.642    23715146.355
       215.000         152.000
  20512137.244   -24739750.77249 -19264199.70047  20512136.643    20512143.872
       243.000         212.000
  20400933.654   -23670653.82949 -18424166.38448  20400933.458    20400938.969
       241.000         215.000
 03  3 19  0 26  0.0000000  0 10G16G 3G 2G23G 6G26G17G14G15G18
  24019432.593    -1728712.35749  -1335536.77845  24019432.233    24019442.004
       210.000         147.000
  22916924.172    -8844109.54149  -6872794.78646  22916923.764    22916932.143
       221.000         169.000
  24828049.872    -4070581.57549  -3164201.35945  24828050.468    24828061.489
       205.000         136.000
  21035374.417   -20821778.16149 -16179457.07647  21035374.343    21035380.849
       242.000         209.000
  23523884.456     7680265.49149   5996814.41645  23523884.294    23523895.806
       212.000         155.000
  23209093.658    -9048402.05449  -7036372.43645  23209094.628    23209102.219
       216.000         157.000
  20999860.450   -14599134.80549 -11365643.54947  20999859.999    20999867.723
       241.000         205.000
  23693978.839    -5610050.15049  -4327325.11845  23693977.301    23693986.584
       213.000         153.000
  20507173.276   -24765836.35749 -19284526.11847  20507172.650    20507180.140
       242.000         212.000
  20402114.738   -23664447.17549 -18419330.02848  20402114.250    20402120.006
       240.000         215.000
 03  3 19  0 26 30.0000000  0 10G16G 3G 2G23G 6G26G17G14G15G18
  24030322.993    -1671483.44249  -1290942.90745  24030323.963    24030333.480
       213.000         149.000
  22902218.516    -8921387.77149  -6933011.50146  22902218.074    22902226.777
       223.000         170.000
  24831693.854    -4051432.56549  -3149280.09045  24831694.775    24831705.076
       202.000         135.000
  21042713.207   -20783212.86849 -16149406.20047  21042712.903    21042719.712
       242.000         209.000
  23544262.045     7787350.30449   6080256.99945  23544261.937    23544272.527
       213.000         155.000
  23226060.746    -8959239.48949  -6966895.16445  23226061.142    23226069.727
       213.000         157.000
  21004076.265   -14576980.49549 -11348380.45247  21004075.801    21004083.277
       240.000         205.000
  23672838.906    -5721139.81049  -4413888.26845  23672837.286    23672847.459
       214.000         153.000
  20502255.242   -24791680.38649 -19304664.30747  20502254.525    20502262.137
       243.000         212.000
  20403362.696   -23657888.83749 -18414219.63048  20403362.256    20403368.180
       240.000         215.000
 03  3 19  0 27  0.0000000  0 10G16G 3G 2G23G 6G26G17G14G15G18
  24041265.790    -1613978.96749  -1246134.30345  24041266.717    24041276.051
       209.000         148.000
  22887581.906    -8998303.36749  -6992945.66946  22887582.057    22887589.719
       222.000         171.000
  24835403.483    -4031938.74049  -3134090.13145  24835402.609    24835415.811
       203.000         133.000
  21050095.771   -20744417.36949 -16119175.94847  21050095.382    21050102.105
       242.000         209.000
  23564669.800     7894593.40149   6163822.92145  23564670.158    23564680.569
       213.000         155.000
  23243104.346    -8869674.61249  -6897104.39045  23243105.063    23243113.605
       214.000         156.000
  21008340.670   -14554570.98649 -11330918.49947  21008340.169    21008347.696
       241.000         205.000
  23651719.032    -5832124.17549  -4500369.37845  23651717.956    23651727.341
       215.000         154.000
  20497383.411   -24817282.07749 -19324613.67047  20497382.747    20497390.040
       242.000         211.000
  20404677.361   -23650980.12749 -18408836.22048  20404677.026    20404682.923
       240.000         215.000
 03  3 19  0 27 30.0000000  0 10G16G 3G 2G23G 6G26G17G14G15G18
  24052260.311    -1556201.94949  -1201113.33145  24052260.946    24052270.316
       210.000         147.000
  22873014.778    -9074854.21449  -7052595.61846  22873014.242    22873022.827
       225.000         173.000
  24839178.412    -4012101.78249  -3118632.82044  24839177.445    24839189.819
       202.000         131.000
  21057521.774   -20705393.57149 -16088767.79547  21057521.571    21057528.212
       242.000         209.000
  23585107.190     8001992.10249   6247510.09445  23585107.790    23585118.647
       213.000         154.000
  23260224.037    -8779710.65349  -6827002.63445  23260225.131    23260233.040
       217.000         157.000
  21012653.790   -14531905.74649 -11313257.27947  21012653.463    21012660.728
       241.000         205.000
  23630619.810    -5943000.31649  -4586766.16245  23630618.803    23630627.640
       215.000         154.000
  20492557.905   -24842640.31949 -19344373.32547  20492557.408    20492564.450
       243.000         212.000
  20406058.412   -23643722.53749 -18403180.94948  20406058.170    20406063.911
       240.000         215.000
 03  3 19  0 28  0.0000000  0  9G16G 3G23G 6G26G17G14G15G18
  24063306.962    -1498152.34649  -1155879.93445  24063307.309    24063316.263
       212.000         148.000
  22858518.055    -9151034.98149  -7111957.19846  22858517.568    22858526.116
       225.000         175.000
  21064991.456   -20666140.17849 -16058180.73847  21064991.140    21064997.668
       242.000         208.000
  23605574.332     8109547.19049   6331319.11245  23605574.801    23605585.864
       213.000         154.000
  23277419.742    -8689347.32949  -6756589.69045  23277419.758    23277429.301
       213.000         157.000
  21017016.230   -14508981.07249 -11295393.91247  21017015.803    21017023.370
       240.000         205.000
  23609542.262    -6053762.78049  -4673074.38145  23609540.815    23609550.683
       215.000         155.000
  20487779.595   -24867750.81749 -19363939.92947  20487779.046    20487786.229
       244.000         212.000
  20407506.150   -23636114.66849 -18397252.73548  20407505.958    20407511.689
       241.000         215.000
 03  3 19  0 28 30.0000000  0  9G16G 3G23G 6G26G17G14G15G18
  24074404.539    -1439835.13949  -1110438.01845  24074404.547    24074414.293
       210.000         149.000
  22844091.752    -9226845.71249  -7171030.42546  22844091.884    22844099.818
       224.000         176.000
  21072503.941   -20626661.47749 -16027418.11147  21072503.369    21072510.504
       242.000         208.000
  23626070.247     8217253.81049   6415246.21145  23626071.281    23626080.233
       213.000         154.000
  23294690.280    -8598590.18349  -6685869.87245  23294690.471    23294700.273
       213.000         157.000
  21021427.618   -14485798.67949 -11277329.71547  21021426.979    21021434.489
       240.000         205.000
  23588486.390    -6164411.00249  -4759293.57945  23588485.072    23588494.404
       213.000         155.000
  20483048.024   -24892615.34149 -19383314.87147  20483047.391    20483054.717
       243.000         212.000
  20409020.009   -23628159.46549 -18391053.87548  20409019.760    20409025.356
       241.000         215.000
 03  3 19  0 29  0.0000000  0  9G16G 3G23G 6G26G17G14G15G18
  24085552.008    -1381255.09149  -1064791.30345  24085552.359    24085562.015
       209.000         149.000
  22829735.906    -9302285.90649  -7229814.93546  22829735.483    22829744.583
       225.000         175.000
  21080058.655   -20586960.79549 -15996482.51747  21080057.990    21080065.334
       241.000         208.000
  23646594.234     8325107.76249   6499288.11345  23646594.773    23646604.593
       215.000         154.000
  23312034.827    -8507443.93349  -6614846.87245  23312036.253    23312044.311
       213.000         157.000
  21025887.952   -14462359.20449 -11259065.20147  21025887.591    21025895.264
       240.000         204.000
  23567452.354    -6274944.10649  -4845423.08245  23567451.753    23567460.716
       213.000         155.000
  20478363.101   -24917234.45049 -19402498.57447  20478362.475    20478369.646
       242.000         212.000
  20410599.374   -23619859.94749 -18384586.71548  20410599.126    20410604.750
       240.000         215.000
 03  3 19  0 29 30.0000000  0  9G16G 3G23G 6G26G17G14G15G18
  24096749.052    -1322414.65949  -1018941.71745  24096749.128    24096758.834
       211.000         148.000
  22815451.074    -9377352.64749  -7288308.43946  22815450.222    22815459.052
       226.000         176.000
  21087655.415   -20547039.35349 -15965374.90547  21087655.090    21087662.154
       241.000         208.000
  23667146.048     8433107.15049   6583443.33245  23667147.255    23667156.961
       214.000         155.000
  23329453.039    -8415911.01949  -6543522.57145  23329452.906    23329463.173
       213.000         157.000
  21030397.395   -14438661.82049 -11240599.72347  21030396.949    21030405.009
       240.000         205.000
  23546440.882    -6385358.83849  -4931460.34745  23546440.109    23546448.851
       212.000         155.000
  20473725.202   -24941606.69749 -19421489.92347  20473724.685    20473731.740
       243.000         211.000
  20412244.031   -23611217.16649 -18377852.07948  20412243.848    20412249.272
       240.000         215.000
 03  3 19  0 30  0.0000000  0  9G16G 3G23G 6G26G17G14G15G18
  24107995.259    -1263316.64849   -972891.37745  24107995.932    24108005.619
       212.000         147.000
  22801237.821    -9452043.51749  -7346509.07046  22801237.512    22801245.650
       226.000         175.000
  21095293.907   -20506898.66349 -15934096.45047  21095293.562    21095300.541
       241.000         208.000
  23687725.188     8541249.68849   6667710.10545  23687725.159    23687736.030
       215.000         156.000
  23346944.322    -8323994.29649  -6471899.18445  23346945.616    23346952.527
       214.000         157.000
  21034956.192   -14414705.60449 -11221932.54547  21034955.803    21034963.455
       240.000         205.000
  23525452.466    -6495652.14849  -5017403.00945  23525451.879    23525461.225
       216.000         155.000
  20469134.538   -24965730.70749 -19440287.83747  20469133.933    20469141.205
       243.000         211.000
  20413953.820   -23602232.09849 -18370850.72348  20413953.624    20413958.891
       240.000         215.000
 03  3 19  0 30 30.0000000  0  9G16G 3G23G 6G26G17G14G15G18
  24119289.680    -1203963.49649   -926642.23645  24119289.084    24119299.218
       208.000         146.000
  22787096.652    -9526355.69149  -7404414.60246  22787096.272    22787104.997
       224.000         176.000
  21102973.901   -20466540.07449 -15902648.20247  21102973.795    21102980.470
       242.000         208.000
  23708331.078     8649533.44349   6752086.90945  23708331.394    23708342.051
       215.000         156.000
  23364508.190    -8231696.29449  -6399978.70845  23364508.477    23364516.629
       212.000         156.000
  21039564.370   -14390489.55549 -11203062.89947  21039563.823    21039571.742
       240.000         204.000
  23504487.739    -6605821.20449  -5103248.83945  23504486.792    23504496.354
       215.000         156.000
  20464591.363   -24989605.06149 -19458891.22147  20464591.028    20464598.041
       243.000         211.000
  20415728.571   -23592905.57749 -18363583.29848  20415728.155    20415733.681
       240.000         214.000
 03  3 19  0 31  0.0000000  0  9G16G 3G23G 6G26G17G14G15G18
  24130632.239    -1144357.57749   -880196.15345  24130632.211    24130642.406
       210.000         146.000
  22773028.038    -9600286.42649  -7462022.90446  22773028.870    22773036.091
       225.000         175.000
  21110695.143   -20425964.95049 -15871031.22647  21110694.740    21110701.845
       242.000         208.000
  23728963.334     8757956.36349   6836572.14945  23728963.800    23728974.082
       214.000         156.000
  23382144.090    -8139019.75349  -6327763.27345  23382144.728    23382154.062
       214.000         156.000
  21044222.235   -14366012.46249 -11183989.83747  21044221.639    21044229.277
       239.000         204.000
  23483547.249    -6715862.90749  -5188995.43745  23483546.289    23483555.901
       215.000         156.000
  20460096.061   -25013228.32249 -19477298.94147  20460095.521    20460102.740
       244.000         212.000
  20417568.089   -23583238.59249 -18356050.58048  20417567.682    20417573.359
       240.000         214.000
 03  3 19  0 31 30.0000000  0  9G16G 3G23G 6G26G17G14G15G18
  24142022.524    -1084502.33149   -833555.77645  24142022.016    24142032.955
       208.000         147.000
  22759032.496    -9673833.54849  -7519332.30146  22759032.550    22759040.196
       224.000         177.000
  21118457.200   -20385175.07349 -15839246.91447  21118457.086    21118463.946
       242.000         208.000
  23749621.638     8866515.77849   6921163.74245  23749622.409    23749632.268
       213.000         155.000
  23399851.210    -8045967.68749  -6255255.22045  23399851.280    23399859.768
       212.000         154.000
  21048929.825   -14341273.51849 -11164712.74247  21048929.190    21048936.677
       239.000         203.000
  23462631.593    -6825774.43549  -5274640.62545  23462631.388    23462640.027
       214.000         156.000
  20455648.645   -25036599.50449 -19495510.23547  20455648.070    20455655.192
       243.000         212.000
  20419472.197   -23573232.56349 -18348253.67248  20419471.934    20419477.439
       241.000         214.000
 03  3 19  0 32  0.0000000  0  9G16G 3G23G 6G26G17G14G15G18
  24153459.579    -1024400.32649   -786723.12245  24153460.177    24153468.563
       210.000         147.000
  22745110.374    -9746994.60849  -7576340.85446  22745109.978    22745118.378
       223.000         177.000
  21126259.850   -20344171.84549 -15807296.35847  21126259.545    21126266.375
       241.000         208.000
  23770305.662     8975209.63149   7005860.09645  23770306.020    23770315.990
       214.000         156.000
  23417629.178    -7952543.01049  -6182456.80445  23417629.063    23417638.059
       212.000         154.000
  21053687.528   -14316271.70249 -11145230.81147  21053687.136    21053694.648
       240.000         203.000
  23441741.361    -6935552.84449  -5360182.08545  23441742.210    23441749.402
       217.000         157.000
  20451249.393   -25059717.48249 -19513524.23447  20451248.855    20451256.001
       244.000         212.000
  20421440.617   -23562888.40649 -18340193.28548  20421440.461    20421445.964
       241.000         215.000
 03  3 19  0 32 30.0000000  0  9G16G 3G23G 6G26G17G14G15G18
  24164943.106     -964054.69649   -739700.64945  24164943.428    24164952.817
       211.000         146.000
  22731262.230    -9819767.44449  -7633046.88946  22731262.355    22731269.864
       225.000         177.000
  21134102.699   -20302957.35049 -15775181.18147  21134102.355    21134109.207
       242.000         207.000
  23791014.683     9084035.25249   7090659.13345  23791015.083    23791025.065
       210.000         155.000
  23435477.638    -7858749.04749  -6109370.64945  23435478.166    23435486.712
       214.000         154.000
  21058495.395   -14291006.57249 -11125543.69447  21058494.877    21058502.407
       239.000         203.000
  23420877.130    -7045195.68449  -5445617.90945  23420876.714    23420885.606
       217.000         157.000
  20446898.514   -25082581.42249 -19531340.27647  20446897.787    20446905.343
       243.000         212.000
  20423473.079   -23552207.79249 -18331870.72848  20423472.874    20423478.400
       241.000         215.000
 03  3 19  0 33  0.0000000  0  9G16G 3G23G 6G26G17G14G15G18
  24176472.349     -903468.80949   -692490.93545  24176472.546    24176482.381
       210.000         147.000
  22717488.218    -9892150.26749  -7689449.02246  22717488.150    22717495.957
       225.000         176.000
  21141985.392   -20261533.46749 -15742902.84247  21141984.978    21141992.035
       242.000         207.000
  23811748.064     9192989.75549   7175558.58245  23811749.029    23811760.297
       211.000         154.000
  23453395.934    -7764588.97949  -6035999.22545  23453395.922    23453405.158
       214.000         155.000
  21063353.296   -14265478.10249 -11105651.37947  21063352.864    21063360.507
       239.000         203.000
  23400039.074    -7154700.60649  -5530946.26545  23400038.051    23400047.123
       217.000         157.000
  20442596.125   -25105190.28149 -19548957.55547  20442595.765    20442602.844
       243.000         212.000
  20425569.304   -23541192.21149 -18323287.15548  20425569.023    20425574.440
       241.000         215.000
 03  3 19  0 33 30.0000000  0  9G16G 3G23G 6G26G17G14G15G18
  24188046.833     -842644.94649   -645095.78845  24188047.353    24188058.174
       209.000         147.000
  22703788.960    -9964140.06349  -7745544.89446  22703788.954    22703796.700
       223.000         176.000
  21149907.725   -20219901.23449 -15710462.15847  21149907.384    21149914.218
       241.000         207.000
  23832505.695     9302071.36249   7260557.07145  23832506.509    23832516.393
       211.000         153.000
  23471383.144    -7670065.36749  -5962344.50245  23471383.529    23471391.962
       213.000         155.000
  21068261.572   -14239684.61349 -11085552.55347  21068260.707    21068268.949
       238.000         203.000
  23379227.733    -7264064.34249  -5616164.60045  23379227.268    23379235.276
       217.000         158.000
  20438342.648   -25127542.41349 -19566374.78847  20438342.490    20438349.374
       244.000         212.000
  20427729.100   -23529842.41149 -18314443.15348  20427728.908    20427734.235
       241.000         215.000
 03  3 19  0 34  0.0000000  0  9G16G 3G23G 6G26G17G14G15G18
  24199666.070     -781585.61149   -597517.17145  24199666.230    24199674.981
       208.000         146.000
  22690164.977   -10035734.41849  -7801332.64746  22690164.886    22690172.742
       225.000         175.000
  21157869.492   -20178062.09049 -15677860.23647  21157869.182    21157876.021
       241.000         207.000
  23853287.187     9411277.87549   7345652.87845  23853287.643    23853298.744
       208.000         152.000
  23489439.140    -7575180.78549  -5888408.51145  23489439.429    23489448.706
       214.000         156.000
  21073220.430   -14213625.12049 -11065246.45647  21073220.143    21073227.786
       238.000         203.000
  23358443.803    -7373283.82249  -5701270.55045  23358443.256    23358452.113
       216.000         158.000
  20434138.346   -25149636.50449 -19583590.95248  20434137.871    20434144.917
       244.000         213.000
  20429952.298   -23518159.49349 -18305339.57548  20429952.108    20429957.478
       241.000         215.000
 03  3 19  0 34 30.0000000  0  9G16G 3G23G 6G26G17G14G15G18
  24211329.465     -720294.33349   -549757.79445  24211328.666    24211339.874
       208.000         147.000
  22676616.618   -10106931.59249  -7856810.90846  22676616.515    22676624.417
       226.000         175.000
  21165870.163   -20136018.31749 -15645098.86347  21165869.863    21165876.565
       241.000         206.000
  23874091.802     9520606.32549   7430843.71045  23874090.601    23874103.090
       209.000         150.000
  23507563.140    -7479938.98649  -5814194.18345  23507563.922    23507573.404
       214.000         155.000
  21078230.025   -14187299.61149 -11044733.07147  21078229.735    21078237.385
       239.000         203.000
  23337687.795    -7482356.79349  -5786262.33445  23337687.665    23337696.312
       218.000         158.000
  20429983.178   -25171471.97149 -19600605.58647  20429982.747    20429989.737
       243.000         212.000
  20432238.482   -23506145.27049 -18295977.83948  20432238.236    20432243.804
       240.000         215.000
 03  3 19  0 35  0.0000000  0  9G16G 3G23G 6G26G17G14G15G18
  24223036.555     -658773.98349   -501819.94745  24223037.450    24223047.217
       208.000         148.000
  22663144.322   -10177728.87549  -7911977.54046  22663144.082    22663152.058
       227.000         176.000
  21173909.555   -20093771.23349 -15612179.06547  21173909.368    21173915.747
       242.000         206.000
  23894919.171     9630054.56449   7516127.87745  23894918.952    23894929.809
       212.000         150.000
  23525754.473    -7384342.71649  -5739703.62045  23525755.328    23525764.484
       213.000         153.000
  21083290.480   -14160706.94749 -11024011.50747  21083289.962    21083297.268
       238.000         203.000
  23316960.270    -7591280.38149  -5871137.71445  23316959.595    23316967.901
       215.000         159.000
  20425877.454   -25193047.62749 -19617417.76847  20425876.910    20425883.916
       243.000         212.000
  20434587.591   -23493800.55149 -18286358.57348  20434587.260    20434592.841
       241.000         215.000
 03  3 19  0 35 30.0000000  0  9G16G 3G23G 6G26G17G14G15G18
  24234786.758     -597027.45549   -453705.82845  24234787.546    24234795.735
       208.000         147.000
  22649748.492   -10248124.02449  -7966830.84446  22649748.246    22649755.661
       227.000         177.000
  21181987.319   -20051322.49849 -15579102.13947  21181987.095    21181993.827
       241.000         206.000
  23915768.965     9739620.36049   7601503.65645  23915769.128    23915780.553
       212.000         149.000
  23544012.794    -7288394.70649  -5664938.99445  23544013.379    23544021.484
       213.000         153.000
  21088401.815   -14133846.53949 -11003081.31447  21088401.453    21088408.839
       239.000         203.000
  23296261.636    -7700051.82849  -5955894.54545  23296260.784    23296269.748
       218.000         158.000
  20421821.422   -25214362.15749 -19634026.47747  20421820.958    20421827.603
       243.000         212.000
  20436999.271   -23481126.83249 -18276482.94648  20436999.150    20437004.786
       240.000         215.000
 03  3 19  0 36  0.0000000  0  9G16G 3G23G 6G26G17G14G15G18
  24246579.202     -535057.73549   -405417.80245  24246578.353    24246588.548
       208.000         146.000
  22636429.493   -10318115.29449  -8021369.43946  22636429.636    22636437.643
       227.000         176.000
  21190103.012   -20008674.02049 -15545869.55947  21190102.447    21190109.358
       240.000         206.000
  23936640.544     9849300.77349   7686968.74745  23936640.349    23936652.673
       208.000         148.000
  23562337.488    -7192098.55049  -5589903.07545  23562338.433    23562346.849
       213.000         153.000
  21093564.277   -14106717.86849 -10981942.09147  21093563.880    21093571.620
       239.000         202.000
  23275592.458    -7808668.47049  -6040530.74745  23275592.193    23275599.739
       218.000         158.000
  20417815.160   -25235415.08849 -19650431.34248  20417814.861    20417821.659
       244.000         213.000
  20439473.350   -23468125.46949 -18266352.00948  20439473.187    20439478.819
       240.000         215.000
 03  3 19  0 36 30.0000000  0  9G16G 3G23G 6G26G17G14G15G18
  24258413.647     -472867.24749   -356957.73445  24258413.560    24258423.352
       207.000         145.000
  22623187.857   -10387699.77849  -8075591.06946  22623187.923    22623195.539
       228.000         177.000
  21198256.555   -19965826.85149 -15512482.16347  21198256.083    21198263.190
       240.000         207.000
  23957533.576     9959094.05249   7772521.78845  23957534.324    23957545.433
       210.000         148.000
  23580727.860    -7095456.73549  -5514597.80545  23580728.361    23580736.317
       213.000         153.000
  21098777.972   -14079319.64249 -10960592.83547  21098777.450    21098785.345
       238.000         202.000
  23254953.260    -7917127.05949  -6125043.79245  23254952.591    23254960.986
       217.000         158.000
  20413859.067   -25256204.75549 -19666631.07748  20413858.590    20413865.654
       244.000         213.000
  20442009.590   -23454797.34849 -18255966.46248  20442009.221    20442015.173
       240.000         215.000
 03  3 19  0 37  0.0000000  0  9G16G 3G23G 6G26G17G14G15G18
  24270289.381     -410459.53549   -308328.40645  24270289.448    24270298.889
       209.000         146.000
  22610024.005   -10456875.68649  -8129494.33146  22610023.347    22610031.546
       227.000         177.000
  21206447.482   -19922783.06849 -15478941.55847  21206447.252    21206454.384
       240.000         207.000
  23978447.513    10068997.44349   7858160.62945  23978447.906    23978459.021
       210.000         147.000
  23599183.406    -6998472.57849  -5439025.79245  23599183.135    23599192.103
       214.000         152.000
  21104043.075   -14051651.16849 -10939032.99147  21104042.675    21104050.662
       239.000         203.000
  23234344.579    -8025425.14449  -6209431.78145  23234343.808    23234352.078
       218.000         158.000
  20409953.209   -25276730.14949 -19682624.87748  20409952.564    20409959.735
       243.000         213.000
  20444607.739   -23441143.95149 -18245327.44848  20444607.463    20444613.333
       240.000         215.000
 03  3 19  0 37 30.0000000  0  9G16G 3G23G 6G26G17G14G15G18
  24282206.031     -347837.36249   -259531.96545  24282205.329    24282215.176
       209.000         144.000
  22596938.358   -10525640.57549  -8183077.31546  22596937.855    22596945.891
       225.000         176.000
  21214675.574   -19879544.07549 -15445248.83547  21214675.266    21214682.115
       240.000         207.000
  23999382.001    10179008.57949   7943883.43045  23999381.874    23999393.746
       210.000         147.000
  23617703.555    -6901148.98749  -5363189.28045  23617704.134    23617713.311
       212.000         151.000
  21109359.751   -14023712.19949 -10917262.36847  21109359.315    21109367.035
       238.000         203.000
  23213767.114    -8133560.02749  -6293692.59745  23213766.804    23213774.829
       218.000         158.000
  20406097.848   -25296990.11149 -19698411.84848  20406097.323    20406104.510
       244.000         213.000
  20447267.535   -23427166.46849 -18234435.89948  20447267.311    20447272.998
       240.000         215.000
 03  3 19  0 38  0.0000000  0  9G16G 3G23G 6G26G17G14G15G18
  24294162.677     -285003.78249   -210570.78945  24294160.603    24294172.174
       206.000         144.000
  22583931.340   -10593992.27649  -8236338.32346  22583931.090    22583939.187
       224.000         176.000
  21222940.567   -19836111.57549 -15411405.32847  21222940.154    21222947.106
       240.000         207.000
  24020336.492    10289125.10549   8029688.34145  24020336.617    24020349.006
       212.000         146.000
  23636287.590    -6803488.95649  -5287090.61345  23636287.728    23636296.837
       210.000         151.000
  21114727.928   -13995502.23249 -10895280.58147  21114727.398    21114735.095
       239.000         202.000
  23193221.132    -8241528.83149  -6377823.99945  23193220.707    23193228.540
       218.000         159.000
  20402293.271   -25316983.21849 -19713990.87948  20402292.477    20402299.620
       243.000         213.000
  20449988.669   -23412866.43149 -18223293.01248  20449988.348    20449994.296
       240.000         215.000
 03  3 19  0 38 30.0000000  0  9G16G 3G23G 6G26G17G14G15G18
  24306159.243     -221962.00349   -161447.39345  24306159.586    24306168.953
       209.000         145.000
  22571003.337   -10661928.74449  -8289275.77846  22571003.200    22571011.240
       224.000         177.000
  21231241.992   -19792487.48049 -15377412.53247  21231241.557    21231248.523
       240.000         207.000
  24041310.700    10399344.32849   8115573.26645  24041311.506    24041322.991
       211.000         147.000
  23654935.165    -6705495.69949  -5210732.28945  23654935.869    23654944.719
       214.000         152.000
  21120147.910   -13967020.03149 -10873086.67147  21120147.736    21120155.062
       239.000         202.000
  23172707.174    -8349329.11049  -6461824.07845  23172706.719    23172715.801
       219.000         160.000
  20398539.585   -25336708.65349 -19729361.34048  20398538.835    20398546.319
       243.000         213.000
  20452771.000   -23398245.17149 -18211899.82148  20452770.841    20452776.514
       241.000         215.000
 03  3 19  0 39  0.0000000  0  9G16G 3G23G 6G26G17G14G15G18
  24318194.924     -158714.34449   -112163.56045  24318195.324    24318205.411
       210.000         144.000
  22558154.921   -10729447.34849  -8341887.62746  22558154.814    22558162.936
       225.000         179.000
  21239579.627   -19748672.85649 -15343271.26147  21239579.235    21239586.373
       240.000         206.000
  24062304.135    10509664.30749   8201536.73145  24062304.833    24062316.232
       214.000         147.000
  23673645.560    -6607171.98849  -5134116.47345  23673645.856    23673654.641
       213.000         151.000
  21125619.861   -13938264.84449 -10850680.03747  21125619.368    21125627.111
       238.000         202.000
  23152226.077    -8456957.74249  -6545690.40945  23152225.318    23152234.149
       219.000         161.000
  20394837.116   -25356165.10349 -19744522.19148  20394836.548    20394843.797
       243.000         213.000
  20455614.338   -23383303.62649 -18200257.05548  20455614.163    20455619.822
       241.000         215.000
 03  3 19  0 39 30.0000000  0  9G16G 3G23G 6G26G17G14G15G18
  24330269.047      -95264.71949    -62722.36545  24330268.835    24330277.966
       206.000         143.000
  22545386.330   -10796546.88049  -8394172.93246  22545386.324    22545394.024
       227.000         180.000
  21247953.019   -19704670.24949 -15308983.51447  21247952.499    21247959.530
       240.000         206.000
  24083316.127    10620081.66749   8287576.04345  24083316.597    24083327.793
       212.000         147.000
  23692418.099    -6508521.72849  -5057246.19545  23692417.960    23692428.270
       211.000         151.000
  21131143.779   -13909236.61649 -10828060.65647  21131143.464    21131151.225
       238.000         202.000
  23131777.976    -8564412.83249  -6629421.50045  23131777.344    23131785.456
       218.000         162.000
  20391185.876   -25375352.30849 -19759473.24548  20391185.436    20391192.381
       244.000         213.000
  20458518.184   -23368043.88949 -18188366.34948  20458518.133    20458523.227
       241.000         215.000
 03  3 19  0 40  0.0000000  0  9G16G 3G23G 6G26G17G14G15G18
  24342381.143      -31615.33149    -13125.52845  24342380.900    24342390.849
       208.000         143.000
  22532698.052   -10863224.14649  -8446129.20946  22532697.878    22532705.946
       227.000         180.000
  21256362.059   -19660480.43349 -15274549.89347  21256361.677    21256368.534
       239.000         206.000
  24104346.328    10730594.91249   8373690.08845  24104346.348    24104358.451
       213.000         147.000
  23711252.434    -6409547.13949  -4980123.20945  23711252.811    23711261.500
       212.000         150.000
  21136719.921   -13879933.94849 -10805227.42647  21136719.214    21136727.411
       239.000         202.000
  23111363.510    -8671690.86549  -6713014.63546  23111362.197    23111371.843
       218.000         163.000
  20387586.316   -25394268.29449 -19774212.95848  20387585.978    20387593.071
       244.000         213.000
  20461482.510   -23352466.56049 -18176228.16748  20461482.301    20461487.837
       241.000         215.000
 03  3 19  0 40 30.0000000  0  9G16G 3G23G 6G26G17G14G15G18
  24354530.586       32230.28049     36624.22045  24354530.559    24354540.470
       211.000         145.000
  22520090.522   -10929477.52849  -8497755.18746  22520090.526    22520098.806
       227.000         179.000
  21264806.309   -19616105.55649 -15239972.06547  21264805.991    21264812.960
       240.000         206.000
  24125394.198    10841201.03449   8459876.49145  24125393.967    24125406.229
       211.000         147.000
  23730147.816    -6310251.89949  -4902750.36745  23730148.310    23730157.699
       211.000         150.000
  21142348.225   -13850356.89349 -10782180.38347  21142348.027    21142355.412
       239.000         202.000
  23090983.141    -8778789.39349  -6796467.88946  23090982.485    23090991.053
       218.000         163.000
  20384038.492   -25412912.50149 -19788740.89648  20384038.084    20384045.183
       244.000         213.000
  20464506.807   -23336573.48449 -18163843.94648  20464506.487    20464512.128
       241.000         215.000
 03  3 19  0 41  0.0000000  0  9G16G 3G23G 6G26G17G14G15G18
  24366716.938       96269.53449     86524.88145  24366717.033    24366727.793
       207.000         146.000
  22507564.019   -10995304.81249  -8549049.12946  22507564.028    22507571.457
       227.000         179.000
  21273285.584   -19571546.82449 -15205250.97547  21273285.201    21273292.165
       239.000         206.000
  24146459.233    10951897.89249   8546133.60345  24146460.114    24146471.068
       213.000         146.000
  23749103.730    -6210638.59249  -4825129.66345  23749105.476    23749112.350
       212.000         150.000
  21148028.980   -13820504.33949 -10758918.67547  21148028.435    21148036.235
       238.000         202.000
  23070637.466    -8885705.77449  -6879779.20346  23070637.370    23070645.458
       220.000         164.000
  20380542.614   -25431283.41849 -19803055.88048  20380542.204    20380548.969
       244.000         213.000
  20467591.026   -23320365.61349 -18151214.43248  20467590.842    20467596.188
       240.000         215.000
 03  3 19  0 41 30.0000000  0  9G16G 3G23G 6G26G17G14G15G18
  24378939.439      160499.21649    136573.89745  24378940.800    24378948.834
       212.000         146.000
  22495118.945   -11060703.89449  -8600009.44646  22495119.073    22495126.840
       230.000         180.000
  21281799.441   -19526806.02949 -15170388.02347  21281799.097    21281806.131
       240.000         206.000
  24167541.124    11062683.01149   8632459.48945  24167541.279    24167552.980
       213.000         145.000
  23768119.526    -6110710.44949  -4747263.65745  23768119.154    23768127.537
       212.000         149.000
  21153762.352   -13790375.46049 -10735441.63847  21153762.115    21153769.509
       238.000         201.000
  23050327.116    -8992436.98349  -6962946.25046  23050326.281    23050334.438
       219.000         165.000
  20377098.920   -25449380.04849 -19817157.13148  20377098.248    20377105.301
       243.000         213.000
  20470734.896   -23303844.28949 -18138340.66648  20470734.675    20470740.412
       241.000         215.000
 03  3 19  0 42  0.0000000  0  9G16G 3G23G 6G26G17G14G15G18
  24391197.718      224916.35349    186769.05445  24391197.425    24391208.415
       209.000         143.000
  22482755.809   -11125672.66449  -8650634.45246  22482755.962    22482763.438
       229.000         181.000
  21290347.647   -19481884.68049 -15135384.38347  21290347.409    21290354.164
       240.000         205.000
  24188639.293    11173553.94249   8718852.24245  24188638.574    24188651.452
       208.000         144.000
  23787194.657    -6010470.44649  -4669154.64545  23787196.417    23787204.177
       210.000         148.000
  21159548.415   -13759969.64549 -10711748.81547  21159547.720    21159555.145
       238.000         200.000
  23030052.416    -9098980.54349  -7045967.06546  23030052.307    23030060.062
       220.000         165.000
  20373707.593   -25467201.37449 -19831043.86748  20373707.086    20373714.114
       244.000         213.000
  20473938.172   -23287011.08649 -18125223.88148  20473938.018    20473943.679
       241.000         215.000
 03  3 19  0 42 30.0000000  0  9G16G 3G23G 6G26G17G14G15G18
  24403491.136      289518.40749    237108.24045  24403491.644    24403502.407
       210.000         145.000
  22470475.048   -11190208.44649  -8700922.03046  22470474.544    22470483.327
       228.000         181.000
  21298930.059   -19436783.91449 -15100240.93347  21298929.688    21298936.667
       239.000         205.000
  24209753.243    11284508.73449   8805310.34345  24209753.137    24209764.306
       206.000         143.000
  23806328.600    -5909921.25849  -4590804.67245  23806329.831    23806337.425
       213.000         147.000
  21165387.327   -13729285.97849 -10687839.47447  21165387.197    21165394.352
       238.000         200.000
  23009814.058    -9205333.21249  -7128839.13746  23009813.078    23009821.172
       218.000         165.000
  20370369.093   -25484745.44749 -19844714.55548  20370368.447    20370375.711
       244.000         213.000
  20477200.570   -23269866.97549 -18111864.82648  20477200.239    20477206.117
       241.000         215.000
 03  3 19  0 43  0.0000000  0  9G16G 3G23G 6G26G17G14G15G18
  24415819.095      354302.05349    287588.92145  24415818.601    24415829.127
       208.000         144.000
  22458277.022   -11254309.48549  -8750870.85746  22458276.169    22458284.577
       225.000         180.000
  21307546.158   -19391505.89049 -15064959.36247  21307546.023    21307552.547
       240.000         205.000
  24230882.725    11395544.48349   8891831.51345  24230882.119    24230893.812
       208.000         143.000
  23825520.747    -5809066.25849  -4512216.44145  23825521.105    23825529.081
       211.000         147.000
  21171279.201   -13698323.89749 -10663713.19147  21171278.869    21171286.621
       237.000         200.000
  22989612.429    -9311492.66749  -7211560.66846  22989610.993    22989620.631
       219.000         165.000
  20367083.419   -25502011.86249 -19858168.89548  20367082.842    20367089.815
       244.000         213.000
  20480521.836   -23252413.39049 -18098264.63148  20480521.670    20480527.284
       241.000         215.000
 03  3 19  0 43 30.0000000  0  9G16G 3G23G 6G26G17G14G15G18
  24428181.013      419264.71849    338209.08045  24428181.712    24428192.658
       205.000         143.000
  22446162.021   -11317973.19349  -8800478.88446  22446161.496    22446170.122
       225.000         179.000
  21316195.754   -19346051.86249 -15029540.64247  21316195.515    21316202.069
       240.000         205.000
  24252027.214    11506659.31649   8978414.29445  24252026.691    24252039.006
       207.000         142.000
  23844770.433    -5707908.34649  -4433392.14145  23844769.879    23844778.603
       211.000         147.000
  21177224.196   -13667082.52849 -10639369.28447  21177223.513    21177231.688
       236.000         200.000
  22969448.132    -9417455.74749  -7294129.16546  22969447.702    22969455.500
       222.000         165.000
  20363850.917   -25518998.92249 -19871405.55048  20363850.330    20363857.139
       244.000         213.000
  20483901.839   -23234651.41849 -18084424.12848  20483901.830    20483907.111
       241.000         215.000
 03  3 19  0 44  0.0000000  0  9G16G 3G23G 6G26G17G14G15G18
  24440576.502      484403.28649    388966.32345  24440577.500    24440584.297
       207.000         140.000
  22434130.637   -11381197.87149  -8849744.82746  22434130.764    22434137.689
       228.000         179.000
  21324878.515   -19300423.41249 -14993986.01147  21324878.104    21324885.233
       239.000         205.000
  24273186.327    11617850.55449   9065056.64045  24273185.833    24273198.682
       206.000         143.000
  23864077.245    -5606450.44549  -4354334.12045  23864078.073    23864085.998
       211.000         146.000
  21183222.550   -13635560.91549 -10614806.99747  21183222.120    21183229.911
       237.000         200.000
  22949321.774    -9523220.03249  -7376542.78346  22949321.555    22949329.550
       222.000         166.000
  20360671.698   -25535705.82649 -19884423.90348  20360671.091    20360678.064
       244.000         213.000
  20487340.314   -23216582.34849 -18070344.32848  20487340.269    20487345.554
       241.000         215.000
 03  3 19  0 44 30.0000000  0 10G16G 3G23G 6G26G17G14G 9G15G18
  24453004.886      549714.08349    439857.80845  24453003.538    24453016.479
       206.000         141.000
  22422183.342   -11443982.01449  -8898667.50146  22422183.885    22422190.937
       231.000         181.000
  21333594.133   -19254622.54649 -14958297.03747  21333593.820    21333601.077
       239.000         205.000
  24294359.377    11729115.34349   9151756.27245  24294359.665    24294372.175
       206.000         143.000
  23883440.455    -5504696.27249  -4275045.21345  23883440.228    23883449.448
       213.000         147.000
  21189274.182   -13603759.43449 -10590026.63547  21189273.671    21189281.739
       236.000         200.000
  22929233.682    -9628783.18349  -7458799.67146  22929233.002    22929242.213
       221.000         167.000
  24435193.492    -2340097.96049  -1814371.01445  24435192.388    24435204.358
       202.000         140.000
  20357545.884   -25552131.84949 -19897223.38448  20357545.245    20357552.213
       244.000         213.000
  20490836.793   -23198208.11449 -18056026.74048  20490836.539    20490842.189
       241.000         214.000
 03  3 19  0 45  0.0000000  0 10G16G 3G23G 6G26G17G14G 9G15G18
  24465465.366      615194.15249    490881.11745  24465466.540    24465475.962
       210.000         142.000
  22410320.246   -11506323.24349  -8947245.04546  22410320.468    22410328.098
       230.000         182.000
  21342342.302   -19208650.63049 -14922474.76847  21342342.124    21342349.148
       239.000         205.000
  24315545.841    11840451.12349   9238511.20945  24315545.188    24315557.986
       201.000         141.000
  23902859.604    -5402648.83649  -4195527.81545  23902860.724    23902868.366
       212.000         148.000
  21195379.258   -13571677.10049 -10565027.41747  21195378.765    21195386.770
       236.000         200.000
  22909184.358    -9734142.44149  -7540897.68346  22909183.872    22909191.949
       221.000         167.000
  24423137.771    -2403450.15349  -1863736.22445  24423136.564    24423149.099
       203.000         139.000
  20354473.748   -25568275.80649 -19909803.07348  20354473.121    20354480.489
       243.000         213.000
  20494391.107   -23179529.96749 -18041472.32848  20494391.028    20494396.306
       241.000         214.000
 03  3 19  0 45 30.0000000  0 10G16G 3G23G 6G26G17G14G 9G15G18
  24477957.676      680840.93249    542034.38145  24477956.793    24477969.012
       208.000         142.000
  22398541.869   -11568219.28149  -8995475.66946  22398541.862    22398549.022
       231.000         183.000
  21351122.708   -19162509.19449 -14886520.40647  21351122.386    21351129.463
       239.000         204.000
  24336745.428    11951855.90549   9325319.91245  24336744.952    24336757.249
       202.000         141.000
  23922333.934    -5300310.97649  -4115784.10045  23922333.623    23922343.290
       215.000         148.000
  21201537.886   -13539313.13149 -10539808.75247  21201537.491    21201545.426
       236.000         200.000
  22889174.498    -9839294.85549  -7622834.50646  22889174.464    22889182.355
       221.000         168.000
  24411129.446    -2466552.65949  -1912906.84945  24411129.247    24411140.759
       202.000         139.000
  20351455.522   -25584136.18949 -19922161.79548  20351454.901    20351462.128
       243.000         213.000
  20498003.040   -23160549.11549 -18026682.04548  20498002.748    20498008.258
       241.000         214.000
 03  3 19  0 46  0.0000000  0 10G16G 3G23G 6G26G17G14G 9G15G18
  24490481.250      746651.82249    593315.48045  24490482.692    24490490.484
       210.000         141.000
  22386848.535   -11629667.79649  -9043357.58546  22386848.397    22386855.554
       231.000         184.000
  21359935.211   -19116199.26749 -14850434.75547  21359934.965    21359941.957
       239.000         204.000
  24357957.823    12063327.62049   9412180.76445  24357957.427    24357970.220
       201.000         140.000
  23941863.085    -5197685.19049  -4035816.04245  23941862.374    23941870.564
       211.000         148.000
  21207750.358   -13506666.46549 -10514369.80447  21207749.850    21207757.951
       237.000         200.000
  22869204.652    -9944237.15749  -7704607.61946  22869204.569    22869212.439
       223.000         169.000
  24399169.556    -2529401.87849  -1961880.12245  24399169.956    24399180.314
       203.000         139.000
  20348491.656   -25599711.40449 -19934298.31148  20348491.033    20348498.250
       243.000         213.000
  20501672.454   -23141266.39249 -18011656.54148  20501672.238    20501677.652
       240.000         214.000
 03  3 19  0 46 30.0000000  0 10G16G 3G23G 6G26G17G14G 9G15G18
  24503035.235      812623.35349    644721.78445  24503034.043    24503045.330
       206.000         139.000
  22375240.703   -11690667.05149  -9090889.42246  22375240.733    22375248.429
       229.000         184.000
  21368779.336   -19069722.76749 -14814219.30447  21368778.812    21368786.330
       238.000         204.000
  24379182.483    12174863.55149   9499091.66345  24379183.482    24379195.164
       206.000         140.000
  23961446.254    -5094774.87049  -3955626.25845  23961447.155    23961455.255
       215.000         147.000
  21214016.691   -13473736.65849 -10488710.22847  21214016.382    21214023.946
       236.000         200.000
  22849275.257   -10048967.13249  -7786215.28546  22849274.127    22849282.888
       223.000         169.000
  24387258.468    -2591994.90549  -2010653.75545  24387258.003    24387270.374
       202.000         138.000
  20345582.131   -25615000.86749 -19946212.16848  20345581.637    20345588.677
       243.000         213.000
  20505398.962   -23121683.42349 -17996397.07248  20505398.568    20505404.351
       241.000         214.000
 03  3 19  0 47  0.0000000  0 10G16G 3G23G 6G26G17G14G 9G15G18
  24515619.192      878752.56449    696250.94645  24515618.281    24515630.121
       204.000         140.000
  22363718.721   -11751215.14149  -9138069.69746  22363718.810    22363726.052
       230.000         184.000
  21377654.857   -19023081.36249 -14777875.35747  21377654.588    21377661.814
       239.000         204.000
  24400419.096    12286461.26149   9586050.71345  24400419.941    24400430.918
       202.000         139.000
  23981083.093    -4991583.08149  -3875217.15445  23981083.591    23981092.055
       210.000         147.000
  21220337.109   -13440522.95549 -10462829.43747  21220337.086    21220344.491
       237.000         200.000
  22829386.707   -10153481.94749  -7867655.28946  22829386.255    22829393.774
       222.000         169.000
  24375396.425    -2654328.38449  -2059225.16145  24375394.795    24375408.372
       199.000         137.000
  20342727.233   -25630003.26749 -19957902.33048  20342726.833    20342733.741
       243.000         213.000
  20509182.240   -23101801.80049 -17980904.88648  20509181.919    20509187.528
       240.000         214.000
 03  3 19  0 47 30.0000000  0 10G16G 3G23G 6G26G17G14G 9G15G18
  24528232.663      945036.96649    747900.99945  24528234.057    24528242.891
       206.000         139.000
  22352283.059   -11811309.52349  -9184896.43846  22352282.237    22352290.070
       229.000         184.000
  21386561.656   -18976276.05249 -14741403.69247  21386561.362    21386568.564
       239.000         204.000
  24421667.039    12398118.62249   9673056.22745  24421668.061    24421680.591
       204.000         139.000
  24000772.640    -4888112.61549  -3794590.89245  24000772.881    24000782.893
       211.000         147.000
  21226711.667   -13407024.60649 -10436726.84547  21226711.543    21226718.913
       236.000         200.000
  22809539.689   -10257778.40649  -7948925.14246  22809538.855    22809546.794
       222.000         168.000
  24363584.473    -2716398.90349  -2107591.63945  24363584.441    24363596.104
       202.000         138.000
  20339927.289   -25644717.24149 -19969367.74748  20339926.742    20339933.599
       244.000         213.000
  20513022.281   -23081622.26549 -17965180.56248  20513021.960    20513027.692
       241.000         214.000
 03  3 19  0 48  0.0000000  0 10G16G 3G23G 6G26G17G14G 9G15G18
  24540875.116     1011472.77949    799669.07545  24540874.686    24540885.085
       206.000         139.000
  22340933.915   -11870949.24549  -9231368.89546  22340933.683    22340941.795
       229.000         185.000
  21395499.174   -18929309.16249 -14704806.10947  21395498.984    21395506.234
       239.000         204.000
  24442925.689    12509832.45949   9760105.76445  24442926.164    24442938.961
       205.000         140.000
  24020514.803    -4784367.28649  -3713750.45145  24020514.874    24020524.709
       212.000         146.000
  21233140.365   -13373241.52149 -10410402.37647  21233140.053    21233147.627
       236.000         199.000
  22789734.456   -10361855.12349  -8030023.79046  22789734.265    22789742.157
       221.000         168.000
  24351823.097    -2778204.27249  -2155751.54445  24351822.624    24351834.449
       203.000         138.000
  20337182.177   -25659142.65549 -19980608.31148  20337181.782    20337188.802
       244.000         213.000
  20516918.635   -23061146.88149 -17949225.70248  20516918.573    20516923.986
       241.000         214.000
 03  3 19  0 48 30.0000000  0 10G16G 3G23G 6G26G17G14G 9G15G18
  24553545.718     1078057.23549    851552.96045  24553547.273    24553555.056
       205.000         139.000
  22329671.853   -11930131.59449  -9277484.97446  22329671.710    22329679.761
       230.000         186.000
  21404467.262   -18882181.73249 -14668083.43947  21404467.006    21404474.094
       238.000         204.000
  24464194.809    12621600.99149   9847197.92445  24464195.630    24464207.354
       206.000         140.000
  24040308.947    -4680349.89349  -3632698.02545  24040309.240    24040318.778
       212.000         147.000
  21239623.344   -13339173.00749 -10383855.50247  21239622.855    21239630.704
       236.000         199.000
  22769971.742   -10465708.55449  -8110948.43346  22769970.747    22769979.553
       222.000         168.000
  24340113.133    -2839740.60949  -2203701.79045  24340114.170    24340125.315
       206.000         141.000
  20334492.411   -25673277.64849 -19991622.57348  20334491.864    20334499.047
       244.000         213.000
  20520871.112   -23040376.60649 -17933041.06148  20520871.037    20520876.471
       242.000         215.000
 03  3 19  0 49  0.0000000  0 10G16G 3G23G 6G26G17G14G 9G15G18
  24566244.111     1144786.90649    903550.03445  24566244.803    24566255.100
       208.000         140.000
  22318497.123   -11988855.12649  -9323243.51846  22318497.066    22318504.525
       229.000         186.000
  21413465.506   -18834895.70649 -14631237.18747  21413465.127    21413472.515
       239.000         204.000
  24485473.853    12733421.28649   9934330.41145  24485474.299    24485486.129
       208.000         141.000
  24060154.050    -4576063.54749  -3551436.01845  24060153.732    24060162.853
       211.000         147.000
  21246160.763   -13304818.60349 -10357085.85547  21246160.399    21246167.913
       236.000         199.000
  22750251.912   -10569336.23949  -8191697.17546  22750251.808    22750258.668
       222.000         168.000
  24328454.950    -2901005.53949  -2251440.52545  24328455.331    24328466.793
       207.000         142.000
  20331858.009   -25687121.56849 -20002410.02648  20331857.588    20331864.583
       244.000         214.000
  20524879.383   -23019313.24049 -17916628.04048  20524879.112    20524884.603
       242.000         215.000
 03  3 19  0 49 30.0000000  0 10G16G 3G23G 6G26G17G14G 9G15G18
  24578969.601     1211659.23649    955658.23945  24578969.104    24578981.042
       207.000         141.000
  22307410.077   -12047117.65649  -9368642.83646  22307410.051    22307417.472
       231.000         187.000
  21422493.704   -18787452.22349 -14594268.24147  21422493.616    21422500.520
       239.000         203.000
  24506762.250    12845291.29249  10021501.63545  24506763.071    24506774.414
       206.000         142.000
  24080049.752    -4471511.01749  -3469966.61845  24080049.279    24080057.912
       211.000         145.000
  21252752.871   -13270177.04149 -10330092.44647  21252752.536    21252760.009
       236.000         198.000
  22730575.594   -10672735.50349  -8272267.93546  22730575.470    22730582.830
       223.000         169.000
  24316849.155    -2961995.64849  -2298965.14345  24316849.465    24316860.361
       209.000         145.000
  20329279.310   -25700672.80449 -20012969.42148  20329278.833    20329285.634
       245.000         214.000
  20528943.170   -22997957.85849 -17899987.47648  20528942.799    20528948.419
       241.000         214.000
 03  3 19  0 50  0.0000000  0 10G16G 3G23G 6G26G17G14G 9G15G18
  24591721.665     1278671.11249   1007875.15845  24591721.735    24591730.605
       208.000         140.000
  22296411.213   -12104917.20549  -9413681.40446  22296411.416    22296418.677
       231.000         187.000
  21431551.606   -18739852.84749 -14557177.83147  21431551.276    21431558.301
       239.000         203.000
  24528059.616    12957208.54049  10108709.67945  24528061.017    24528072.396
       206.000         143.000
  24099995.578    -4366695.47749  -3388292.24045  24099996.150    24100004.714
       209.000         144.000
  21259399.626   -13235248.01449 -10302875.04147  21259399.084    21259406.685
       235.000         198.000
  22710943.344   -10775903.50349  -8352658.48246  22710943.081    22710950.827
       224.000         170.000
  24305296.157    -3022707.53749  -2346272.95245  24305296.693    24305306.610
       206.000         147.000
  20326756.519   -25713930.13949 -20023299.79648  20326755.960    20326762.876
       244.000         214.000
  20533062.236   -22976311.70349 -17883120.33448  20533061.827    20533067.523
       241.000         214.000
 03  3 19  0 50 30.0000000  0  9G16G 3G23G26G17G14G 9G15G18
  24604499.760     1345820.16249   1060199.03245  24604498.860    24604509.000
       210.000         138.000
  22285500.907   -12162251.53549  -9458357.45446  22285500.529    22285508.075
       231.000         187.000
  21440638.944   -18692098.84949 -14519966.92747  21440638.585    21440645.401
       238.000         203.000
  24119990.803    -4261619.60249  -3306415.03145  24119989.699    24119999.747
       208.000         142.000
  21266101.246   -13200030.50549 -10275432.84547  21266100.615    21266108.804
       235.000         198.000
  22691355.561   -10878837.37549  -8432866.59546  22691355.841    22691362.352
       224.000         170.000
  24293796.681    -3083138.02749  -2393361.44345  24293796.265    24293807.327
       208.000         146.000
  20324289.900   -25726892.19949 -20033400.09148  20324289.447    20324296.340
       244.000         214.000
  20537236.445   -22954376.03549 -17866027.60048  20537235.957    20537241.698
       241.000         214.000
 03  3 19  0 51  0.0000000  0  9G16G 3G23G26G17G14G 9G15G18
  24617303.499     1413103.50649   1112627.50145  24617302.966    24617315.746
       208.000         140.000
  22274679.463   -12219118.30349  -9502669.18646  22274679.370    22274686.943
       232.000         187.000
  21449755.452   -18644191.33049 -14482636.40047  21449754.884    21449762.172
       239.000         203.000
  24140035.070    -4156286.06049  -3224337.05745  24140034.692    24140044.064
       207.000         141.000
  21272858.025   -13164523.49949 -10247765.08447  21272857.907    21272865.214
       236.000         198.000
  22671812.927   -10981533.92149  -8512889.77846  22671812.191    22671820.135
       225.000         171.000
  24282351.280    -3143283.42449  -2440227.84645  24282350.399    24282361.398
       208.000         143.000
  20321879.818   -25739557.35949 -20043269.03148  20321879.296    20321886.166
       245.000         213.000
  20541465.607   -22932151.51349 -17848709.78548  20541465.399    20541471.009
       241.000         214.000
 03  3 19  0 51 30.0000000  0  9G16G 3G23G26G17G14G 9G15G18
  24630131.945     1480517.67849   1165157.94245  24630132.134    24630140.821
       208.000         139.000
  22263947.232   -12275515.91849  -9546615.33547  22263946.890    22263954.962
       232.000         188.000
  21458900.825   -18596132.04549 -14445187.61547  21458900.322    21458907.193
       237.000         202.000
  24160127.658    -4050698.23749  -3142060.89545  24160128.221    24160138.224
       208.000         141.000
  21279670.014   -13128726.74249 -10219871.54047  21279669.791    21279677.761
       236.000         198.000
  22652315.952   -11083990.86549  -8592726.26746  22652315.398    22652323.164
       225.000         171.000
  24270960.847    -3203140.84949  -2486869.82145  24270961.433    24270970.395
       207.000         143.000
  20319526.352   -25751924.85449 -20052906.02848  20319525.775    20319532.228
       244.000         213.000
  20545749.385   -22909639.93849 -17831168.29248  20545749.134    20545754.762
       241.000         214.000
 03  3 19  0 52  0.0000000  0  9G16G 3G23G26G17G14G 9G15G18
  24642984.763     1548059.17549   1217787.57245  24642983.907    24642996.217
       205.000         137.000
  22253304.594   -12331443.09549  -9590194.91147  22253304.348    22253312.148
       232.000         190.000
  21468074.560   -18547923.27449 -14407622.35247  21468073.822    21468081.225
       237.000         202.000
  24180268.147    -3944859.95949  -3059589.59445  24180268.548    24180277.799
       208.000         141.000
  21286537.077   -13092640.30849 -10191752.27047  21286536.747    21286544.687
       235.000         198.000
  22632864.854   -11186206.34349  -8672374.60946  22632864.054    22632872.122
       225.000         172.000
  24259625.703    -3262708.13449  -2533285.69645  24259625.171    24259635.743
       209.000         144.000
  20317229.549   -25763994.56849 -20062310.99348  20317229.125    20317235.606
       244.000         213.000
  20550087.422   -22886843.50449 -17813404.83648  20550087.311    20550092.918
       241.000         214.000
 03  3 19  0 52 30.0000000  0  9G16G 3G23G26G17G14G 9G15G18
  24655861.309     1615725.47749   1270514.45745  24655861.702    24655872.522
       204.000         138.000
  22242751.914   -12386897.65149  -9633406.20147  22242751.534    22242759.295
       231.000         190.000
  21477276.571   -18499565.94949 -14369941.33347  21477276.041    21477283.358
       238.000         202.000
  24200455.691    -3838773.76849  -2976925.13145  24200455.283    24200465.124
       204.000         142.000
  21293459.354   -13056263.44049 -10163406.68447  21293459.105    21293467.009
       235.000         198.000
  22613460.541   -11288177.00149  -8751832.17546  22613460.377    22613468.085
       227.000         173.000
  24248345.994    -3321981.68949  -2579472.70845  24248344.311    24248355.546
       206.000         143.000
  20314989.716   -25775764.73349 -20071482.54048  20314989.106    20314995.770
       243.000         213.000
  20554479.501   -22863762.85749 -17795419.91948  20554479.240    20554484.840
       241.000         214.000
 03  3 19  0 53  0.0000000  0  9G16G 3G23G26G17G14G 9G15G18
  24668760.912     1683513.49849   1323336.16445  24668761.142    24668773.008
       206.000         138.000
  22232289.445   -12441878.11149  -9676248.06647  22232289.256    22232297.112
       231.000         190.000
  21486506.595   -18451061.48949 -14332145.65947  21486506.231    21486513.430
       237.000         201.000
  24220689.834    -3732442.70549  -2894069.83045  24220690.045    24220700.248
       207.000         142.000
  21300437.060   -13019595.24249 -10134834.08647  21300436.325    21300444.748
       236.000         198.000
  22594103.212   -11389900.28149  -8831096.98046  22594102.928    22594110.620
       226.000         174.000
  24237122.826    -3380958.75449  -2625428.69245  24237121.580    24237133.002
       206.000         143.000
  20312807.115   -25787234.22449 -20080419.78948  20312806.407    20312813.349
       244.000         213.000
  20558925.419   -22840399.57149 -17777214.75648  20558925.162    20558930.826
       241.000         214.000
 03  3 19  0 53 30.0000000  0  9G16G 3G23G26G17G14G 9G15G18
  24681683.352     1751420.43749   1376250.57645  24681684.805    24681693.146
       207.000         138.000
  22221917.642   -12496382.09049  -9718718.65047  22221917.577    22221925.714
       231.000         190.000
  21495764.405   -18402411.19949 -14294236.35447  21495763.942    21495771.249
       237.000         201.000
  24240970.184    -3625869.63949  -2811025.99245  24240970.076    24240979.179
       210.000         142.000
  21307470.361   -12982634.92549 -10106033.86347  21307469.876    21307478.072
       236.000         198.000
  22574793.449   -11491373.54849  -8910166.96946  22574793.416    22574800.503
       227.000         175.000
  24225956.856    -3439635.72149  -2671150.86545  24225956.259    24225967.887
       209.000         143.000
  20310681.979   -25798401.70149 -20089121.71548  20310681.418    20310688.331
       244.000         213.000
  20563424.866   -22816754.79949 -17758790.25448  20563424.687    20563430.028
       241.000         214.000
 03  3 19  0 54  0.0000000  0  8G 3G23G26G17G14G 9G15G18
  22211637.233   -12550406.11349  -9760815.23847  22211637.064    22211645.054
       231.000         190.000
  21505050.037   -18353614.85949 -14256213.23947  21505049.684    21505056.711
       238.000         201.000
  24261296.315    -3519056.04749  -2727794.68245  24261296.124    24261307.252
       207.000         142.000
  21314559.674   -12945380.66949 -10077004.60247  21314559.667    21314566.989
       237.000         198.000
  22555532.181   -11592592.30249  -8989038.63846  22555531.690    22555539.127
       227.000         175.000
  24214848.943    -3498008.01949  -2716635.59345  24214848.919    24214858.781
       206.000         144.000
  20308614.877   -25809264.46949 -20097586.19748  20308614.289    20308621.056
       244.000         213.000
  20567977.934   -22792828.25849 -17740146.19148  20567977.695    20567983.251
       241.000         214.000
 03  3 19  0 54 30.0000000  0  8G 3G23G26G17G14G 9G15G18
  22201448.601   -12603947.49649  -9802535.74447  22201449.037    22201456.352
       232.000         190.000
  21514363.398   -18304672.96249 -14218076.71147  21514363.186    21514370.133
       238.000         201.000
  24281667.584    -3412003.81449  -2644377.44845  24281667.651    24281677.177
       206.000         140.000
  21321705.319   -12907830.45749 -10047744.71947  21321704.921    21321712.440
       236.000         198.000
  22536319.789   -11693552.97649  -9067709.20346  22536318.801    22536327.459
       226.000         175.000
  24203799.630    -3556071.70249  -2761879.85045  24203798.809    24203809.030
       206.000         142.000
  20306606.151   -25819820.22849 -20105811.45648  20306605.589    20306612.554
       244.000         213.000
  20572584.493   -22768620.31949 -17721282.85748  20572584.336    20572589.926
       242.000         214.000
 03  3 19  0 55  0.0000000  0  8G 3G23G26G17G14G 9G15G18
  22191351.310   -12657008.90149  -9843882.24847  22191351.037    22191358.680
       231.000         190.000
  21523703.414   -18255591.41249 -14179831.35247  21523703.280    21523710.414
       237.000         202.000
  24302082.855    -3304720.53949  -2560780.12445  24302083.188    24302093.779
       204.000         138.000
  21328906.461   -12869988.40949 -10018257.43347  21328906.265    21328913.960
       236.000         198.000
  22517156.281   -11794257.15549  -9146179.90946  22517155.378    22517163.923
       226.000         175.000
  24192808.943    -3613828.02049  -2806884.64645  24192809.107    24192819.716
       208.000         144.000
  20304655.192   -25830072.55849 -20113800.27148  20304654.630    20304661.869
       243.000         214.000
  20577243.574   -22744136.62349 -17702204.64248  20577243.441    20577248.861
       242.000         214.000
 03  3 19  0 55 30.0000000  0  8G 3G23G26G17G14G 9G15G18
  22181345.845   -12709588.11449  -9884853.01047  22181345.674    22181353.537
       232.000         190.000
  21533069.707   -18206371.38349 -14141478.09247  21533069.396    21533076.929
       238.000         202.000
  24322541.583    -3197208.81249  -2477004.87245  24322542.434    24322552.216
       208.000         138.000
  21336163.397   -12831853.45649  -9988541.92147  21336163.222    21336170.763
       236.000         197.000
  22498042.157   -11894702.04849  -9224448.56546  22498042.229    22498049.065
       226.000         175.000
  24181877.366    -3671273.59849  -2851647.29745  24181877.265    24181887.843
       208.000         144.000
  20302762.221   -25840020.04049 -20121551.55348  20302761.621    20302768.789
       244.000         214.000
  20581954.960   -22719378.12149 -17682912.30248  20581954.829    20581960.489
       242.000         214.000
 03  3 19  0 56  0.0000000  0  8G 3G23G26G17G14G 9G15G18
  22171432.543   -12761682.89249  -9925446.28747  22171432.257    22171439.479
       231.000         190.000
  21542462.181   -18157013.80549 -14103017.64747  21542461.894    21542469.117
       238.000         202.000
  24343043.561    -3089471.16049  -2393053.49645  24343044.341    24343054.174
       203.000         139.000
  21343476.130   -12793424.86449  -9958597.59147  21343475.549    21343483.530
       235.000         197.000
  22478978.000   -11994884.51949  -9302512.74446  22478977.618    22478985.002
       228.000         176.000
  24171005.580    -3728404.82649  -2896165.02045  24171004.752    24171014.363
       209.000         144.000
  20300927.642   -25849660.90249 -20129063.90248  20300926.981    20300934.007
       244.000         214.000
  20586718.430   -22694345.89949 -17663406.67048  20586718.411    20586723.874
       242.000         214.000
 03  3 19  0 56 30.0000000  0  8G 3G23G26G17G14G 9G15G18
  22161611.673   -12813291.11949  -9965660.44647  22161611.326    22161619.184
       231.000         189.000
  21551880.686   -18107519.39249 -14064450.58147  21551880.564    21551887.536
       238.000         202.000
  24363588.024    -2981510.11949  -2308928.07745  24363589.058    24363599.045
       205.000         139.000
  21350844.956   -12754701.39849  -9928423.49747  21350844.658    21350852.375
       235.000         196.000
  22459964.503   -12094801.22749  -9380369.81946  22459964.540    22459971.199
       228.000         177.000
  24160194.409    -3785218.13649  -2940435.00945  24160193.786    24160203.619
       212.000         143.000
  20299151.725   -25858993.33049 -20136335.91748  20299151.220    20299157.925
       244.000         213.000
  20591533.856   -22669040.73249 -17643688.35448  20591533.648    20591539.262
       241.000         214.000
 03  3 19  0 57  0.0000000  0  8G 3G23G26G17G14G 9G15G18
  22151883.763   -12864410.86949 -10005493.96947  22151883.210    22151890.841
       230.000         189.000
  21561324.874   -18057889.72249 -14025778.11347  21561324.356    21561331.789
       237.000         202.000
  24384174.440    -2873328.70849  -2224630.96945  24384175.327    24384184.803
       207.000         140.000
  21358269.998   -12715682.33149  -9898019.06347  21358269.588    21358277.003
       234.000         196.000
  22441001.970   -12194449.94049  -9458018.07546  22441001.888    22441009.078
       227.000         177.000
  24149444.128    -3841710.71549  -2984455.10745  24149443.198    24149453.796
       207.000         143.000
  20297434.726   -25868016.25249 -20143366.75948  20297434.279    20297441.182
       244.000         214.000
  20596400.928   -22643463.91349 -17623758.36048  20596400.599    20596406.106
       241.000         214.000
 03  3 19  0 57 30.0000000  0  8G 3G23G26G17G14G 9G15G18
  22142249.373   -12915039.92949 -10044945.14047  22142249.230    22142256.622
       233.000         189.000
  21570794.622   -18008125.64749 -13987000.91547  21570794.380    21570801.475
       238.000         201.000
  24404802.358    -2764929.31249  -2140163.98345  24404803.296    24404811.982
       205.000         139.000
  21365751.541   -12676366.78249  -9867383.59347  21365751.058    21365758.751
       235.000         196.000
  22422091.037   -12293827.36749  -9535454.93446  22422090.919    22422097.736
       228.000         178.000
  24138755.384    -3897878.68549  -3028222.22945  24138754.398    24138765.618
       207.000         142.000
  20295776.878   -25876728.24249 -20150155.31948  20295776.426    20295783.090
       244.000         214.000
  20601319.521   -22617616.30349 -17603617.36248  20601319.203    20601325.137
       241.000         214.000
 03  3 19  0 58  0.0000000  0  7G 3G23G17G14G 9G15G18
  22132708.653   -12965176.70449 -10084012.72147  22132708.455    22132716.123
       231.000         189.000
  21580289.702   -17958228.75049 -13948120.22147  21580289.347    21580296.273
       238.000         201.000
  21373289.583   -12636754.23949  -9836516.70547  21373289.460    21373296.767
       234.000         195.000
  22403232.281   -12392930.99949  -9612678.45946  22403231.815    22403238.417
       229.000         178.000
  24128128.960    -3953719.43849  -3071734.39545  24128128.194    24128138.087
       208.000         143.000
  20294178.478   -25885128.16749 -20156700.70848  20294177.933    20294184.861
       244.000         214.000
  20606289.373   -22591499.55349 -17583266.64648  20606289.223    20606294.813
       241.000         214.000
 03  3 19  0 58 30.0000000  0  7G 3G23G17G14G 9G15G18
  22123262.059   -13014818.58149 -10122694.65347  22123261.455    22123269.391
       230.000         189.000
  21589809.989   -17908199.58149 -13909136.45747  21589809.736    21589816.303
       238.000         201.000
  21380884.503   -12596842.79349  -9805416.89747  21380884.342    21380892.053
       235.000         195.000
  22384426.152   -12491757.31049  -9689685.86946  22384425.355    22384432.699
       228.000         178.000
  24117565.729    -4009228.69149  -3114988.25045  24117565.577    24117575.980
       209.000         143.000
  20292639.822   -25893213.85049 -20163001.23048  20292639.248    20292646.406
       244.000         214.000
  20611310.444   -22565113.83549 -17562706.34948  20611310.237    20611315.733
       242.000         214.000
 03  3 19  0 59  0.0000000  0  7G 3G23G17G14G 9G15G18
  22113909.648   -13063965.49249 -10160990.90147  22113909.039    22113916.618
       230.000         188.000
  21599354.904   -17858040.81049 -13870051.70647  21599354.858    21599361.457
       238.000         201.000
  21388536.102   -12556633.77549  -9774085.21847  21388536.095    21388543.590
       234.000         195.000
  22365672.959   -12590305.31049  -9766476.41646  22365672.647    22365680.098
       227.000         179.000
  24107065.956    -4064405.38449  -3157982.97445  24107066.635    24107075.751
       210.000         144.000
  20291160.901   -25900985.76849 -20169057.26848  20291160.462    20291167.226
       245.000         214.000
  20616382.131   -22538462.00949 -17541938.69248  20616381.976    20616387.381
       242.000         214.000
 03  3 19  0 59 30.0000000  0  7G 3G23G17G14G 9G15G18
  22104651.870   -13112615.42749 -10198899.90647  22104651.628    22104658.935
       232.000         188.000
  21608924.268   -17807753.53149 -13830866.82747  21608924.053    21608930.717
       238.000         200.000
  21396244.305   -12516126.92449  -9742521.45747  21396243.879    21396251.077
       234.000         194.000
  22346973.414   -12688571.91049  -9843047.69946  22346973.003    22346980.111
       228.000         179.000
  24096630.187    -4119246.24249  -3200716.00045  24096630.320    24096640.583
       209.000         145.000
  20289741.921   -25908442.47949 -20174867.68448  20289741.274    20289748.382
       244.000         214.000
  20621504.195   -22511545.30649 -17520964.64148  20621503.960    20621509.546
       242.000         214.000
 03  3 19  1  0  0.0000000  0  7G 3G23G17G14G 9G15G18
  22095488.947   -13160766.90149 -10236420.51047  22095488.562    22095496.162
       231.000         189.000
  21618517.765   -17757339.25949 -13791582.98147  21618517.322    21618524.280
       238.000         200.000
  21404009.306   -12475321.48149  -9710725.01447  21404008.713    21404016.577
       234.000         194.000
  22328327.861   -12786554.57349  -9919397.71046  22328327.381    22328334.571
       227.000         179.000
  24086258.570    -4173748.17049  -3243184.92445  24086257.291    24086268.107
       208.000         145.000
  20288383.117   -25915582.70249 -20180431.48648  20288382.675    20288389.495
       244.000         214.000
  20626676.476   -22484364.77449 -17499785.00948  20626676.189    20626681.699
       241.000         213.000
 03  3 19  1  0 30.0000000  0  7G 3G23G17G14G 9G15G18
  22086421.328   -13208417.50149 -10273550.82147  22086420.859    22086428.320
       231.000         189.000
  21628135.363   -17706798.51649 -13752200.58947  21628135.413    21628141.890
       238.000         200.000
  21411831.404   -12434215.90649  -9678694.70747  21411831.198    21411838.790
       234.000         194.000
  22309736.929   -12884250.00649  -9995523.91346  22309736.321    22309743.263
       229.000         179.000
  24075952.359    -4227907.40749  -3285386.81445  24075952.525    24075961.112
       210.000         144.000
  20287084.971   -25922404.56749 -20185747.21748  20287084.454    20287091.182
       244.000         214.000
  20631898.795   -22456921.15749 -17478400.37048  20631898.484    20631904.348
       242.000         213.000
 03  3 19  1  1  0.0000000  0  7G 3G23G17G14G 9G15G18
  22077449.122   -13255566.26449 -10310290.07447  22077449.030    22077456.792
       232.000         190.000
  21637776.662   -17656133.24149 -13712721.16047  21637776.229    21637783.394
       238.000         200.000
  21419710.707   -12392810.15349  -9646430.48447  21419710.583    21419718.338
       234.000         194.000
  22291200.992   -12981656.01849 -10071424.59846  22291200.243    22291208.292
       229.000         179.000
  24065711.811    -4281721.57749  -3327319.81045  24065711.315    24065722.072
       207.000         145.000
  20285847.486   -25928907.61649 -20190814.51348  20285847.000    20285853.898
       244.000         214.000
  20637170.833   -22429216.39049 -17456812.23748  20637170.784    20637176.410
       242.000         213.000
 03  3 19  1  1 30.0000000  0  7G 3G23G17G14G 9G15G18
  22068573.021   -13302210.75349 -10346636.39747  22068573.105    22068580.431
       233.000         191.000
  21647441.557   -17605344.06949 -13673145.19147  21647441.598    21647448.119
       238.000         200.000
  21427647.369   -12351103.35749  -9613931.69147  21427646.959    21427654.489
       235.000         194.000
  22272720.967   -13078769.51349 -10147097.34146  22272720.766    22272728.100
       229.000         180.000
  24055537.243    -4335186.92249  -3368980.99145  24055536.659    24055547.350
       207.000         144.000
  20284671.059   -25935089.82649 -20195631.80448  20284670.615    20284677.464
       244.000         214.000
  20642492.483   -22401250.99649 -17435021.02648  20642492.310    20642497.912
       242.000         214.000
 03  3 19  1  2  0.0000000  0  7G 3G23G17G14G 9G15G18
  22059793.039   -13348349.92449 -10382588.97247  22059792.933    22059800.110
       232.000         191.000
  21657129.713   -17554432.71749 -13633474.00947  21657129.601    21657136.216
       238.000         200.000
  21435641.228   -12309095.42049  -9581198.24947  21435641.194    21435648.291
       234.000         194.000
  22254296.931   -13175588.27049 -10222540.41146  22254296.391    22254302.953
       228.000         180.000
  24045429.834    -4388301.14349  -3410368.57345  24045429.546    24045440.307
       211.000         144.000
  20283555.745   -25940950.78849 -20200198.77148  20283555.177    20283562.234
       244.000         214.000
  20647863.366   -22373026.79149 -17413028.14048  20647863.062    20647868.854
       242.000         214.000
 03  3 19  1  2 30.0000000  0  7G 3G23G17G14G 9G15G18
  22051109.362   -13393982.50249 -10418146.80047  22051109.325    22051116.443
       232.000         190.000
  21666840.860   -17503400.68249 -13593708.79647  21666840.838    21666847.579
       238.000         201.000
  21443692.441   -12266785.62849  -9548229.58347  21443691.641    21443699.498
       234.000         193.000
  22235929.217   -13272109.99749 -10297752.04546  22235928.437    22235935.916
       230.000         180.000
  24035389.815    -4441061.15749  -3451480.14245  24035388.717    24035398.279
       207.000         144.000
  20282501.739   -25946489.60549 -20204514.71848  20282501.317    20282508.096
       244.000         214.000
  20653283.212   -22344545.27549 -17390834.76048  20653283.280    20653288.574
       242.000         214.000
 03  3 19  1  3  0.0000000  0  7G 3G23G17G14G 9G15G18
  22042522.532   -13439106.56149 -10453308.36847  22042521.920    22042529.677
       232.000         190.000
  21676574.690   -17452249.08549 -13553850.41847  21676574.230    21676581.410
       237.000         200.000
  21451801.248   -12224173.39349  -9515025.25547  21451801.027    21451808.621
       234.000         193.000
  22217618.799   -13368331.80649 -10372729.97546  22217618.493    22217625.056
       230.000         181.000
  24025417.749    -4493463.97349  -3492313.36945  24025417.350    24025426.933
       208.000         143.000
  20281509.319   -25951704.85949 -20208578.53248  20281508.464    20281515.526
       243.000         214.000
  20658751.862   -22315807.54549 -17368441.71848  20658751.674    20658757.281
       242.000         214.000
 03  3 19  1  3 30.0000000  0  7G 3G23G17G14G 9G15G18
  22034032.693   -13483720.67049 -10488072.57247  22034032.247    22034039.949
       233.000         191.000
  21686330.981   -17400979.41449 -13513900.03247  21686330.586    21686337.532
       237.000         200.000
  21459967.661   -12181258.58449  -9481585.15147  21459967.374    21459975.353
       234.000         193.000
  22199365.815   -13464251.36849 -10447472.37946  22199365.359    22199372.333
       229.000         182.000
  24015514.224    -4545506.85349  -3532866.16345  24015513.946    24015523.629
       207.000         142.000
  20280578.535   -25956595.71549 -20212389.56548  20280577.938    20280584.851
       243.000         214.000
  20664268.969   -22286815.20949 -17345850.28548  20664268.664    20664274.281
       242.000         214.000
 03  3 19  1  4  0.0000000  0  7G 3G23G17G14G 9G15G18
  22025640.134   -13527823.47949 -10522438.36947  22025639.647    22025647.475
       232.000         192.000
  21696109.482   -17349592.98749 -13473858.67547  21696109.096    21696116.518
       237.000         199.000
  21468191.736   -12138040.90749  -9447909.05247  21468191.220    21468198.987
       234.000         193.000
  22181170.824   -13559866.23949 -10521977.37746  22181170.145    22181177.683
       230.000         183.000
  24005679.609    -4597186.92649  -3573136.20645  24005678.295    24005689.691
       207.000         143.000
  20279709.783   -25961160.88949 -20215946.83048  20279709.140    20279715.962
       243.000         214.000
  20669834.212   -22257569.57149 -17323061.47648  20669834.042    20669839.554
       242.000         213.000
 03  3 19  1  4 30.0000000  0  7G 3G23G17G14G 9G15G18
  22017345.227   -13571413.60549 -10556404.66447  22017344.809    22017352.262
       232.000         192.000
  21705909.864   -17298091.34149 -13433727.53047  21705909.432    21705916.411
       237.000         199.000
  21476473.508   -12094519.87249  -9413996.56847  21476473.347    21476480.927
       233.000         193.000
  22163034.312   -13655173.70449 -10596242.83146  22163034.051    22163040.843
       231.000         184.000
  23995914.789    -4648501.31349  -3613121.30645  23995914.804    23995924.914
       209.000         145.000
  20278903.181   -25965399.40649 -20219249.55048  20278902.428    20278909.565
       243.000         214.000
  20675447.428   -22228071.94249 -17300076.30348  20675447.236    20675452.721
       242.000         213.000
 03  3 19  1  5  0.0000000  0  7G 3G23G17G14G 9G15G18
  22009148.018   -13614489.95349 -10589970.61547  22009147.704    22009155.212
       232.000         192.000
  21715731.856   -17246475.97349 -13393507.77047  21715731.322    21715738.781
       236.000         199.000
  21484812.995   -12050695.36149  -9379847.60547  21484812.524    21484820.268
       233.000         193.000
  22144956.759   -13750171.76349 -10670267.19546  22144956.446    22144962.792
       230.000         184.000
  23986220.155    -4699447.47549  -3652819.47445  23986220.055    23986230.115
       209.000         146.000
  20278158.880   -25969310.56249 -20222297.18648  20278158.103    20278165.006
       244.000         214.000
  20681108.272   -22198324.07549 -17276896.13648  20681107.977    20681113.357
       242.000         213.000
 03  3 19  1  5 30.0000000  0  7G 3G23G17G14G 9G15G18
  22001048.932   -13657050.39849 -10623134.55747  22001048.691    22001056.388
       232.000         192.000
  21725575.393   -17194747.59049 -13353199.93547  21725574.887    21725582.354
       236.000         199.000
  21493210.453   -12006566.15649  -9345461.21747  21493210.070    21493217.931
       232.000         192.000
  22126938.592   -13844857.34849 -10744048.05646  22126938.169    22126945.286
       230.000         184.000
  23976595.928    -4750022.27149  -3692228.27745  23976595.668    23976605.319
       209.000         147.000
  20277477.216   -25972892.60649 -20225088.36648  20277476.465    20277483.483
       243.000         213.000
  20686816.640   -22168326.59949 -17253521.46248  20686816.235    20686821.706
       242.000         213.000
 03  3 19  1  6  0.0000000  0  7G 3G23G17G14G 9G15G18
  21993048.376   -13699093.30649 -10655895.23147  21993048.399    21993056.184
       234.000         193.000
  21735440.254   -17142907.18249 -13312804.81947  21735439.978    21735447.384
       236.000         199.000
  21501666.046   -11962131.88949  -9310837.11947  21501666.076    21501673.164
       234.000         192.000
  22108980.398   -13939227.68549 -10817583.28546  22108980.182    22108987.397
       230.000         185.000
  23967043.137    -4800222.28749  -3731345.03945  23967042.662    23967052.855
       211.000         149.000
  20276858.418   -25976144.32049 -20227622.15948  20276857.843    20276864.906
       244.000         214.000
  20692572.171   -22138080.76349 -17229953.26948  20692571.621    20692577.322
       242.000         213.000
 03  3 19  1  6 30.0000000  0  7G 3G23G17G14G 9G15G18
  21985146.500   -13740617.83449 -10688251.97447  21985146.650    21985154.004
       233.000         194.000
  21745326.128   -17090956.57849 -13272323.83647  21745325.994    21745333.019
       236.000         198.000
  21510179.715   -11917392.90749  -9275975.57747  21510179.223    21510186.760
       234.000         192.000
  22091082.619   -14033280.79649 -10890871.31446  22091082.062    22091089.229
       230.000         185.000
  23957562.083    -4850045.28349  -3770168.01845  23957562.565    23957572.527
       212.000         150.000
  20276302.604   -25979065.15349 -20229898.12148  20276301.998    20276308.766
       243.000         214.000
  20698374.604   -22107588.42649 -17206192.99247  20698374.164    20698379.748
       241.000         212.000
 03  3 19  1  7  0.0000000  0  7G 3G23G17G14G 9G15G18
  21977343.522   -13781622.78449 -10720203.84947  21977343.622    21977350.802
       234.000         193.000
  21755232.773   -17038897.19349 -13231758.08847  21755232.366    21755239.597
       237.000         198.000
  21518751.436   -11872348.17149  -9240875.79347  21518751.159    21518758.567
       233.000         192.000
  22073245.516   -14127014.39349 -10963910.37746  22073244.831    22073252.295
       230.000         184.000
  23948153.303    -4899488.69149  -3808695.24345  23948153.069    23948162.188
       211.000         150.000
  20275809.937   -25981653.97249 -20231915.36348  20275809.439    20275816.321
       243.000         214.000
  20704223.746   -22076850.87349 -17182241.63747  20704223.534    20704228.708
       242.000         212.000
 03  3 19  1  7 30.0000000  0  8G 3G23G31G17G14G 9G15G18
  21969639.780   -13822106.18149 -10751749.32247  21969639.795    21969647.135
       233.000         193.000
  21765159.921   -16986729.77049 -13191108.15647  21765159.574    21765166.729
       236.000         198.000
                   -902997.36349   -693784.75243
       208.000          74.000
  21527381.448   -11826997.07949  -9205537.28247  21527380.954    21527388.826
       231.000         191.000
  22055469.977   -14220425.40749 -11036698.09046  22055469.926    22055476.783
       231.000         185.000
  23938817.335    -4948549.02249  -3846923.94745  23938816.632    23938826.438
       210.000         150.000
  20275380.745   -25983909.16249 -20233672.64348  20275380.406    20275387.295
       244.000         214.000
  20710119.459   -22045868.73549 -17158099.69648  20710119.343    20710124.615
       242.000         213.000
 03  3 19  1  8  0.0000000  0  8G 3G23G31G17G14G 9G15G18
  21962035.550   -13862066.66949 -10782887.33547  21962035.589    21962042.437
       233.000         192.000
  21775107.447   -16934455.41249 -13150374.89447  21775107.107    21775114.279
       237.000         198.000
                   -985287.88249   -562497.68943
       208.000          74.000
  21536069.747   -11781339.31949  -9169959.81047  21536069.030    21536077.038
       231.000         191.000
  22037756.254   -14313511.23549 -11109232.40146  22037755.789    22037762.428
       230.000         186.000
  23929554.779    -4997223.43249  -3884851.94545  23929553.315    23929563.122
       211.000         148.000
  20275015.286   -25985829.63949 -20235169.10748  20275014.869    20275021.875
       243.000         214.000
  20716061.425   -22014643.53149 -17133768.35848  20716061.199    20716066.655
       242.000         213.000
 03  3 19  1  8 30.0000000  0  8G 3G23G31G17G14G 9G15G18
  21954531.039   -13901503.15549 -10813617.04447  21954530.855    21954537.946
       233.000         192.000
  21785074.984   -16882075.50449 -13109559.38047  21785074.577    21785081.669
       237.000         198.000
                  -1067212.52549   -626334.47743
       205.000          74.000
  21544816.497   -11735374.47649  -9134143.06147  21544816.194    21544823.945
       231.000         191.000
  22020104.817   -14406269.52949 -11181511.48746  22020104.369    22020110.931
       232.000         186.000
  23920366.094    -5045509.33449  -3922477.21145  23920366.055    23920375.867
       209.000         148.000
  20274713.686   -25987414.41749 -20236403.98648  20274713.158    20274719.920
       243.000         214.000
  20722049.380   -21983176.66949 -17109248.71248  20722049.194    20722054.580
       242.000         213.000
 03  3 19  1  9  0.0000000  0  8G 3G23G31G17G14G 9G15G18
  21947126.383   -13940414.49049 -10843937.53747  21947126.221    21947133.349
       234.000         192.000
  21795062.380   -16829591.60949 -13068662.84147  21795062.162    21795069.117
       237.000         198.000
                  -1148769.21049   -689885.09944                  23765858.430
       202.000         111.000
  21553621.767   -11689102.63149  -9098087.08847  21553621.878    21553629.270
       232.000         191.000
  22002516.189   -14498698.24349 -11253533.77146  22002516.115    22002522.318
       232.000         186.000
  23911252.004    -5093404.26449  -3959797.81545  23911251.135    23911260.783
       207.000         147.000
  20274476.089   -25988662.82549 -20237376.75748  20274475.423    20274482.499
       243.000         213.000
  20728083.005   -21951469.55749 -17084541.86848  20728082.877    20728088.365
       242.000         213.000
 03  3 19  1  9 30.0000000  0  8G 3G23G31G17G14G 9G15G18
  21939821.881   -13978800.26649 -10873848.51147  21939822.077    21939829.091
       234.000         193.000
  21805069.132   -16777005.86349 -13027686.93547  21805068.905    21805075.700
       237.000         198.000
  23750400.444    -1229956.42549   -753147.74644  23750399.950    23750407.843
       202.000         129.000
  21562485.366   -11642524.08549  -9061792.13847  21562485.122    21562492.911
       232.000         191.000
  21984990.617   -14590795.75049 -11325297.96746  21984990.368    21984997.486
       233.000         187.000
  23902212.427    -5140906.05149  -3996812.08345  23902212.003    23902220.138
       208.000         146.000
  20274302.564   -25989574.63749 -20238087.24748  20274302.053    20274308.947
       243.000         213.000
  20734161.919   -21919524.63149 -17059649.71048  20734161.709    20734167.350
       242.000         213.000
 03  3 19  1 10  0.0000000  0  8G 3G23G31G17G14G 9G15G18
  21932617.804   -14016657.90449 -10903347.95147  21932617.495    21932624.812
       233.000         193.000
  21815095.394   -16724317.87849 -12986631.36147  21815095.284    21815101.882
       238.000         198.000
  23735022.292    -1310770.08549   -816119.32544  23735021.826    23735029.282
       202.000         131.000
  21571407.659   -11595636.84149  -9025256.63947  21571407.216    21571414.975
       231.000         190.000
  21967528.757   -14682558.14249 -11396801.02847  21967528.267    21967534.979
       233.000         188.000
  23893248.456    -5188010.93749  -4033517.08145  23893247.489    23893257.973
       210.000         147.000
  20274193.567   -25990147.51349 -20238533.62948  20274193.078    20274199.985
       243.000         214.000
  20740286.164   -21887341.64949 -17034572.05948  20740286.109    20740291.485
       242.000         213.000
 03  3 19  1 10 30.0000000  0  8G 3G23G31G17G14G 9G15G18
  21925514.418   -14053986.26249 -10932434.95447  21925514.212    21925521.148
       235.000         193.000
  21825140.761   -16671529.28249 -12945497.38847  21825140.460    21825146.847
       237.000         198.000
  23719715.535    -1391208.20249   -878798.26644  23719713.824    23719723.826
       199.000         130.000
  21580388.728   -11548440.92449  -8988480.61247  21580388.188    21580396.757
       231.000         190.000
  21950131.029   -14773983.25149 -11468041.28247  21950130.741    21950137.426
       233.000         188.000
  23884360.653    -5234716.19549  -4069910.68845  23884359.992    23884369.601
       211.000         148.000
  20274149.259   -25990380.33849 -20238715.03348  20274148.829    20274155.777
       243.000         214.000
  20746455.415   -21854922.30949 -17009310.23048  20746455.358    20746460.610
       242.000         213.000
 03  3 19  1 11  0.0000000  0  8G 3G23G31G17G14G 9G15G18
  21918512.149   -14090783.59449 -10961108.17647  21918512.170    21918519.114
       234.000         193.000
  21835205.087   -16618640.75649 -12904285.55447  21835204.882    21835211.624
       237.000         198.000
  23704480.505    -1471267.63249   -941182.09944  23704481.279    23704489.092
       196.000         131.000
  21589428.671   -11500935.67549  -8951463.55647  21589428.400    21589436.398
       232.000         190.000
  21932798.083   -14865068.23649 -11539016.50347  21932797.550    21932803.948
       233.000         189.000
  23875549.573    -5281018.59849  -4105990.37745  23875550.201    23875558.777
       212.000         151.000
  20274169.926   -25990271.70849 -20238630.36948  20274169.185    20274176.264
       243.000         213.000
  20752669.491   -21822267.15449 -16983864.65348  20752669.246    20752674.830
       242.000         213.000
 03  3 19  1 11 30.0000000  0  8G 3G23G31G17G14G 9G15G18
  21911611.065   -14127048.98449 -10989366.89647  21911610.917    21911618.186
       234.000         194.000
  21845288.091   -16565653.95949 -12862997.14347  21845287.472    21845294.285
       236.000         197.000
  23689317.955    -1550946.47749  -1003269.41545  23689318.496    23689326.262
       198.000         133.000
  21598527.570   -11453121.03349  -8914205.40747  21598527.371    21598535.670
       231.000         190.000
  21915530.262   -14955810.91849 -11609724.99547  21915529.744    21915536.832
       233.000         189.000
  23866815.649    -5326915.60549  -4141754.17345  23866815.807    23866824.305
       215.000         151.000
  20274255.609   -25989820.90849 -20238279.07548  20274255.165    20274262.110
       244.000         213.000
  20758928.087   -21789377.92649 -16958236.67948  20758927.683    20758933.346
       242.000         213.000
 03  3 19  1 12  0.0000000  0  8G 3G23G31G17G14G 9G15G18
  21904811.295   -14162781.74749 -11017210.57047  21904810.905    21904818.069
       234.000         194.000
  21855389.541   -16512570.33549 -12821633.28147  21855388.979    21855395.971
       236.000         197.000
  23674228.451    -1630242.44548  -1065058.36345  23674227.693    23674237.335
       192.000         133.000
  21607685.343   -11404996.86949  -8876706.08247  21607685.311    21607692.702
       231.000         190.000
  21898327.896   -15046209.21849 -11680165.13447  21898327.443    21898333.797
       233.000         189.000
  23858159.343    -5372404.83249  -4177200.23545  23858158.850    23858168.186
       215.000         150.000
  20274406.655   -25989027.37949 -20237660.72048  20274406.201    20274412.947
       244.000         213.000
  20765230.855   -21756256.33349 -16932427.64447  20765230.430    20765236.316
       242.000         212.000
 03  3 19  1 12 30.0000000  0  8G 3G23G31G17G14G 9G15G18
  21898113.137   -14197980.46949 -11044638.12347  21898112.732    21898120.046
       235.000         194.000
  21865509.254   -16459390.75449 -12780194.64947  21865509.283    21865516.157
       236.000         197.000
  23659212.196    -1709152.90849  -1126546.93545  23659211.359    23659219.906
       200.000         135.000
  21616902.059   -11356563.05849  -8838965.46747  21616901.650    21616909.220
       231.000         190.000
  21881191.580   -15136260.68449 -11750335.02147  21881191.127    21881197.600
       233.000         189.000
  23849580.978    -5417483.65049  -4212326.47545  23849579.630    23849589.950
       212.000         150.000
  20274623.170   -25987889.67949 -20236774.18648  20274622.561    20274629.290
       243.000         213.000
  20771577.686   -21722903.17949 -16906438.17647  20771577.486    20771582.783
       242.000         212.000
 03  3 19  1 13  0.0000000  0  8G 3G23G31G17G14G 9G15G18
  21891516.906   -14232643.78549 -11071648.48247  21891516.429    21891523.849
       234.000         194.000
  21875647.081   -16406116.16549 -12738681.98647  21875646.645    21875654.014
       236.000         197.000
  23644269.800    -1787675.21149  -1187733.04145  23644269.043    23644278.695
       200.000         136.000
  21626177.791   -11307818.45049  -8800982.67847  21626177.319    21626185.557
       232.000         189.000
  21864121.841   -15225962.34049 -11820232.33247  21864121.064    21864127.871
       232.000         189.000
  23841081.479    -5462148.80949  -4247130.42045  23841081.563    23841090.125
       214.000         149.000
  20274905.417   -25986406.45149 -20235618.41348  20274904.995    20274911.709
       244.000         213.000
  20777968.407   -21689319.44249 -16880269.03647  20777968.072    20777973.726
       241.000         212.000
 03  3 19  1 13 30.0000000  0  8G 3G23G31G17G14G 9G15G18
  21885022.626   -14266771.09349 -11098241.17147  21885022.384    21885029.492
       235.000         194.000
  21885802.653   -16352748.37149 -12697096.70047  21885802.234    21885809.525
       236.000         197.000
  23629401.603    -1865807.68249  -1248615.39045  23629402.095    23629408.691
       203.000         137.000
  21635512.750   -11258763.03749  -8762757.70647  21635512.287    21635520.401
       231.000         189.000
  21847118.896   -15315312.35749 -11889855.64147  21847117.855    21847125.178
       233.000         189.000
  23832661.162    -5506398.52649  -4281610.60945  23832661.112    23832669.532
       214.000         150.000
  20275253.460   -25984577.31549 -20234193.09848  20275252.875    20275259.793
       243.000         213.000
  20784402.662   -21655507.18249 -16853921.82947  20784402.488    20784407.875
       242.000         212.000
 03  3 19  1 14  0.0000000  0  8G 3G23G31G17G14G 9G15G18
  21878630.513   -14300361.27949 -11124415.32347  21878630.479    21878637.981
       234.000         194.000
  21895975.765   -16299288.43049 -12655439.61647  21895975.482    21895982.366
       236.000         197.000
  23614608.040    -1943547.88449  -1309192.07245  23614606.828    23614616.572
       204.000         138.000
  21644906.838   -11209397.02449  -8724290.70747  21644906.853    21644913.865
       232.000         189.000
  21830183.356   -15404308.86349 -11959203.47947  21830182.909    21830189.508
       234.000         190.000
  23824320.225    -5550230.00949  -4315764.89445  23824319.956    23824328.569
       212.000         150.000
  20275667.539   -25982401.12549 -20232497.34848  20275667.038    20275673.650
       243.000         213.000
  20790880.174   -21621467.79449 -16827397.63947  20790880.133    20790885.383
       243.000         212.000
 03  3 19  1 14 30.0000000  0  8G 3G23G31G17G14G 9G15G18
  21872341.050   -14333412.39849 -11150169.42447  21872341.103    21872347.968
       235.000         194.000
  21906166.392   -16245736.50749 -12613710.84347  21906166.177    21906172.920
       236.000         196.000
  23599889.708    -2020892.50649  -1369460.53545  23599889.866    23599898.147
       202.000         138.000
  21654360.237   -11159719.48549  -8685580.95847  21654359.759    21654367.839
       231.000         189.000
  21813315.673   -15492948.41549 -12028273.17647  21813315.446    21813321.872
       234.000         190.000
  23816059.519    -5593639.78749  -4349590.62345  23816059.085    23816068.032
       212.000         150.000
  20276148.060   -25979875.92149 -20230529.64748  20276147.485    20276154.425
       243.000         213.000
  20797400.864   -21587201.48949 -16800696.62847  20797400.499    20797405.973
       242.000         211.000
 03  3 19  1 15  0.0000000  0  8G 3G23G31G17G14G 9G15G18
  21866154.338   -14365923.95149 -11175503.08447  21866154.436    21866161.494
       235.000         195.000
  21916374.087   -16192094.43249 -12571911.83247  21916373.450    21916380.565
       235.000         196.000
  23585247.010    -2097839.75249  -1429419.32945  23585247.013    23585255.053
       202.000         140.000
  21663872.925   -11109730.22049  -8646628.31047  21663872.323    21663880.451
       231.000         189.000
  21796516.404   -15581229.13649 -12097063.27047  21796515.826    21796522.643
       234.000         190.000
  23807879.345    -5636625.65249  -4383085.99245  23807879.038    23807888.730
       210.000         150.000
  20276695.085   -25977001.25549 -20228289.63248  20276694.696    20276701.488
       243.000         213.000
  20803964.337   -21552710.13849 -16773820.25947  20803964.065    20803969.583
       242.000         211.000
 03  3 19  1 15 30.0000000  0  8G 3G23G31G17G14G 9G15G18
  21860070.545   -14397894.59449 -11200415.25847  21860070.838    21860077.442
       235.000         196.000
  21926598.764   -16138363.05149 -12530043.23047  21926598.352    21926605.366
       235.000         195.000
  23570680.499    -2174386.97549  -1489066.41945  23570679.858    23570688.516
       203.000         140.000
  21673444.888   -11059429.10749  -8607432.66247  21673444.577    21673452.036
       231.000         189.000
  21779785.997   -15669148.28749 -12165571.61347  21779785.608    21779792.244
       235.000         191.000
  23799780.598    -5679184.78649  -4416248.86745  23799779.545    23799790.404
       213.000         150.000
  20277308.805   -25973775.98349 -20225776.41848  20277307.952    20277314.987
       243.000         213.000
  20810570.452   -21517994.63049 -16746769.22147  20810570.142    20810575.858
       242.000         211.000
 03  3 19  1 16  0.0000000  0  8G 3G23G31G17G14G 9G15G18
  21854089.685   -14429324.07649 -11224905.74247  21854089.349    21854097.306
       235.000         196.000
  21936840.184   -16084544.17349 -12488106.45047  21936839.832    21936846.800
       235.000         195.000
  23556190.452    -2250532.46049  -1548400.46245  23556189.779    23556198.530
       208.000         142.000
  21683076.229   -11008816.21949  -8567994.07047  21683076.009    21683084.014
       232.000         189.000
  21763124.626   -15756704.44349 -12233797.10747  21763124.432    21763130.581
       236.000         192.000
  23791763.466    -5721315.29749  -4449077.72645  23791762.346    23791771.463
       208.000         151.000
  20277989.277   -25970199.83949 -20222989.79648  20277988.601    20277995.588
       243.000         213.000
  20817218.863   -21483057.02449 -16719545.11747  20817218.729    20817224.239
       242.000         211.000
 03  3 19  1 16 30.0000000  0  8G 3G23G31G17G14G 9G15G18
  21848212.146   -14460210.69849 -11248973.22147  21848212.247    21848219.406
       236.000         196.000
  21947098.135   -16030638.44849 -12446101.99447  21947097.950    21947105.103
       235.000         196.000
  23541777.524    -2326273.26349  -1607419.18345  23541777.497    23541785.175
       205.000         144.000
  21692767.026   -10957890.77049  -8528311.92547  21692766.770    21692774.098
       231.000         188.000
  21746532.810   -15843894.62149 -12301737.42447  21746532.209    21746539.011
       234.000         192.000
  23783828.225    -5763014.16749  -4481570.26045  23783828.278    23783836.572
       211.000         151.000
  20278736.948   -25966271.09949 -20219928.43248  20278736.823    20278743.167
       245.000         213.000
  20823909.419   -21447897.84449 -16692148.35447  20823909.318    20823914.725
       243.000         211.000
 03  3 19  1 17  0.0000000  0  8G 3G23G31G17G14G 9G15G18
  21842438.096   -14490553.64449 -11272617.06447  21842438.035    21842445.429
       236.000         196.000
  21957372.365   -15976647.03949 -12404030.77747  21957372.108    21957379.090
       235.000         195.000
  23527441.850    -2401607.48449  -1666121.08345  23527442.321    23527450.217
       207.000         144.000
  21702517.369   -10906652.41749  -8488385.95847  21702517.040    21702525.012
       230.000         188.000
  21730010.975   -15930716.92049 -12369391.09447  21730010.437    21730017.430
       235.000         192.000
  23775975.822    -5804278.90849  -4513724.50845  23775974.795    23775984.297
       211.000         151.000
  20279551.845   -25961989.26549 -20216591.92648  20279551.479    20279557.893
       244.000         214.000
  20830641.859   -21412518.73249 -16664580.22247  20830641.817    20830647.047
       242.000         211.000
 03  3 19  1 17 30.0000000  0  8G 3G23G31G17G14G 9G15G18
  21836767.708   -14520351.78449 -11295836.37847  21836767.760    21836774.688
       235.000         196.000
  21967662.774   -15922570.79149 -12361893.45747  21967662.274    21967669.630
       235.000         195.000
  23513184.180    -2476532.46149  -1724504.10545  23513183.921    23513191.578
       210.000         146.000
  21712327.232   -10855101.27749  -8448216.24946  21712326.819    21712334.128
       230.000         187.000
  21713559.675   -16017168.74449 -12436756.07547  21713559.386    21713565.772
       235.000         192.000
  23768206.484    -5845106.92749  -4545538.45145  23768207.053    23768215.248
       211.000         152.000
  20280434.087   -25957353.07449 -20212979.29648  20280433.648    20280440.052
       244.000         214.000
  20837415.939   -21376920.89349 -16636841.64947  20837415.807    20837421.170
       242.000         211.000
 03  3 19  1 18  0.0000000  0  8G 3G23G31G17G14G 9G15G18
  21831201.073   -14549604.75349 -11318630.87447  21831201.094    21831208.110
       235.000         196.000
  21977968.915   -15868411.46249 -12319691.39347  21977968.389    21977975.841
       235.000         195.000
  23499004.680    -2551046.26749  -1782566.73545  23499004.068    23499012.973
       209.000         146.000
  21722196.682   -10803237.24049  -8407802.73146  21722196.706    21722204.262
       231.000         187.000
  21697179.223   -16103248.25549 -12503830.94447  21697178.906    21697185.324
       235.000         193.000
  23760520.623    -5885496.02949  -4577010.39945  23760520.614    23760529.515
       210.000         151.000
  20281383.888   -25952361.72649 -20209089.92348  20281383.181    20281390.091
       243.000         214.000
  20844231.333   -21341105.81049 -16608933.79247  20844231.139    20844236.441
       242.000         211.000
 03  3 19  1 18 30.0000000  0  8G 3G23G31G17G14G 9G15G18
  21825738.376   -14578311.23649 -11340999.53347  21825738.576    21825745.507
       236.000         196.000
  21988290.908   -15814169.49849 -12277424.93647  21988290.393    21988297.690
       235.000         195.000
  23484903.739    -2625146.11549  -1840306.79245  23484903.420    23484911.179
       209.000         148.000
  21732125.728   -10751059.59249  -8367144.83746  21732125.712    21732133.121
       229.000         187.000
  21680870.149   -16188952.60049 -12570613.47847  21680869.626    21680876.098
       236.000         193.000
  23752918.856    -5925443.25449  -4608138.02545  23752917.967    23752926.038
       210.000         152.000
  20282401.498   -25947013.80049 -20204922.68948  20282400.796    20282407.779
       244.000         214.000
  20851087.885   -21305074.26949 -16580857.26047  20851087.602    20851093.214
       242.000         212.000
 03  3 19  1 19  0.0000000  0  8G 3G23G31G17G14G 9G15G18
  21820379.995   -14606469.90349 -11362941.33047  21820380.265    21820387.457
       236.000         196.000
  21998628.460   -15759845.67349 -12235094.69147  21998628.227    21998635.100
       235.000         195.000
  23470882.156    -2698829.34349  -1897722.23045  23470881.977    23470889.979
       211.000         150.000
  21742114.597   -10698567.66149  -8326242.04746  21742114.677    21742122.053
       230.000         187.000
  21664633.048   -16274279.00349 -12637101.51047  21664632.417    21664638.490
       235.000         193.000
  23745401.499    -5964945.81249  -4638919.15345  23745400.551    23745410.067
       213.000         151.000
  20283487.280   -25941307.88849 -20200476.51148  20283486.704    20283493.561
       244.000         214.000
  20857985.529   -21268827.03349 -16552612.65347  20857985.257    20857990.774
       243.000         212.000
 03  3 19  1 19 30.0000000  0  8G 3G23G31G17G14G 9G15G18
  21815125.952   -14634080.11349 -11384455.75647  21815126.162    21815132.916
       236.000         197.000
  22008981.233   -15705441.52349 -12192701.85647  22008980.750    22008987.560
       235.000         194.000
  23456940.229    -2772094.03049  -1954811.53045  23456939.589    23456948.604
       212.000         148.000
  21752163.252   -10645761.74949  -8285094.59246  21752162.641    21752170.786
       228.000         187.000
  21648468.070   -16359225.83949 -12703293.76947  21648467.788    21648473.760
       236.000         193.000
  23737969.357    -6004001.52749  -4669352.07245  23737968.037    23737978.469
       213.000         151.000
  20284641.213   -25935243.55249 -20195751.03848  20284640.486    20284647.402
       244.000         213.000
  20864923.850   -21232365.81949 -16524201.31647  20864923.594    20864929.088
       243.000         211.000
 03  3 19  1 20  0.0000000  0  8G 3G23G31G17G14G 9G15G18
  21809976.405   -14661141.26049 -11405542.32947  21809975.968    21809983.762
       235.000         196.000
  22019348.986   -15650958.22349 -12150247.34447  22019348.892    22019355.401
       235.000         193.000
  23443078.328    -2844938.21749  -2011573.13445  23443078.325    23443086.401
       209.000         147.000
  21762271.590   -10592642.03449  -8243702.61546  21762271.433    21762279.515
       230.000         187.000
  21632375.754   -16443791.23849 -12769188.81347  21632375.138    21632381.362
       236.000         194.000
  23730622.543    -6042608.12449  -4699435.07645  23730621.563    23730632.137
       209.000         151.000
  20285863.564   -25928819.87649 -20190745.56448  20285863.129    20285869.770
       244.000         214.000
  20871902.613   -21195692.05349 -16495624.35747  20871902.433    20871907.652
       243.000         211.000
 03  3 19  1 20 30.0000000  0  8G 3G23G31G17G14G 9G15G18
  21804931.534   -14687651.88549 -11426199.91947  21804931.330    21804938.621
       236.000         196.000
  22029731.802   -15596396.11849 -12107731.42847  22029731.364    22029738.240
       234.000         193.000
  23429297.079    -2917358.78649  -2068004.67245  23429296.655    23429305.125
       210.000         147.000
  21772439.964   -10539207.43549  -8202065.28446  21772439.464    21772447.249
       230.000         186.000
  21616356.631   -16527971.92849 -12834784.08547  21616355.878    21616362.572
       236.000         194.000
  23723361.762    -6080762.67449  -4729165.81345  23723361.459    23723370.353
       210.000         152.000
  20287154.685   -25922035.22949 -20185458.82048  20287154.125    20287161.109
       244.000         214.000
  20878921.757   -21158806.29749 -16466882.21147  20878921.354    20878926.809
       242.000         211.000
 03  3 19  1 21  0.0000000  0  8G 3G23G31G17G14G 9G15G18
  21799991.478   -14713611.70649 -11446428.31947  21799991.050    21799998.546
       235.000         196.000
  22040129.307   -15541756.74749 -12065155.29847  22040129.306    22040136.387
       234.000         193.000
  23415596.641    -2989354.08049  -2124104.83745  23415596.230    23415604.281
       215.000         149.000
  21782668.120   -10485458.17049  -8160182.74646  21782667.843    21782675.748
       229.000         186.000
  21600411.025   -16611766.29949 -12900078.33147  21600411.057    21600416.928
       236.000         195.000
  23716187.657    -6118463.01649  -4758542.62345  23716187.755    23716197.104
       211.000         152.000
  20288514.471   -25914889.43549 -20179890.65948  20288514.104    20288520.579
       244.000         214.000
  20885980.890   -21121710.17349 -16437976.13947  20885980.567    20885985.883
       242.000         210.000
 03  3 19  1 21 30.0000000  0  8G 3G23G31G17G14G 9G15G18
  21795156.359   -14739020.18949 -11466227.09847  21795156.237    21795163.537
       234.000         196.000
  22050541.314   -15487041.14149 -12022519.76847  22050541.098    22050547.940
       234.000         193.000
  23401977.635    -3060921.98649  -2179871.94845  23401977.258    23401985.343
       214.000         149.000
  21792956.119   -10431394.32949  -8118055.08546  21792955.401    21792963.852
       229.000         186.000
  21584539.391   -16695172.32049 -12965069.96247  21584539.354    21584544.967
       236.000         195.000
  23709100.292    -6155706.82649  -4787563.70345  23709100.391    23709108.954
       212.000         152.000
  20289943.238   -25907381.35349 -20174040.19348  20289942.465    20289949.305
       244.000         214.000
  20893079.766   -21084405.12849 -16408907.26947  20893079.382    20893084.977
       242.000         210.000
 03  3 19  1 22  0.0000000  0  8G 3G23G31G17G14G 9G15G18
  21790426.266   -14763876.53649 -11485595.64047  21790426.262    21790433.243
       235.000         196.000
  22060967.649   -15432250.53049 -11979825.79347  22060966.741    22060973.910
       234.000         193.000
  23388440.439    -3132060.47549  -2235304.45845  23388439.620    23388448.097
       216.000         152.000
  21803304.009   -10377015.49949  -8075681.97846  21803303.607    21803311.214
       230.000         186.000
  21568742.028   -16778188.00649 -13029757.43447  21568741.911    21568747.767
       237.000         196.000
  23702100.461    -6192491.96249  -4816227.36445  23702100.387    23702108.477
       212.000         153.000
  20291441.021   -25899510.23849 -20167906.85348  20291440.648    20291446.955
       244.000         214.000
  20900218.145   -21046892.52549 -16379676.67147  20900217.770    20900223.460
       243.000         210.000
 03  3 19  1 22 30.0000000  0  8G 3G23G31G17G14G 9G15G18
  21785801.380   -14788180.32749 -11504533.61547  21785801.034    21785808.261
       235.000         196.000
  22071407.919   -15377386.13749 -11937074.31647  22071407.373    22071414.652
       233.000         192.000
  23374985.376    -3202767.42449  -2290400.70145  23374984.785    23374993.000
       216.000         153.000
  21813711.851   -10322322.07349  -8033063.73346  21813710.992    21813719.115
       229.000         186.000
  21553019.281   -16860811.31849 -13094139.15747  21553018.546    21553025.254
       236.000         196.000
  23695188.143    -6228816.12749  -4844531.82845  23695188.193    23695196.835
       210.000         153.000
  20293008.014   -25891275.52749 -20161490.19048  20293007.363    20293014.371
       243.000         214.000
  20907395.793   -21009173.77549 -16350285.42647  20907395.641    20907401.254
       243.000         210.000
 03  3 19  1 23  0.0000000  0  8G 3G23G31G17G14G 9G15G18
  21781281.978   -14811929.44449 -11523039.38847  21781281.722    21781289.246
       234.000         196.000
  22081862.239   -15322447.74449 -11894265.18547  22081862.035    22081869.034
       233.000         192.000
  23361612.881    -3273039.33949  -2345157.95045  23361612.482    23361620.385
       214.000         154.000
  21824179.747   -10267312.66349  -7990199.27646  21824179.775    21824186.474
       228.000         185.000
  21537371.826   -16943038.82649 -13158212.46447  21537371.538    21537377.601
       236.000         197.000
  23688364.071    -6264675.70149  -4872474.27745  23688363.417    23688373.215
       208.000         153.000
  20294644.651   -25882674.90649 -20154788.41048  20294644.020    20294651.012
       244.000         214.000
  20914612.712   -20971248.64149 -16320733.36947  20914612.395    20914618.096
       242.000         210.000
 03  3 19  1 23 30.0000000  0  8G 3G23G31G17G14G 9G15G18
  21776868.101   -14835124.16749 -11541113.16247  21776867.968    21776875.518
       234.000         196.000
  22092330.389   -15267437.22949 -11851399.84547  22092329.918    22092337.037
       233.000         192.000
  23348323.443    -3342875.03649  -2399575.28545  23348323.522    23348330.460
       212.000         154.000
  21834707.771   -10211987.82349  -7947089.01946  21834707.377    21834715.089
       229.000         184.000
  21521799.938   -17024869.24249 -13221976.34947  21521799.538    21521805.385
       237.000         197.000
  23681628.805    -6300069.09549  -4900053.46545  23681628.730    23681637.831
       212.000         153.000
  20296350.898   -25873708.45549 -20147801.56448  20296350.379    20296357.222
       244.000         214.000
  20921868.461   -20933119.20549 -16291022.11047  20921868.092    20921873.607
       242.000         210.000
 03  3 19  1 24  0.0000000  0  8G 3G23G31G17G14G 9G15G18
  21772559.884   -14857763.87349 -11558754.46147  21772559.800    21772567.086
       235.000         196.000
  22102812.108   -15212355.42849 -11808478.95147  22102811.772    22102818.887
       234.000         192.000
  23335117.649    -3412272.25049  -2453650.97145  23335117.304    23335124.641
       212.000         155.000
  21845295.695   -10156347.27849  -7903732.76946  21845295.417    21845303.504
       229.000         184.000
  21506304.078   -17106300.36749 -13285429.08847  21506303.566    21506309.932
       237.000         198.000
  23674982.614    -6334994.29249  -4927267.81745  23674982.541    23674992.189
       213.000         154.000
  20298126.962   -25864375.11749 -20140528.82048  20298126.559    20298132.969
       244.000         213.000
  20929162.827   -20894786.81949 -16261152.70547  20929162.462    20929168.173
       242.000         209.000
 03  3 19  1 24 30.0000000  0  8G 3G23G31G17G14G 9G15G18
  21768357.430   -14879847.58949 -11575962.53147  21768357.100    21768364.629
       235.000         196.000
  22113307.279   -15157203.29049 -11765503.26047  22113306.666    22113314.095
       233.000         192.000
  23321995.541    -3481228.72049  -2507383.19845  23321994.609    23322002.818
       213.000         155.000
  21855943.774   -10100391.24949  -7860130.67646  21855943.325    21855951.217
       228.000         184.000
  21490884.591   -17187329.97849 -13348568.96847  21490884.131    21490890.431
       238.000         198.000
  23668426.126    -6369448.66149  -4954115.27945  23668426.679    23668435.291
       214.000         155.000
  20299973.024   -25854673.85549 -20132969.39048  20299972.352    20299978.978
       243.000         213.000
  20936495.621   -20856252.49949 -16231125.95447  20936495.356    20936501.174
       242.000         209.000
 03  3 19  1 25  0.0000000  0  8G 3G23G31G17G14G 9G15G18
  21764260.901   -14901374.93649 -11592737.06947  21764260.796    21764268.042
       234.000         196.000
  22123815.544   -15101981.86149 -11722473.57947  22123815.112    22123822.262
       233.000         191.000
  23308957.742    -3549742.14349  -2560770.20945  23308957.534    23308965.699
       211.000         157.000
  21866651.983   -10044119.35149  -7816282.46046  21866651.432    21866659.725
       228.000         185.000
  21475541.950   -17267955.97149 -13411394.33947  21475541.142    21475547.571
       237.000         198.000
  23661959.739    -6403429.79749  -4980593.99245  23661960.576    23661968.150
       214.000         155.000
  20301889.303   -25844603.76049 -20125122.55548  20301888.655    20301895.274
       243.000         213.000
  20943866.784   -20817517.18649 -16200942.58247  20943866.503    20943872.114
       243.000         210.000
 03  3 19  1 25 30.0000000  0  8G 3G23G31G17G14G 9G15G18
  21760270.534   -14922344.25449 -11609076.77847  21760270.438    21760277.839
       235.000         197.000
  22134337.101   -15046690.99649 -11679389.78747  22134336.778    22134343.844
       233.000         191.000
  23296004.892    -3617809.45449  -2613809.60545  23296005.151    23296012.320
       215.000         159.000
  21877420.558    -9987530.39849  -7772187.18746  21877420.157    21877428.040
       228.000         184.000
  21460276.585   -17348175.29849 -13473902.82647  21460276.370    21460282.347
       238.000         198.000
  23655584.056    -6436934.73749  -5006701.62845  23655583.720    23655592.139
       216.000         155.000
  20303876.122   -25834162.83049 -20116986.76448  20303875.589    20303882.116
       244.000         213.000
  20951276.073   -20778581.33949 -16170602.95047  20951276.053    20951281.478
       243.000         210.000
 03  3 19  1 26  0.0000000  0  8G 3G23G31G17G14G 9G15G18
  21756386.264   -14942756.39349 -11624982.32347  21756386.177    21756393.671
       235.000         197.000
  22144871.302   -14991333.20649 -11636253.85847  22144870.525    22144878.402
       233.000         190.000
  23283137.159    -3685430.11149  -2666500.96145  23283137.070    23283145.046
       217.000         162.000
  21888249.056    -9930626.16049  -7727846.23146  21888248.511    21888256.567
       229.000         184.000
  21445088.795   -17427987.49449 -13536094.06947  21445088.644    21445094.229
       239.000         198.000
  23649299.008    -6469962.66049  -5032437.57945  23649298.152    23649308.030
       214.000         155.000
  20305933.341   -25823352.01349 -20108562.74748  20305932.795    20305939.750
       243.000         213.000
  20958722.964   -20739447.66349 -16140109.16547  20958722.688    20958728.263
       242.000         210.000
 03  3 19  1 26 30.0000000  0  8G 3G23G31G17G14G 9G15G18
  21752608.138   -14962610.38549 -11640452.95047  21752608.103    21752615.513
       236.000         197.000
  22155418.086   -14935909.02649 -11593066.19247  22155417.554    22155424.621
       233.000         190.000
  23270354.795    -3752601.45549  -2718842.19746  23270354.399    23270362.598
       215.000         163.000
  21899137.755    -9873405.76649  -7683258.93546  21899137.393    21899145.446
       228.000         184.000
  21429979.000   -17507389.96449 -13597966.03847  21429978.744    21429984.717
       238.000         199.000
  23643105.045    -6502510.86749  -5057799.72545  23643105.489    23643114.115
       213.000         154.000
  20308061.292   -25812169.70149 -20099849.25348  20308061.112    20308067.774
       244.000         213.000
  20966207.349   -20700116.62649 -16109461.59147  20966207.007    20966212.641
       242.000         209.000
 03  3 19  1 27  0.0000000  0  8G 3G23G31G17G14G 9G15G18
  21748936.503   -14981905.29149 -11655487.93547  21748936.365    21748943.476
       236.000         198.000
  22165977.464   -14880419.14649 -11549827.34047  22165977.233    22165984.585
       233.000         190.000
  23257658.291    -3819321.14649  -2770831.50145  23257657.679    23257665.695
       215.000         162.000
  21910086.652    -9815869.28249  -7638425.33246  21910086.083    21910094.845
       228.000         184.000
  21414947.575   -17586380.16849 -13659516.76647  21414947.151    21414953.387
       238.000         200.000
  23637003.055    -6534576.92949  -5082786.18245  23637002.734    23637011.192
       213.000         153.000
  20310260.152   -25800614.83749 -20090845.45448  20310259.670    20310266.354
       244.000         213.000
  20973729.089   -20660589.32549 -16078661.08647  20973728.920    20973734.455
       242.000         209.000
 03  3 19  1 27 30.0000000  0  8G 3G23G31G17G14G 9G15G18
  21745371.191   -15000641.25349 -11670087.37047  21745370.903    21745378.724
       236.000         198.000
  22176549.156   -14824864.96549 -11506538.37447  22176549.025    22176555.881
       234.000         190.000
  23245048.198    -3885587.58349  -2822467.61245  23245047.748    23245055.972
       212.000         162.000
  21921095.538    -9758017.07349  -7593345.71846  21921095.092    21921103.255
       226.000         183.000
  21399994.932   -17664956.61049 -13720745.08647  21399994.432    21400000.813
       239.000         200.000
  23630993.097    -6566159.12349  -5107395.57145  23630992.854    23631002.758
       212.000         153.000
  20312529.944   -25788686.94049 -20081550.97048  20312529.458    20312536.052
       244.000         213.000
  20981287.878   -20620867.45049 -16047708.96547  20981287.647    20981292.846
       242.000         208.000
 03  3 19  1 28  0.0000000  0  8G 3G23G31G17G14G 9G15G18
  21741912.352   -15018817.01849 -11684250.28547  21741912.107    21741919.505
       235.000         198.000
  22187133.094   -14769246.40749 -11463199.24547  22187132.987    22187139.823
       233.000         191.000
  23232524.884    -3951397.62949  -2873748.09245  23232525.297    23232532.358
       212.000         160.000
  21932164.656    -9699847.60949  -7548018.87246  21932164.838    21932172.003
       227.000         182.000
  21385121.536   -17743116.36449 -13781648.71147  21385121.099    21385126.937
       239.000         200.000
  23625075.739    -6597254.32949  -5131625.52345  23625076.450    23625084.396
       212.000         153.000
  20314871.093   -25776384.12049 -20071964.34348  20314870.508    20314877.265
       244.000         213.000
  20988883.725   -20580951.09249 -16016605.30047  20988883.518    20988888.937
       243.000         208.000
 03  3 19  1 28 30.0000000  0  8G 3G23G31G17G14G 9G15G18
  21738560.226   -15036432.51349 -11697976.63647  21738560.068    21738567.352
       234.000         197.000
  22197728.974   -14713564.92249 -11419811.08347  22197728.582    22197736.048
       232.000         190.000
  23220088.730    -4016749.85349  -2924671.83745  23220088.287    23220096.493
       216.000         161.000
  21943294.343    -9641361.04649  -7502444.94746  21943294.094    21943301.709
       227.000         182.000
  21370327.718   -17820857.94249 -13842226.48747  21370327.360    21370333.244
       238.000         200.000
  23619251.427    -6627860.84649  -5155474.64845  23619251.273    23619260.791
       215.000         154.000
  20317283.573   -25763706.21549 -20062085.44648  20317283.088    20317289.877
       243.000         213.000
  20996516.211   -20540842.06949 -15985351.51247  20996515.934    20996521.326
       242.000         208.000
 03  3 19  1 29  0.0000000  0  8G 3G23G31G17G14G 9G15G18
  21735314.622   -15053488.08449 -11711266.67847  21735314.305    21735321.708
       235.000         197.000
  22208336.511   -14657822.08749 -11376375.11047  22208336.379    22208343.242
       234.000         190.000
  23207740.027    -4081642.81349  -2975237.69945  23207740.196    23207748.031
       215.000         162.000
  21954484.053    -9582558.73749  -7456624.98446  21954483.757    21954491.773
       227.000         183.000
  21355613.760   -17898180.10849 -13902477.44747  21355613.277    21355619.440
       238.000         200.000
  23613520.460    -6657977.23649  -5178941.87545  23613520.530    23613528.895
       216.000         155.000
  20319767.505   -25750653.15849 -20051914.22148  20319766.958    20319773.769
       244.000         213.000
  21004185.045   -20500541.97649 -15953948.83447  21004184.656    21004190.263
       242.000         208.000
 03  3 19  1 29 30.0000000  0  8G 3G23G31G17G14G 9G15G18
  21732175.789   -15069982.41949 -11724119.38947  21732175.838    21732182.978
       235.000         197.000
  22218955.768   -14602017.85549 -11332891.30347  22218955.387    22218962.457
       233.000         190.000
  23195479.333    -4146073.52449  -3025443.37345  23195479.164    23195486.489
       215.000         162.000
  21965734.034    -9523439.91049  -7410558.39146  21965733.559    21965742.054
       226.000         183.000
  21340980.164   -17975079.94249 -13962399.31747  21340979.447    21340985.926
       237.000         201.000
  23607883.403    -6687600.54149  -5202024.89045  23607883.982    23607892.114
       216.000         155.000
  20322323.137   -25737223.23349 -20041449.33648  20322322.629    20322329.227
       244.000         214.000
  21011890.216   -20460051.02149 -15922397.43547  21011889.981    21011895.220
       242.000         208.000
 03  3 19  1 30  0.0000000  0  8G 3G23G31G17G14G 9G15G18
  21729143.855   -15085915.62349 -11736534.85147  21729144.007    21729150.900
       237.000         198.000
  22229586.328   -14546153.69949 -11289360.79147  22229585.758    22229593.071
       231.000         190.000
  23183306.807    -4210040.64249  -3075287.79445  23183306.121    23183313.413
       214.000         161.000
  21977044.144    -9464004.56149  -7364245.14146  21977043.769    21977051.629
       226.000         182.000
  21326427.226   -18051555.85049 -14021990.85247  21326426.712    21326432.826
       239.000         201.000
  23602340.395    -6716729.23249  -5224722.48145  23602339.950    23602348.838
       214.000         155.000
  20324950.551   -25723416.12349 -20030690.54648  20324949.920    20324956.714
       244.000         214.000
  21019631.305   -20419371.19949 -15890698.86547  21019631.132    21019636.564
       243.000         208.000
 03  3 19  1 30 30.0000000  0  8G 3G23G31G17G14G 9G15G18
  21726218.879   -15101286.50949 -11748512.14247  21726218.452    21726226.034
       236.000         198.000
  22240228.140   -14490229.79849 -11245783.72647  22240227.461    22240234.508
       231.000         189.000
  23171223.020    -4273541.36549  -3124768.81045  23171223.226    23171229.556
       216.000         160.000
  21988414.596    -9404252.20649  -7317684.88546  21988414.747    21988422.068
       227.000         182.000
  21311955.417   -18127605.25849 -14081250.05947  21311955.071    21311961.123
       239.000         202.000
  23596891.887    -6745360.49249  -5247032.47845  23596891.822    23596899.862
       213.000         155.000
  20327650.020   -25709230.31849 -20019636.66748  20327649.581    20327656.116
       244.000         214.000
  21027408.392   -20378502.44649 -15858853.08047  21027408.378    21027413.743
       243.000         208.000
 03  3 19  1 31  0.0000000  0  8G 3G23G31G17G14G 9G15G18
  21723400.832   -15116094.93149 -11760051.14647  21723400.373    21723408.211
       235.000         197.000
  22250881.259   -14434247.21449 -11202160.93147  22250881.036    22250887.861
       232.000         189.000
  23159228.316    -4336573.95249  -3173885.03045  23159227.600    23159235.049
       218.000         161.000
  21999845.355    -9344183.53549  -7270878.15146  21999845.504    21999853.323
       227.000         182.000
  21297565.118   -18203226.57049 -14140175.67547  21297564.973    21297570.610
       240.000         202.000
  23591538.413    -6773492.48349  -5268953.42245  23591537.828    23591546.632
       215.000         155.000
  20330421.708   -25694665.06849 -20008287.11048  20330421.132    20330427.789
       244.000         214.000
  21035221.078   -20337446.63649 -15826861.53547  21035220.820    21035226.453
       243.000         208.000
 03  3 19  1 31 30.0000000  0  8G 3G23G31G17G14G 9G15G18
  21720690.014   -15130340.38849 -11771151.47947  21720689.859    21720697.182
       237.000         197.000
  22261545.468   -14378206.75349 -11158493.04547  22261545.193    22261552.273
       231.000         189.000
  23147323.049    -4399136.42149  -3222634.91245  23147322.032    23147330.520
       216.000         161.000
  22011336.448    -9283797.90149  -7223824.43446  22011335.799    22011344.788
       226.000         182.000
  21283256.680   -18278417.72149 -14198766.11147  21283256.238    21283261.920
       239.000         202.000
  23586280.375    -6801123.01749  -5290483.64645  23586281.177    23586289.970
       215.000         154.000
  20333265.735   -25679719.38749 -19996641.12048  20333265.203    20333271.937
       244.000         213.000
  21043069.105   -20296204.81149 -15794725.03547  21043068.877    21043074.694
       243.000         208.000
 03  3 19  1 32  0.0000000  0  8G 3G23G31G17G14G 9G15G18
  21718086.187   -15144023.46849 -11781813.59947  21718086.252    21718093.015
       236.000         197.000
  22272220.297   -14322109.88349 -11114781.20447  22272219.573    22272226.963
       231.000         188.000
  23135507.522    -4461227.21749  -3271017.24845  23135507.182    23135514.480
       218.000         161.000
  22022887.696    -9223095.94549  -7176524.23346  22022887.342    22022895.823
       227.000         182.000
  21269030.361   -18353177.16649 -14257020.14947  21269029.947    21269035.716
       238.000         202.000
  23581118.301    -6828250.66149  -5311621.98945  23581118.182    23581127.772
       214.000         156.000
  20336182.242   -25664393.05349 -19984698.52148  20336181.734    20336188.474
       244.000         213.000
  21050952.352   -20254778.17649 -15762444.52947  21050952.009    21050957.616
       242.000         209.000
 03  3 19  1 32 30.0000000  0  8G 3G23G31G17G14G 9G15G18
  21715589.590   -15157143.17649 -11792036.71047  21715589.670    21715596.502
       236.000         198.000
  22282905.873   -14265956.65949 -11071025.44547  22282906.035    22282912.426
       232.000         188.000
  23123782.223    -4522843.90549  -3319030.15845  23123782.928    23123788.991
       217.000         162.000
  22034499.131    -9162077.25749  -7128977.21946  22034498.124    22034506.787
       226.000         181.000
  21254886.637   -18427502.53449 -14314935.94547  21254886.308    21254891.840
       240.000         202.000
  23576052.289    -6854872.80649  -5332366.44545  23576052.948    23576060.626
       212.000         156.000
  20339171.412   -25648684.80149 -19972458.32348  20339170.905    20339177.470
       244.000         213.000
  21058870.648   -20213167.31249 -15730020.47347  21058870.577    21058876.088
       243.000         209.000
 03  3 19  1 33  0.0000000  0  8G 3G23G31G17G14G 9G15G18
  21713200.235   -15169699.50849 -11801820.83547  21713200.204    21713207.262
       236.000         198.000
  22293602.055   -14209748.15049 -11027226.60447  22293601.791    22293609.293
       232.000         189.000
  23112147.482    -4583984.56449  -3366672.14046  23112146.904    23112154.549
       217.000         163.000
  22046170.779    -9100741.80549  -7081183.37846  22046170.604    22046178.854
       225.000         180.000
  21240825.891   -18501391.99449 -14372512.07647  21240825.562    21240831.360
       239.000         202.000
  23571082.839    -6880987.71149  -5352715.62645  23571083.498    23571091.199
       216.000         157.000
  20342233.288   -25632594.27349 -19959920.23748  20342232.655    20342239.588
       244.000         213.000
  21066823.697   -20171373.71849 -15697454.03147  21066823.651    21066829.352
       242.000         209.000
 03  3 19  1 33 30.0000000  0  8G 3G23G31G17G14G 9G15G18
  21710918.108   -15181692.22049 -11811165.76647  21710917.914    21710925.282
       236.000         198.000
  22304308.550   -14153485.26849 -10983385.40247  22304308.189    22304315.100
       232.000         189.000
  23100603.687    -4644647.39949  -3413941.79546  23100602.496    23100610.598
       219.000         163.000
  22057902.791    -9039090.00349  -7033143.03546  22057902.772    22057911.075
       227.000         180.000
  21226848.403   -18574843.82949 -14429747.19947  21226848.069    21226853.808
       239.000         203.000
  23566210.070    -6906593.45849  -5372668.08245  23566210.132    23566218.374
       214.000         155.000
  20345368.064   -25616120.56449 -19947083.57348  20345367.435    20345374.221
       243.000         213.000
  21074811.355   -20129398.42549 -15664746.00847  21074811.112    21074816.571
       243.000         208.000
 03  3 19  1 34  0.0000000  0  8G 3G23G31G17G14G 9G15G18
  21708743.309   -15193120.77649 -11820071.10347  21708743.190    21708750.169
       237.000         198.000
  22315025.319   -14097168.64449 -10939502.31347  22315025.319    22315031.609
       232.000         189.000
  23089151.162    -4704830.21349  -3460837.42546  23089150.034    23089158.322
       216.000         163.000
  22069695.129    -8977121.33449  -6984855.80246  22069695.438    22069702.258
       226.000         179.000
  21212954.662   -18647855.99749 -14486639.72547  21212954.067    21212960.000
       239.000         203.000
  23561434.684    -6931687.90649  -5392222.12845  23561433.509    23561442.742
       211.000         155.000
  20348575.987   -25599262.55449 -19933947.45048  20348575.484    20348582.125
       244.000         213.000
  21082833.357   -20087242.46349 -15631897.19847  21082832.928    21082838.460
       242.000         208.000
 03  3 19  1 34 30.0000000  0  8G 3G23G31G17G14G 9G15G18
  21706675.964   -15203985.11349 -11828536.79947  21706675.941    21706682.523
       237.000         198.000
  22325752.099   -14040799.22449 -10895578.08747  22325751.474    22325758.725
       232.000         188.000
  23077790.283    -4764531.40749  -3507357.76446  23077789.459    23077797.324
       218.000         164.000
  22081547.688    -8914836.19049  -6936321.93346  22081547.493    22081554.982
       225.000         179.000
  21199144.800   -18720426.63149 -14543188.19547  21199144.308    21199150.311
       239.000         203.000
  23556756.797    -6956269.29949  -5411376.37245  23556756.657    23556764.870
       214.000         155.000
  20351857.243   -25582019.60049 -19920511.37448  20351856.473    20351863.563
       243.000         213.000
  21090889.541   -20044906.96349 -15598908.48947  21090889.371    21090894.441
       242.000         207.000
 03  3 19  1 35  0.0000000  0  8G 3G23G31G17G14G 9G15G18
  21704716.007   -15214284.69849 -11836562.41847  21704715.808    21704722.810
       235.000         198.000
  22336488.795   -13984377.16049 -10851612.82947  22336488.271    22336495.637
       231.000         188.000
  23066521.466    -4823748.40549  -3553500.81046  23066521.040    23066528.310
       219.000         166.000
  22093460.479    -8852233.93349  -6887540.96646  22093460.256    22093468.020
       224.000         178.000
  21185419.450   -18792553.23649 -14599390.67647  21185418.820    21185424.948
       239.000         203.000
  23552177.097    -6980335.22549  -5430128.95645  23552175.738    23552185.514
       213.000         155.000
  20355211.978   -25564390.49949 -19906774.41048  20355211.660    20355218.022
       244.000         213.000
  21098979.781   -20002392.14349 -15565780.05047  21098979.391    21098984.808
       241.000         207.000
 03  3 19  1 35 30.0000000  0  8G 3G23G31G17G14G 9G15G18
  21702863.456   -15224019.75049 -11844148.13147  21702863.210    21702870.012
       236.000         198.000
  22347235.246   -13927903.77349 -10807607.59346  22347234.751    22347242.463
       231.000         187.000
  23055345.141    -4882479.88749  -3599265.52946  23055345.347    23055351.882
       219.000         167.000
  22105433.399    -8789315.27149  -6838513.47146  22105432.767    22105440.841
       225.000         177.000
  21171778.852   -18864234.80949 -14655246.37847  21171778.443    21171784.126
       239.000         204.000
  23547695.786    -7003884.24749  -5448478.77545  23547696.089    23547704.711
       215.000         156.000
  20358640.225   -25546375.00549 -19892736.35248  20358639.727    20358646.350
       243.000         213.000
  21107103.869   -19959699.63349 -15532513.14747  21107103.346    21107108.787
       242.000         207.000
 03  3 19  1 36  0.0000000  0  8G 3G23G31G17G14G 9G15G18
  21701118.230   -15233190.27749 -11851293.97447  21701117.909    21701125.100
       235.000         198.000
  22357991.282   -13871379.96349 -10763563.06946  22357991.155    22357998.050
       232.000         187.000
  23044261.577    -4940724.14449  -3644650.60146  23044261.420    23044269.327
       221.000         169.000
  22117466.521    -8726080.71049  -6789239.80546  22117466.527    22117474.407
       223.000         177.000
  21158223.223   -18935469.55949 -14710753.90847  21158222.847    21158228.802
       239.000         204.000
  23543313.335    -7026914.78849  -5466424.56145  23543313.123    23543322.339
       217.000         158.000
  20362142.033   -25527972.48449 -19878396.71047  20362141.483    20362147.969
       243.000         212.000
  21115261.451   -19916831.02949 -15499109.03047  21115261.239    21115266.777
       243.000         207.000
 03  3 19  1 36 30.0000000  0  8G 3G23G31G17G14G 9G15G18
  21699480.453   -15241796.62849 -11858000.18947  21699480.352    21699487.623
       236.000         197.000
  22368756.780   -13814806.74149 -10719480.02146  22368756.162    22368763.317
       232.000         186.000
  23033271.049    -4998479.66649  -3689654.84646  23033271.028    23033277.858
       218.000         170.000
  22129559.748    -8662530.17049  -6739719.92246  22129559.855    22129567.742
       223.000         177.000
  21144753.001   -19006256.00349 -14765912.10047  21144752.692    21144758.525
       240.000         204.000
  23539029.687    -7049425.16949  -5483965.01745  23539029.329    23539037.845
       215.000         158.000
  20365717.626   -25509182.42649 -19863755.08147  20365717.197    20365723.690
       243.000         212.000
  21123452.424   -19873787.37649 -15465568.50947  21123452.078    21123457.496
       242.000         207.000
 03  3 19  1 37  0.0000000  0  8G 3G23G31G17G14G 9G15G18
  21697950.138   -15249838.38449 -11864266.47047  21697949.852    21697956.997
       235.000         198.000
  22379531.632   -13758184.42149 -10675358.74346  22379531.243    22379538.975
       232.000         186.000
  23022374.031    -5055743.97649  -3734276.32846  23022373.752    23022381.305
       220.000         170.000
  22141713.231    -8598663.21749  -6689953.50546  22141713.201    22141721.505
       226.000         177.000
  21131368.504   -19076591.77449 -14820719.12547  21131368.098    21131374.088
       240.000         205.000
  23534845.462    -7071413.00149  -5501098.30345  23534845.036    23534854.166
       217.000         157.000
  20369367.211   -25490003.60049 -19848810.51947  20369366.721    20369373.518
       244.000         212.000
  21131676.609   -19830569.12649 -15431891.94847  21131676.285    21131681.562
       242.000         207.000
 03  3 19  1 37 30.0000000  0  8G 3G23G31G17G14G 9G15G18
  21696527.238   -15257315.66449 -11870092.89247  21696526.887    21696534.109
       236.000         198.000
  22390315.699   -13701513.97549 -10631199.94946  22390315.887    22390322.514
       232.000         187.000
  23011570.723    -5112515.50349  -3778513.80546  23011569.832    23011577.603
       218.000         169.000
  22153926.907    -8534480.25649  -6639940.82646  22153926.536    22153934.773
       223.000         177.000
  21118070.035   -19146475.19749 -14875173.66547  21118069.545    21118075.490
       240.000         205.000
  23530760.847    -7092876.62249  -5517823.10745  23530760.933    23530768.794
       215.000         156.000
  20373090.881   -25470435.53449 -19833562.64848  20373090.293    20373096.903
       243.000         213.000
  21139933.741   -19787177.45749 -15398080.24847  21139933.379    21139938.759
       241.000         206.000
 03  3 19  1 38  0.0000000  0  8G 3G23G31G17G14G 9G15G18
  21695211.879   -15264227.79049 -11875478.94247  21695211.638    21695218.772
       236.000         198.000
  22401108.853   -13644795.73449 -10587003.92946  22401108.955    22401115.461
       232.000         187.000
  23000861.576    -5168792.12649  -3822365.65246  23000860.975    23000868.275
       219.000         170.000
  22166200.580    -8469981.42549  -6589682.01246  22166200.099    22166208.762
       222.000         177.000
  21104858.018   -19215904.47549 -14929274.33347  21104857.691    21104863.529
       240.000         205.000
  23526776.444    -7113814.12349  -5534137.95045  23526775.882    23526784.272
       213.000         156.000
  20376888.827   -25450477.23849 -19818010.70848  20376888.364    20376895.221
       243.000         213.000
  21148223.626   -19743613.29649 -15364134.14447  21148223.030    21148229.060
       241.000         206.000
 03  3 19  1 38 30.0000000  0  8G 3G23G31G17G14G 9G15G18
  21694004.001   -15270575.00749 -11880424.80347  21694003.834    21694010.910
       236.000         198.000
  22411911.044   -13588030.34649 -10542771.16646  22411910.927    22411917.750
       233.000         187.000
  22990246.989    -5224572.00049  -3865830.42246  22990246.943    22990254.320
       218.000         171.000
  22178534.429    -8405166.78649  -6539177.13346  22178533.980    22178542.610
       223.000         177.000
  21091732.789   -19284877.66349 -14983019.60547  21091732.238    21091738.170
       241.000         205.000
  23522892.496    -7134223.74949  -5550041.47145  23522892.251    23522901.109
       217.000         157.000
  20380761.184   -25430127.86649 -19802154.03348  20380760.723    20380767.365
       244.000         213.000
  21156546.153   -19699877.62449 -15330054.39447  21156545.808    21156551.603
       241.000         205.000
 03  3 19  1 39  0.0000000  0  8G 3G23G31G17G14G 9G15G18
  21692903.480   -15276358.08449 -11884931.07947  21692902.996    21692910.335
       236.000         198.000
  22422721.832   -13531219.32749 -10498502.84046  22422721.323    22422728.831
       231.000         187.000
  22979727.113    -5279854.23549  -3908907.41546  22979726.386    22979734.704
       218.000         171.000
  22190928.242    -8340037.21249  -6488426.84146  22190927.670    22190936.032
       223.000         176.000
  21078694.534   -19353393.88349 -15036408.80047  21078693.874    21078700.159
       241.000         205.000
  23519109.244    -7154104.65449  -5565533.00945  23519109.170    23519117.249
       218.000         158.000
  20384707.928   -25409387.51549 -19785992.69348  20384707.551    20384713.947
       244.000         213.000
  21164901.074   -19655972.10049 -15295842.28347  21164900.784    21164906.359
       240.000         205.000
 03  3 19  1 39 30.0000000  0  8G 3G23G31G17G14G 9G15G18
  21691910.363   -15281576.48649 -11888997.35647  21691910.173    21691917.351
       236.000         198.000
  22433541.254   -13474362.65749 -10454198.93446  22433540.893    22433548.001
       232.000         186.000
  22969302.450    -5334636.34449  -3951594.69446  22969301.943    22969309.237
       217.000         171.000
  22203382.076    -8274591.84149  -6437430.47746  22203381.919    22203390.274
       224.000         175.000
  21065743.672   -19421450.74849 -15089440.05447  21065743.169    21065748.901
       241.000         206.000
  23515427.337    -7173454.05849  -5580610.37945  23515427.508    23515436.394
       218.000         159.000
  20388729.349   -25388254.78449 -19769525.61048  20388728.757    20388735.534
       243.000         213.000
  21173288.231   -19611897.20449 -15261498.19847  21173287.988    21173293.446
       240.000         206.000
 03  3 19  1 40  0.0000000  0  8G 3G23G31G17G14G 9G15G18
  21691024.696   -15286230.41849 -11892623.78247  21691024.616    21691031.401
       237.000         197.000
  22444369.160   -13417461.43949 -10409860.33146  22444368.827    22444376.173
       232.000         186.000
  22958973.132    -5388916.96549  -3993891.19446  22958972.714    22958980.394
       218.000         171.000
  22215895.836    -8208831.75849  -6386188.89146  22215895.675    22215903.697
       223.000         175.000
  21052880.516   -19489046.77649 -15142112.22147  21052880.124    21052886.081
       241.000         206.000
  23511846.561    -7192270.94749  -5595272.80245  23511846.727    23511854.414
       218.000         158.000
  20392825.445   -25366729.33949 -19752752.50647  20392824.911    20392831.369
       244.000         212.000
  21181707.401   -19567654.18949 -15227023.11447  21181707.299    21181712.640
       241.000         206.000
 03  3 19  1 40 30.0000000  0  8G 3G23G31G17G14G 9G15G18
  21690246.552   -15290319.65849 -11895810.19247  21690246.385    21690253.641
       236.000         198.000
  22455205.467   -13360515.86349 -10365487.15646  22455204.975    22455212.101
       230.000         185.000
  22948739.699    -5442694.09849  -4035795.37946  22948739.478    22948746.742
       219.000         172.000
  22228469.525    -8142756.39549  -6334701.60946  22228469.661    22228477.484
       223.000         174.000
  21040105.420   -19556180.00349 -15194423.76647  21040105.158    21040110.758
       241.000         206.000
  23508367.540    -7210553.18149  -5609518.61545  23508366.646    23508375.810
       213.000         157.000
  20396996.467   -25344810.46849 -19735672.83647  20396995.894    20397002.222
       243.000         212.000
  21190158.556   -19523243.44049 -15192417.33947  21190158.538    21190163.626
       241.000         206.000
 03  3 19  1 41  0.0000000  0  8G 3G23G31G17G14G 9G15G18
  21689575.822   -15293844.22149 -11898556.59147  21689575.779    21689582.660
       236.000         198.000
  22466050.094   -13303526.64849 -10321079.97746  22466049.188    22466057.039
       231.000         184.000
  22938602.427    -5495965.85949  -4077305.78546  22938601.337    22938609.890
       218.000         171.000
  22241103.308    -8076365.53149  -6282968.49246  22241102.975    22241111.685
       223.000         174.000
  21027418.742   -19622848.80749 -15246373.42147  21027418.301    21027424.094
       241.000         207.000
  23504990.409    -7228298.97049  -5623346.39345  23504989.874    23504998.975
       216.000         157.000
  20401242.533   -25322497.28249 -19718285.92347  20401242.184    20401248.574
       244.000         212.000
  21198641.379   -19478666.02649 -15157681.68947  21198641.196    21198646.414
       241.000         206.000
 03  3 19  1 41 30.0000000  0  8G 3G23G31G17G14G 9G15G18
  21689012.479   -15296804.56049 -11900863.33747  21689012.529    21689019.586
       237.000         198.000
  22476902.851   -13246494.96049 -10276639.70046  22476902.784    22476909.953
       231.000         184.000
  22928561.392    -5548731.21049  -4118421.57946  22928560.748    22928567.560
       222.000         171.000
  22253797.004    -8009660.22649  -6230990.35746  22253796.967    22253804.209
       223.000         175.000
  21014820.620   -19689051.98149 -15297960.24947  21014820.273    21014826.215
       242.000         207.000
  23501715.780    -7245507.46449  -5636755.50045  23501716.021    23501723.011
       216.000         157.000
  20405563.645   -25299789.52349 -19700591.54847  20405562.853    20405569.766
       243.000         212.000
  21207155.589   -19433923.40849 -15122817.30947  21207155.362    21207160.951
       240.000         206.000
 03  3 19  1 42  0.0000000  0  8G 3G23G31G17G14G 9G15G18
  21688556.501   -15299200.94849 -11902730.63847  21688556.065    21688563.304
       236.000         198.000
  22487763.582   -13189421.41649 -10232166.81146  22487762.976    22487770.011
       230.000         184.000
  22918617.109    -5600988.40849  -4159141.41946  22918616.452    22918624.441
       219.000         170.000
  22266550.439    -7942640.59449  -6178767.29846  22266550.228    22266558.349
       223.000         174.000
  21002311.459   -19754787.92549 -15349182.99247  21002311.103    21002316.822
       241.000         207.000
  23498543.573    -7262176.93649  -5649744.62145  23498543.407    23498551.332
       216.000         156.000
  20409959.919   -25276686.55649 -19682589.21747  20409959.189    20409965.908
       243.000         212.000
  21215701.103   -19389016.54549 -15087824.94247  21215700.976    21215706.214
       241.000         206.000
 03  3 19  1 42 30.0000000  0  8G 3G23G31G17G14G 9G15G18
  21688207.792   -15301033.35849 -11904158.48347  21688207.886    21688214.902
       236.000         198.000
  22498632.187   -13132306.54849 -10187661.72246  22498632.251    22498638.381
       231.000         184.000
  22908769.875    -5652735.59149  -4199463.84546  22908769.799    22908776.952
       221.000         170.000
  22279363.677    -7875306.67649  -6126299.34546  22279363.178    22279371.588
       222.000         173.000
  20989891.576   -19820054.88849 -15400040.29947  20989891.331    20989896.577
       242.000         207.000
  23495474.257    -7278305.56349  -5662312.28845  23495473.862    23495481.718
       213.000         156.000
  20414431.566   -25253187.72549 -19664278.42447  20414431.043    20414437.697
       243.000         212.000
  21224277.641   -19343946.30449 -15052705.27247  21224277.379    21224282.839
       240.000         206.000
 03  3 19  1 43  0.0000000  0  8G 3G23G31G17G14G 9G15G18
  21687966.362   -15302302.19849 -11905147.17847  21687966.613    21687973.278
       237.000         198.000
  22509508.614   -13075150.75849 -10143124.74046  22509508.452    22509516.407
       231.000         184.000
  22899020.102    -5703970.88449  -4239387.39546  22899019.469    22899026.547
       220.000         170.000
  22292236.617    -7807658.52349  -6073586.53546  22292235.516    22292244.813
       220.000         172.000
  20977561.281   -19884850.82149 -15450530.57647  20977560.747    20977566.370
       242.000         207.000
  23492508.118    -7293891.74049  -5674457.29245  23492507.326    23492515.633
       214.000         155.000
  20418978.758   -25229292.01549 -19645658.38047  20418978.295    20418984.597
       243.000         212.000
  21232885.152   -19298713.39649 -15017458.85247  21232884.840    21232890.517
       241.000         206.000
 03  3 19  1 43 30.0000000  0  8G 3G23G31G17G14G 9G15G18
  21687832.242   -15303007.50649 -11905696.74847  21687832.426    21687838.959
       237.000         198.000
  22520392.717   -13017954.65149 -10098556.33546  22520392.866    22520399.580
       232.000         185.000
  22889367.984    -5754692.67349  -4278910.80446  22889367.800    22889374.925
       223.000         171.000
  22305169.255    -7739696.20549  -6020628.90446  22305169.403    22305176.291
       222.000         172.000
  20965320.885   -19949174.34249 -15500652.73647  20965320.461    20965326.023
       241.000         207.000
  23489645.587    -7308933.86449  -5686178.34245  23489645.747    23489652.156
       214.000         154.000
  20423601.614   -25204998.88149 -19626728.65047  20423601.185    20423607.570
       243.000         212.000
  21241523.409   -19253318.99849 -14982086.59747  21241523.209    21241528.910
       240.000         206.000
 03  3 19  1 44  0.0000000  0  8G 3G23G31G17G14G 9G15G18
  21687805.187   -15303149.83049 -11905807.64547  21687805.115    21687811.715
       238.000         198.000
  22531284.335   -12960719.19949 -10053957.28346  22531284.626    22531291.103
       231.000         185.000
  22879813.882    -5804899.70949  -4318033.10546  22879813.325    22879820.856
       220.000         172.000
  22318161.854    -7671420.39249  -5967426.99446  22318161.448    22318169.454
       222.000         172.000
  20953170.558   -20013024.25849 -15550405.86947  20953170.232    20953175.562
       241.000         207.000
  23486886.882    -7323430.62949  -5697474.46245  23486886.727    23486894.267
       213.000         154.000
  20428300.128   -25180308.01249 -19607489.00347  20428299.473    20428306.206
       242.000         211.000
  21250192.224   -19207764.22749 -14946589.37747  21250192.008    21250197.586
       241.000         206.000
 03  3 19  1 44 30.0000000  0  8G 3G23G31G17G14G 9G15G18
  21687885.122   -15302729.87749 -11905480.39947  21687885.070    21687891.586
       238.000         198.000
  22542183.193   -12903445.36149 -10009328.31646  22542183.011    22542189.878
       231.000         184.000
  22870357.929    -5854590.75849  -4356753.34046  22870357.451    22870365.038
       221.000         172.000
  22331213.894    -7602831.87749  -5913981.42246  22331214.022    22331221.059
       222.000         172.000
  20941110.713   -20076399.06549 -15599788.77447  20941110.421    20941116.018
       242.000         208.000
  23484232.047    -7337381.11149  -5708344.88345  23484232.004    23484240.534
       215.000         154.000
  20433074.319   -25155219.16749 -19587939.24047  20433073.787    20433080.564
       242.000         211.000
  21258891.413   -19162049.87549 -14910967.80247  21258891.416    21258896.480
       241.000         206.000
 03  3 19  1 45  0.0000000  0  8G 3G23G31G17G14G 9G15G18
  21688072.109   -15301747.48149 -11904714.88047  21688071.810    21688078.728
       237.000         198.000
  22553089.406   -12846133.11449  -9964669.41046  22553089.071    22553096.124
       230.000         184.000
  22861000.520    -5903763.80649  -4395069.94446  22860999.519    22861007.502
       221.000         172.000
  22344325.283    -7533930.63249  -5860292.15346  22344325.266    22344332.939
       220.000         172.000
  20929141.558   -20139297.06349 -15648800.13947  20929141.207    20929146.738
       241.000         208.000
  23481681.631    -7350783.45549  -5718788.19445  23481680.051    23481689.014
       212.000         155.000
  20437924.445   -25129731.49049 -19568078.69747  20437923.770    20437930.671
       242.000         212.000
  21267620.765   -19116176.89849 -14875222.62147  21267620.773    21267626.094
       242.000         206.000
 03  3 19  1 45 30.0000000  0  8G 3G23G31G17G14G 9G15G18
  21688366.049   -15300202.54849 -11903511.02647  21688365.907    21688372.852
       237.000         198.000
  22564002.760   -12788782.96849  -9919980.98646  22564002.566    22564008.626
       231.000         183.000
  22851741.974    -5952417.07749  -4432981.52346  22851740.999    22851749.018
       220.000         172.000
  22357496.345    -7464716.39949  -5806359.00746  22357495.958    22357504.337
       220.000         172.000
  20917263.506   -20201716.42249 -15697438.51947  20917263.160    20917268.749
       242.000         208.000
  23479235.784    -7363635.80149  -5728802.96245  23479235.573    23479242.982
       213.000         155.000
  20442850.660   -25103843.76749 -19547906.43947  20442849.900    20442856.937
       243.000         212.000
  21276380.190   -19070145.79849 -14839354.22847  21276379.869    21276385.575
       241.000         205.000
 03  3 19  1 46  0.0000000  0  8G 3G23G31G17G14G 9G15G18
  21688766.831   -15298095.99549 -11901869.54647  21688766.459    21688773.569
       235.000         198.000
  22574923.165   -12731395.75149  -9875263.66746  22574922.926    22574930.091
       231.000         182.000
  22842582.646    -6000549.39649  -4470487.15846  22842582.159    22842589.123
       223.000         173.000
  22370726.924    -7395189.44549  -5752182.20346  22370727.148    22370735.612
       223.000         172.000
  20905476.774   -20263655.99149 -15745703.03247  20905476.280    20905481.958
       241.000         208.000
  23476894.823    -7375937.12549  -5738388.35345  23476894.824    23476901.906
       213.000         156.000
  20447852.993   -25077556.01449 -19527422.46547  20447852.266    20447859.062
       243.000         211.000
  21285169.471   -19023957.87749 -14803363.64347  21285169.394    21285174.407
       241.000         205.000
 03  3 19  1 46 30.0000000  0  8G 3G23G31G17G14G 9G15G18
  21689274.393   -15295428.39549 -11899790.89247  21689274.218    21689281.083
       236.000         197.000
  22585850.478   -12673972.22049  -9830518.04546  22585849.971    22585856.123
       230.000         181.000
  22833522.758    -6048159.47149  -4507585.87446  22833521.922    22833529.265
       222.000         174.000
  22384016.942    -7325350.78849  -5697762.47746  22384016.138    22384025.117
       224.000         173.000
  20893781.470   -20325114.59249 -15793592.75647  20893781.046    20893786.649
       242.000         208.000
  23474659.087    -7387686.29349  -5747543.48945  23474659.391    23474666.003
       216.000         157.000
  20452931.581   -25050867.84249 -19506626.47647  20452930.931    20452937.662
       243.000         211.000
  21293988.414   -18977614.18849 -14767251.68547  21293988.329    21293993.454
       241.000         204.000
 03  3 19  1 47  0.0000000  0  8G 3G23G31G17G14G 9G15G18
  21689888.707   -15292200.00249 -11897275.26347  21689888.553    21689895.556
       236.000         198.000
  22596784.532   -12616513.07349  -9785744.68146  22596784.062    22596791.195
       228.000         181.000
  22824562.409    -6095245.82649  -4544276.48846  22824561.815    22824569.050
       223.000         174.000
  22397366.247    -7255200.42949  -5643099.89846  22397365.776    22397373.092
       224.000         173.000
  20882178.064   -20386090.75149 -15841106.55647  20882177.759    20882183.240
       242.000         209.000
  23472528.736    -7398881.99149  -5756267.34145  23472528.766    23472536.197
       214.000         156.000
  20458086.481   -25023778.66149 -19485518.01247  20458086.162    20458092.492
       243.000         211.000
  21302836.707   -18931115.92149 -14731019.26247  21302836.433    21302841.973
       240.000         204.000
 03  3 19  1 47 30.0000000  0  8G 3G23G31G17G14G 9G15G18
  21690609.751   -15288411.01249 -11894322.79347  21690609.733    21690616.695
       236.000         198.000
  22607725.342   -12559018.67749  -9740943.84646  22607724.988    22607731.807
       229.000         181.000
  22815702.137    -6141807.04049  -4580557.89346  22815702.108    22815708.715
       223.000         175.000
  22410774.621    -7184738.87749  -5588194.81646  22410774.174    22410781.795
       222.000         173.000
  20870666.687   -20446583.02349 -15888243.29947  20870666.148    20870671.631
       241.000         209.000
  23470503.778    -7409522.90749  -5764558.91345  23470503.668    23470510.711
       211.000         155.000
  20463317.846   -24996287.85249 -19464096.58647  20463317.420    20463324.014
       243.000         212.000
  21311714.323   -18884463.69049 -14694666.86947  21311714.097    21311719.719
       240.000         204.000
 03  3 19  1 48  0.0000000  0  8G 3G23G31G17G14G 9G15G18
  21691437.434   -15284061.57449 -11890933.61447  21691437.460    21691444.394
       236.000         198.000
  22618672.858   -12501488.95849  -9696115.48346  22618672.599    22618679.096
       228.000         181.000
  22806942.164    -6187840.84749  -4616428.33446  22806941.363    22806948.644
       220.000         174.000
  22424242.379    -7113965.61649  -5533046.83746  22424242.650    22424250.091
       223.000         171.000
  20859247.788   -20506589.29149 -15935001.33847  20859247.174    20859252.893
       241.000         209.000
  23468584.661    -7419607.04949  -5772416.63345  23468584.727    23468592.172
       216.000         155.000
  20468625.832   -24968394.30249 -19442361.33847  20468625.276    20468632.074
       243.000         212.000
  21320621.188   -18837657.57949 -14658194.57347  21320620.931    21320626.611
       240.000         204.000
 03  3 19  1 48 30.0000000  0  8G 3G23G31G17G14G 9G15G18
  21692371.585   -15279152.51649 -11887108.37347  21692371.524    21692378.053
       237.000         198.000
  22629626.941   -12443924.83949  -9651260.32546  22629626.356    22629633.273
       229.000         181.000
  22798282.663    -6233346.33949  -4651887.09746  22798282.727    22798289.479
       221.000         173.000
  22437769.200    -7042881.60549  -5477656.72346  22437769.046    22437777.068
       224.000         170.000
  20847921.621   -20566108.46949 -15981379.83847  20847921.344    20847926.904
       241.000         210.000
  23466771.886    -7429133.34149  -5779839.65245  23466771.462    23466779.924
       215.000         156.000
  20474010.382   -24940098.20549 -19420312.42047  20474010.028    20474016.444
       243.000         212.000
  21329557.092   -18790698.98049 -14621603.45447  21329556.845    21329561.992
       239.000         203.000
 03  3 19  1 49  0.0000000  0  8G 3G23G31G17G14G 9G15G18
  21693412.004   -15273684.86549 -11882847.85147  21693411.804    21693418.768
       236.000         198.000
  22640587.289   -12386327.58149  -9606379.33246  22640586.408    22640593.785
       228.000         181.000
  22789723.949    -6278322.84949  -4686933.65146  22789723.683    22789729.986
       222.000         173.000
  22451355.246    -6971487.48049  -5422024.96446  22451355.970    22451362.376
       224.000         171.000
  20836688.200   -20625139.95749 -16027378.31647  20836687.641    20836693.026
       241.000         210.000
  23465065.314    -7438101.30149  -5786827.59245  23465065.193    23465072.403
       214.000         157.000
  20479471.560   -24911399.60849 -19397949.86747  20479470.957    20479477.719
       243.000         212.000
  21338521.733   -18743589.44149 -14584894.71747  21338521.569    21338526.611
       239.000         203.000
 03  3 19  1 49 30.0000000  0  8G 3G23G31G17G14G 9G15G18
  21694558.605   -15267659.17349 -11878152.50147  21694558.390    21694565.565
       237.000         198.000
  22651553.794   -12328697.62449  -9561472.86646  22651553.566    22651560.553
       229.000         180.000
  22781266.251    -6322768.81049  -4721566.80546  22781265.998    22781272.188
       223.000         173.000
  22465000.151    -6899783.74149  -5366151.95346  22464999.794    22465007.757
       222.000         170.000
  20825547.885   -20683682.33449 -16072995.67847  20825547.384    20825552.657
       240.000         210.000
  23463465.374    -7446509.51249  -5793379.39745  23463464.781    23463473.065
       213.000         157.000
  20485009.438   -24882297.74549 -19375273.08347  20485008.843    20485015.453
       243.000         212.000
  21347514.916   -18696329.80649 -14548069.02547  21347514.683    21347520.215
       240.000         202.000
 03  3 19  1 50  0.0000000  0  8G 3G23G31G17G14G 9G15G18
  21695811.447   -15261075.30149 -11873022.20147  21695811.612    21695817.610
       236.000         198.000
  22662526.578   -12271034.79849  -9516540.78446  22662526.599    22662533.289
       230.000         180.000
  22772909.748    -6366682.12549  -4755784.90146  22772909.313    22772916.727
       222.000         175.000
  22478703.793    -6827770.07649  -5310037.42846  22478703.128    22478712.195
       221.000         170.000
  20814501.038   -20741733.47449 -16118230.26447  20814500.571    20814505.876
       241.000         210.000
  23461972.016    -7454356.38449  -5799493.77745  23461972.295    23461978.686
       216.000         157.000
  20490624.255   -24852791.40649 -19352281.12447  20490623.806    20490630.327
       242.000         211.000
  21356536.583   -18648920.33849 -14511126.57347  21356536.308    21356541.938
       239.000         202.000
 03  3 19  1 50 30.0000000  0  8G 3G23G31G17G14G 9G15G18
  21697170.442   -15253933.76349 -11867457.35847  21697170.242    21697177.235
       236.000         197.000
  22673505.645   -12213339.42149  -9471583.35146  22673504.939    22673512.662
       227.000         181.000
  22764654.858    -6410061.38549  -4789586.85846  22764654.168    22764661.088
       221.000         174.000
  22492466.435    -6755446.68149  -5253681.57446  22492465.340    22492474.353
       221.000         170.000
  20803547.980   -20799292.01749 -16163081.01947  20803547.804    20803553.053
       241.000         210.000
  23460585.925    -7461640.46749  -5805169.62745  23460585.784    23460593.241
       216.000         157.000
  20496316.222   -24822879.99149 -19328973.52247  20496315.576    20496322.140
       243.000         211.000
  21365586.721   -18601361.53349 -14474067.75647  21365586.742    21365591.847
       240.000         203.000
 03  3 19  1 51  0.0000000  0  8G 3G23G31G17G14G 9G15G18
  21698635.385   -15246235.53949 -11861458.73647  21698635.117    21698642.331
       235.000         197.000
  22684490.799   -12155612.35449  -9426601.21346  22684490.654    22684498.113
       229.000         181.000
  22756501.838    -6452905.68749  -4822971.96046  22756501.372    22756508.225
       223.000         175.000
  22506287.872    -6682814.62349  -5197085.19746  22506286.852    22506295.787
       220.000         169.000
  20792688.861   -20856356.91449 -16207547.11847  20792688.481    20792693.887
       241.000         210.000
  23459307.007    -7468360.93749  -5810406.28345  23459306.630    23459314.783
       215.000         157.000
  20502085.229   -24792563.67349 -19305350.41247  20502084.872    20502091.214
       243.000         211.000
  21374665.083   -18553654.56649 -14436893.48147  21374665.327    21374670.396
       240.000         203.000
 03  3 19  1 51 30.0000000  0  8G 3G23G31G17G14G 9G15G18
  21700206.048   -15237981.01349 -11855026.63147  21700205.730    21700212.732
       235.000         197.000
  22695481.862   -12097854.10849  -9381594.78846  22695481.555    22695488.746
       228.000         181.000
  22748450.847    -6495213.68749  -4855939.17346  22748450.296    22748456.603
       225.000         174.000
  22520168.104    -6609873.80549  -5140248.24246  22520167.602    22520175.892
       220.000         168.000
  20781923.871   -20912926.98249 -16251627.63447  20781923.594    20781928.685
       241.000         210.000
  23458135.652    -7474516.61249  -5815202.84845  23458135.761    23458143.296
       214.000         157.000
  20507931.424   -24761841.95049 -19281411.39747  20507931.065    20507937.364
       243.000         211.000
  21383771.466   -18505800.50349 -14399604.58147  21383771.343    21383776.853
       241.000         203.000
 03  3 19  1 52  0.0000000  0  8G 3G23G31G17G14G 9G15G18
  21701882.474   -15229171.18449 -11848161.81947  21701882.290    21701889.346
       235.000         197.000
  22706478.773   -12040065.34349  -9336564.57446  22706478.962    22706485.493
       229.000         181.000
  22740502.106    -6536984.29249  -4888487.65246  22740501.329    22740508.366
       223.000         173.000
  22534106.949    -6536624.72149  -5083171.04946  22534106.153    22534114.795
       220.000         168.000
  20771253.268   -20969001.23149 -16295321.80347  20771252.871    20771258.199
       241.000         210.000
  23457071.721    -7480106.71549  -5819558.68845  23457071.168    23457078.643
       212.000         157.000
  20513854.812   -24730714.45249 -19257156.20347  20513854.394    20513860.939
       243.000         211.000
  21392905.640   -18457800.33349 -14362201.84247  21392905.600    21392910.913
       240.000         203.000
 03  3 19  1 52 30.0000000  0  8G 3G23G31G17G14G 9G15G18
  21703664.512   -15219806.41649 -11840864.60247  21703664.286    21703671.359
       235.000         197.000
  22717481.494   -11982246.08249  -9291510.59846  22717481.045    22717487.912
       228.000         181.000
  22732655.908    -6578215.78149  -4920616.04346  22732654.651    22732662.592
       222.000         173.000
  22548104.363    -6463067.87949  -5025854.06846  22548103.433    22548112.283
       220.000         167.000
  20760677.346   -21024577.73049 -16338628.11447  20760676.852    20760682.129
       240.000         210.000
  23456115.658    -7485129.75149  -5823472.68445  23456114.950    23456123.666
       210.000         157.000
  20519855.577   -24699180.26749 -19232584.10947  20519855.220    20519861.224
       243.000         210.000
  21402067.583   -18409654.15549 -14324685.32447  21402067.287    21402073.027
       240.000         203.000
 03  3 19  1 53  0.0000000  0  8G 3G23G31G17G14G 9G15G18
  21705552.049   -15209887.25649 -11833135.37747  21705552.109    21705559.029
       235.000         197.000
  22728489.715   -11924396.96649  -9246433.35546  22728489.514    22728496.457
       227.000         181.000
  22724912.476    -6618907.20349  -4952323.58946  22724911.761    22724918.628
       221.000         173.000
  22562160.107    -6389203.75249  -4968297.63446  22562159.352    22562168.329
       219.000         166.000
  20750196.239   -21079655.68049 -16381545.95247  20750195.988    20750201.152
       241.000         210.000
  23455267.672    -7489584.77349  -5826944.06045  23455267.556    23455275.360
       213.000         157.000
  20525933.697   -24667239.26249 -19207695.01047  20525933.302    20525939.325
       243.000         210.000
  21411257.031   -18361363.11649 -14287055.93447  21411256.885    21411261.982
       240.000         203.000
 03  3 19  1 53 30.0000000  0  8G 3G23G31G17G14G 9G15G18
  21707544.943   -15199414.77249 -11824974.98747  21707544.889    21707551.833
       236.000         197.000
  22739503.585   -11866518.61449  -9201333.33646  22739503.439    22739510.289
       228.000         181.000
  22717272.083    -6659057.50549  -4983609.49346  22717271.460    22717278.578
       223.000         173.000
  22576274.411    -6315032.74249  -4910502.07046  22576273.671    22576282.205
       220.000         165.000
  20739810.333   -21134233.92349 -16424074.40547  20739810.098    20739815.078
       241.000         210.000
  23454528.039    -7493471.06949  -5829972.28345  23454527.968    23454535.584
       214.000         157.000
  20532089.295   -24634891.39649 -19182488.87747  20532088.671    20532095.136
       243.000         210.000
  21420473.924   -18312928.20649 -14249314.43347  21420473.825    21420479.051
       241.000         203.000
 03  3 19  1 54  0.0000000  0  8G 3G23G31G17G14G 9G15G18
  21709642.894   -15188389.95549 -11816384.20947  21709642.747    21709649.527
       235.000         196.000
  22750522.844   -11808611.87849  -9156211.19546  22750522.731    22750529.425
       228.000         181.000
  22709734.755    -6698665.78549  -5014473.02746  22709733.748    22709740.976
       223.000         174.000
  22590446.998    -6240555.65749  -4852467.99946  22590446.839    22590454.969
       219.000         167.000
  20729519.707   -21188311.60549 -16466212.81047  20729519.362    20729524.339
       241.000         211.000
  23453896.921    -7496787.97049  -5832556.80945  23453897.445    23453903.899
       215.000         157.000
  20538322.375   -24602136.53449 -19156965.60947  20538321.716    20538328.198
       242.000         210.000
  21429717.926   -18264350.59249 -14211461.73647  21429717.385    21429723.078
       241.000         203.000
 03  3 19  1 54 30.0000000  0  8G 3G23G31G17G14G 9G15G18
  21711845.646   -15176814.28449 -11807364.19547  21711845.712    21711852.246
       236.000         196.000
  22761547.438   -11750677.54949  -9111067.55546  22761547.569    22761554.046
       228.000         181.000
  22702300.763    -6737731.21049  -5044913.56746  22702300.484    22702306.241
       224.000         174.000
  22604677.584    -6165773.82449  -4794196.47046  22604677.417    22604685.521
       221.000         167.000
  20719324.431   -21241887.81649 -16507960.45847  20719323.990    20719329.271
       241.000         211.000
  23453374.211    -7499534.79649  -5834697.12145  23453374.127    23453382.156
       212.000         157.000
  20544632.792   -24568974.67449 -19131125.19547  20544632.137    20544638.792
       242.000         210.000
  21438988.792   -18215631.71849 -14173498.97147  21438988.587    21438993.837
       240.000         202.000
 03  3 19  1 55  0.0000000  0  8G 3G23G31G17G14G 9G15G18
  21714153.326   -15164687.54949 -11797914.77347  21714152.825    21714159.775
       236.000         196.000
  22772577.304   -11692715.13149  -9065902.02046  22772576.963    22772583.627
       226.000         181.000
  22694970.436    -6776251.86349  -5074929.61346  22694970.499    22694977.198
       225.000         175.000
  22618966.189    -6090686.47849  -4735686.87346  22618966.335    22618974.053
       221.000         168.000
  20709224.875   -21294960.87949 -16549316.03847  20709224.582    20709229.794
       241.000         211.000
  23452960.303    -7501709.89949  -5836391.94245  23452961.103    23452967.926
       212.000         158.000
  20551020.955   -24535404.54249 -19104966.65147  20551020.355    20551027.025
       242.000         210.000
  21448286.617   -18166771.31649 -14135425.91447  21448286.620    21448291.578
       240.000         202.000
 03  3 19  1 55 30.0000000  0  8G 3G23G31G17G14G 9G15G18
  21716565.639   -15152010.56249 -11788036.57747  21716565.285    21716572.520
       236.000         196.000
  22783612.328   -11634725.21249  -9020715.05546  22783612.473    22783618.905
       227.000         180.000
  22687744.009    -6814226.71049  -5104520.35846  22687743.732    22687750.744
       223.000         175.000
  22633312.735    -6015294.45749  -4676939.86246  22633312.184    22633320.969
       220.000         168.000
  20699221.341   -21347529.70349 -16590278.71447  20699220.987    20699226.286
       241.000         211.000
  23452655.250    -7503312.43649  -5837640.60645  23452655.075    23452662.830
       215.000         158.000
  20557486.851   -24501425.81549 -19078489.71847  20557486.338    20557492.796
       242.000         210.000
  21457611.207   -18117770.25849 -14097243.26647  21457610.765    21457616.397
       239.000         202.000
 03  3 19  1 56  0.0000000  0  8G 3G23G31G17G14G 9G15G18
  21719082.544   -15138784.02849 -11777730.17447  21719082.432    21719089.186
       236.000         196.000
  22794652.589   -11576708.00149  -8975506.83146  22794652.241    22794659.548
       228.000         180.000
  22680621.641    -6851654.49249  -5133684.80046  22680621.353    22680628.745
       224.000         176.000
  22647717.186    -5939597.95949  -4617955.58546  22647716.372    22647725.171
       219.000         166.000
  20689313.983   -21399592.87749 -16630847.37147  20689313.686    20689319.084
       241.000         211.000
  23452459.536    -7504341.38249  -5838442.31745  23452459.400    23452467.377
       215.000         158.000
  20564030.591   -24467038.11949 -19051694.10847  20564030.178    20564036.638
       242.000         210.000
  21466962.378   -18068629.16149 -14058951.50047  21466962.041    21466967.698
       239.000         202.000
 03  3 19  1 56 30.0000000  0  8G 3G23G31G17G14G 9G15G18
  21721703.905   -15125008.97449 -11766996.35147  21721703.817    21721711.041
       236.000         197.000
  22805697.944   -11518664.13449  -8930277.83146  22805696.715    22805704.668
       225.000         179.000
  22673603.626    -6888534.22049  -5162422.19846  22673602.612    22673610.538
       225.000         177.000
  22662179.603    -5863597.37149  -4558734.37746  22662179.649    22662187.908
       219.000         166.000
  20679503.048   -21451149.49849 -16671021.31247  20679502.798    20679508.047
       241.000         212.000
  23452372.876    -7504795.98249  -5838796.48745  23452373.120    23452380.743
       214.000         157.000
  20570652.132   -24432241.51049 -19024579.86947  20570651.754    20570658.325
       241.000         210.000
  21476340.031   -18019349.06449 -14020551.42147  21476339.699    21476345.588
       240.000         202.000
 03  3 19  1 57  0.0000000  0  8G 3G23G31G17G14G 9G15G18
  21724429.263   -15110686.88249 -11755836.27247  21724429.201    21724436.039
       236.000         197.000
  22816748.163   -11460594.42349  -8885028.69846  22816746.825    22816754.872
       226.000         179.000
  22666690.082    -6924865.34649  -5190732.10646  22666689.487    22666696.262
       226.000         178.000
  22676699.722    -5787294.34749  -4499277.50446  22676699.707    22676708.068
       217.000         165.000
  20669788.598   -21502198.84149 -16710799.97847  20669788.263    20669793.607
       240.000         212.000
  23452395.684    -7504675.83249  -5838702.79545  23452394.525    23452403.441
       212.000         156.000
  20577351.509   -24397035.86649 -18997146.89647  20577351.066    20577357.748
       242.000         210.000
  21485744.019   -17969930.93749 -13982043.78447  21485743.589    21485749.577
       240.000         201.000
 03  3 19  1 57 30.0000000  0  8G 3G23G31G17G14G 9G15G18
  21727258.730   -15095818.27849 -11744250.33047  21727258.522    21727265.478
       236.000         198.000
  22827803.264   -11402499.08549  -8839759.60046  22827802.781    22827810.884
       226.000         179.000
  22659881.167    -6960646.54949  -5218613.51546  22659881.021    22659887.389
       227.000         178.000
  22691277.433    -5710688.69449  -4439584.81546  22691277.595    22691285.572
       218.000         165.000
  20660170.888   -21552739.91549 -16750182.58647  20660170.562    20660176.167
       241.000         212.000
  23452527.880    -7503979.75949  -5838160.33445  23452527.483    23452536.367
       214.000         156.000
  20584128.900   -24361420.52249 -18969394.68047  20584128.444    20584134.860
       242.000         210.000
  21495174.107   -17920375.44049 -13943429.10647  21495173.711    21495179.276
       239.000         201.000
 03  3 19  1 58  0.0000000  0  8G 3G23G31G17G14G 9G15G18
  21730191.955   -15080403.92349 -11732239.13247  21730191.841    21730198.702
       236.000         198.000
  22838863.312   -11344378.44949  -8794470.78046  22838863.084    22838870.606
       227.000         179.000
  22653177.017    -6995876.84749  -5246065.64146  22653176.282    22653183.184
       228.000         179.000
  22705912.521    -5633780.80649  -4379656.61446  22705911.694    22705920.973
       217.000         164.000
  20650650.190   -21602771.61049 -16789168.27847  20650649.873    20650655.207
       241.000         212.000
  23452770.073    -7502707.13949  -5837168.61445  23452770.735    23452777.780
       215.000         157.000
  20590984.287   -24325395.26849 -18941323.06647  20590983.739    20590990.445
       242.000         210.000
  21504630.215   -17870683.26949 -13904707.93347  21504630.004    21504635.108
       239.000         200.000
 03  3 19  1 58 30.0000000  0  8G 3G23G31G17G14G 9G15G18
  21733228.859   -15064444.77249 -11719803.40747  21733228.709    21733235.461
       236.000         197.000
  22849928.099   -11286232.89949  -8749162.55346  22849928.843    22849934.965
       228.000         179.000
  22646577.887    -7030555.21449  -5273087.69346  22646577.041    22646584.454
       227.000         179.000
  22720604.977    -5556571.62549  -4319493.63546  22720604.403    22720614.181
       217.000         165.000
  20641226.640   -21652292.72549 -16827756.11347  20641226.496    20641231.558
       241.000         212.000
  23453122.213    -7500857.11849  -5835726.98245  23453121.792    23453129.877
       215.000         157.000
  20597917.702   -24288959.95549 -18912931.94847  20597917.428    20597923.900
       243.000         210.000
  21514112.107   -17820855.33049 -13865880.95747  21514111.900    21514117.157
       239.000         200.000
 03  3 19  1 59  0.0000000  0  8G 3G23G31G17G14G 9G15G18
  21736369.293   -15047941.82749 -11706943.95047  21736369.275    21736375.782
       235.000         197.000
  22860997.695   -11228062.52249  -8703834.98846  22860997.721    22861004.639
       228.000         179.000
  22640084.029    -7064680.48949  -5299678.76546  22640083.566    22640090.292
       227.000         179.000
  22735354.535    -5479061.19649  -4259095.90646  22735354.132    22735363.565
       217.000         163.000
  20631900.374   -21701302.26949 -16865945.32448  20631900.103    20631905.143
       241.000         213.000
  23453584.318    -7498428.92749  -5833834.81945  23453584.371    23453591.997
       211.000         157.000
  20604929.315   -24252113.93949 -18884220.80347  20604928.795    20604935.455
       242.000         210.000
  21523619.821   -17770891.86449 -13826948.37747  21523619.248    21523624.468
       239.000         199.000
 03  3 19  1 59 30.0000000  0  8G 3G23G31G17G14G 9G15G18
  21739612.896   -15030895.97249 -11693661.44347  21739612.819    21739619.672
       236.000         197.000
  22872071.859   -11169867.56349  -8658488.24246  22872071.514    22872078.779
       226.000         178.000
  22633695.566    -7098251.60349  -5325838.02546  22633694.719    22633701.703
       228.000         180.000
  22750161.437    -5401250.26649  -4198464.04446  22750160.701    22750169.835
       219.000         164.000
  20622671.745   -21749798.93949 -16903734.89648  20622671.352    20622676.539
       241.000         213.000
  23454156.423    -7495421.62849  -5831491.41045  23454155.056    23454163.601
       210.000         157.000
  20612019.068   -24214856.84549 -18855189.32047  20612018.676    20612025.339
       242.000         209.000
  21533153.180   -17720793.60949 -13787910.76847  21533152.948    21533158.255
       239.000         199.000
 03  3 19  2  0  0.0000000  0  8G 3G23G31G17G14G 9G15G18
  21742959.673   -15013308.33849 -11679956.78247  21742959.552    21742966.284
       235.000         196.000
  22883150.483   -11111648.61949  -8613122.82246  22883150.465    22883157.135
       225.000         177.000
  22627412.773    -7131267.75049  -5351564.85346  22627411.939    22627419.319
       227.000         180.000
  22765025.577    -5323139.42249  -4137598.45946  22765024.771    22765033.542
       218.000         164.000
  20613540.807   -21797782.20949 -16941124.41148  20613540.573    20613545.766
       241.000         213.000
  23454838.743    -7491834.82949  -5828696.44445  23454839.542    23454846.577
       212.000         156.000
  20619187.117   -24177188.63049 -18825837.46747  20619186.774    20619193.103
       242.000         209.000
  21542711.983   -17670561.43249 -13748768.80347  21542711.591    21542716.937
       237.000         199.000
 03  3 19  2  0 30.0000000  0  8G 3G23G31G17G14G 9G15G18
  21746409.264   -14995180.18549 -11665830.94347  21746409.024    21746415.869
       236.000         197.000
  22894233.557   -11053406.14249  -8567739.07246  22894233.282    22894239.742
       226.000         177.000
  22621235.735    -7163728.27949  -5376858.71246  22621235.704    22621242.458
       226.000         181.000
  22779946.535    -5244729.27449  -4076499.70046  22779946.071    22779955.205
       217.000         163.000
  20604507.737   -21845251.09449 -16978113.11048  20604507.286    20604512.482
       241.000         213.000
  23455631.663    -7487667.87549  -5825449.40745  23455630.965    23455639.323
       214.000         156.000
  20626433.371   -24139109.23249 -18796165.20547  20626432.908    20626439.323
       241.000         209.000
  21552296.111   -17620196.29049 -13709523.23347  21552295.836    21552301.161
       238.000         198.000
 03  3 19  2  1  0.0000000  0  8G 3G23G31G17G14G 9G15G18
  21749961.436   -14976513.77049 -11651285.67447  21749960.965    21749968.347
       236.000         197.000
  22905320.924   -10995141.90749  -8522338.36346  22905320.956    22905328.006
       225.000         177.000
  22615164.317    -7195633.58349  -5401719.93546  22615163.318    22615170.880
       227.000         181.000
  22794924.123    -5166021.87649  -4015169.27346  22794923.913    22794932.132
       218.000         163.000
  20595572.447   -21892206.32549 -17014701.56248  20595572.182    20595577.449
       241.000         213.000
  23456534.848    -7482921.54049  -5821750.91945  23456534.509    23456542.251
       215.000         156.000
  20633757.598   -24100620.07049 -18766173.63647  20633757.047    20633763.727
       241.000         209.000
  21561905.093   -17569700.30749 -13670175.70547  21561904.844    21561910.231
       237.000         198.000
 03  3 19  2  1 30.0000000  0  8G 3G23G31G17G14G 9G15G18
  21753615.944   -14957308.91349 -11636320.84547  21753616.005    21753622.713
       235.000         196.000
  22916412.540   -10936854.71549  -8476919.76346  22916412.138    22916419.037
       226.000         176.000
  22609199.019    -7226981.38649  -5426146.74546  22609198.857    22609205.383
       229.000         181.000
  22809958.410    -5087016.17949  -3953606.40745  22809957.995    22809966.592
       215.000         162.000
  20586735.374   -21938645.11249 -17050887.58648  20586735.170    20586740.290
       241.000         213.000
  23457548.685    -7477593.84649  -5817599.40445  23457549.217    23457556.091
       215.000         157.000
  20641160.102   -24061719.38949 -18735861.40447  20641159.463    20641166.581
       241.000         209.000
  21571539.252   -17519072.58449 -13630725.52047  21571538.974    21571544.624
       237.000         198.000
 03  3 19  2  2  0.0000000  0  8G 3G23G31G17G14G 9G15G18
  21757372.776   -14937566.62349 -11620937.23447  21757372.794    21757379.914
       236.000         196.000
  22927508.553   -10878544.92749  -8431483.55446  22927508.116    22927515.255
       225.000         176.000
  22603339.888    -7257770.87449  -5450138.50346  22603339.354    22603345.751
       228.000         182.000
  22825049.302    -5007713.08949  -3891811.81945  22825049.427    22825057.090
       218.000         161.000
  20577996.775   -21984566.79149 -17086670.67548  20577996.519    20578001.621
       241.000         213.000
  23458673.291    -7471684.16449  -5812994.40245  23458673.408    23458680.663
       214.000         157.000
  20648640.989   -24022406.97649 -18705228.36047  20648640.634    20648647.356
       241.000         209.000
  21581198.331   -17468313.92049 -13591173.30647  21581198.197    21581203.264
       238.000         198.000
 03  3 19  2  2 30.0000000  0  8G 3G23G31G17G14G 9G15G18
  21761231.654   -14917288.08749 -11605135.76847  21761231.723    21761238.655
       235.000         197.000
  22938608.795   -10820212.82249  -8386029.95746  22938608.172    22938615.782
       227.000         176.000
  22597587.206    -7288001.27449  -5473694.61646  22597586.726    22597593.581
       229.000         183.000
  22840196.813    -4928113.38349  -3829786.09545  22840197.550    22840204.359
       218.000         161.000
  20569356.682   -22029970.65249 -17122050.26748  20569356.381    20569361.252
       241.000         213.000
  23459908.746    -7465192.15349  -5807935.63245  23459907.954    23459915.428
       216.000         157.000
  20656200.322   -23982682.54549 -18674274.26047  20656199.780    20656206.374
       241.000         209.000
  21590882.247   -17417424.85949 -13551519.48147  21590882.063    21590887.293
       239.000         198.000
 03  3 19  2  3  0.0000000  0  8G 3G23G31G17G14G 9G15G18
  21765192.309   -14896474.71149 -11588917.54947  21765192.371    21765199.239
       234.000         197.000
  22949713.258   -10761858.88249  -8340559.33546  22949713.144    22949720.006
       227.000         176.000
  22591940.984    -7317671.94649  -5496814.57446  22591940.255    22591947.155
       227.000         183.000
  22855400.452    -4848217.70949  -3767529.74745  22855400.026    22855408.296
       218.000         162.000
  20560815.198   -22074856.13149 -17157025.91948  20560814.934    20560820.019
       240.000         213.000
  23461254.896    -7458117.29749  -5802422.71445  23461253.692    23461262.075
       211.000         157.000
  20663837.975   -23942546.19349 -18642999.18147  20663837.473    20663844.093
       241.000         208.000
  21600590.764   -17366406.31349 -13511764.76147  21600590.332    21600596.026
       236.000         198.000
 03  3 19  2  3 30.0000000  0  8G 3G23G31G17G14G 9G15G18
  21769254.582   -14875127.21949 -11572283.12447  21769254.199    21769261.406
       235.000         196.000
  22960821.944   -10703482.76049  -8295071.44546  22960821.384    22960828.738
       226.000         176.000
  22586401.596    -7346781.56249  -5519497.35146  22586401.140    22586408.165
       228.000         182.000
  22870660.376    -4768026.32949  -3705042.98146  22870660.091    22870668.249
       217.000         163.000
  20552372.656   -22119221.73549 -17191596.47948  20552372.089    20552377.439
       240.000         213.000
  23462712.083    -7450458.62049  -5796454.85345  23462711.823    23462719.883
       214.000         157.000
  20671554.122   -23901997.33749 -18611402.66547  20671553.471    20671560.532
       241.000         208.000
  21610323.876   -17315258.49649 -13471909.30847  21610323.784    21610328.638
       238.000         198.000
 03  3 19  2  4  0.0000000  0  8G 3G23G31G17G14G 9G15G18
  21773418.181   -14853247.38649 -11555233.90047  21773418.346    21773424.804
       236.000         196.000
  22971934.584   -10645085.51249  -8249567.08746  22971933.641    22971941.075
       225.000         176.000
  22580968.979    -7375330.18449  -5541742.98246  22580968.511    22580975.432
       228.000         182.000
  22885976.421    -4687540.40749  -3642326.70646  22885975.589    22885983.777
       217.000         163.000
  20544029.011   -22163067.40549 -17225761.89548  20544028.625    20544033.915
       240.000         213.000
  23464280.525    -7442216.48049  -5790032.35145  23464280.487    23464288.855
       216.000         158.000
  20679348.684   -23861036.54749 -18579485.16147  20679348.375    20679355.286
       242.000         208.000
  21620081.268   -17263982.64949 -13431954.08447  21620080.650    21620086.328
       237.000         197.000
 03  3 19  2  4 30.0000000  0  8G 3G23G31G17G14G 9G15G18
  21777682.878   -14830836.52849 -11537770.88247  21777683.104    21777689.635
       236.000         196.000
  22983051.095   -10586667.50049  -8204046.54946  22983050.425    22983057.537
       225.000         176.000
  22575643.192    -7403317.11649  -5563550.94146  22575642.668    22575649.654
       229.000         181.000
  22901348.229    -4606760.85549  -3579381.61445  22901347.567    22901356.970
       215.000         162.000
  20535784.440   -22206392.52249 -17259521.68048  20535783.913    20535789.199
       240.000         213.000
  23465960.051    -7433390.43349  -5783154.86045  23465959.384    23465967.903
       214.000         159.000
  20687221.725   -23819663.49949 -18547246.42347  20687221.135    20687228.206
       241.000         208.000
  21629862.845   -17212579.80649 -13391899.91047  21629862.728    21629867.713
       238.000         197.000
 03  3 19  2  5  0.0000000  0  8G 3G23G31G17G14G 9G15G18
  21782048.441   -14807895.29849 -11519894.59847  21782048.652    21782055.236
       236.000         196.000
  22994171.644   -10528228.20449  -8158509.43746  22994170.657    22994178.673
       224.000         175.000
  22570424.608    -7430740.91549  -5584920.10146  22570423.581    22570431.095
       228.000         181.000
  22916775.837    -4525687.76249  -3516207.78946  22916775.966    22916783.744
       219.000         163.000
  20527639.273   -22249195.64549 -17292874.72748  20527639.301    20527644.020
       241.000         213.000
  23467750.961    -7423979.16149  -5775821.34845  23467751.094    23467758.406
       214.000         159.000
  20695173.347   -23777877.41449 -18514685.84647  20695173.010    20695179.543
       241.000         208.000
  21639668.771   -17161049.66949 -13351746.54547  21639668.849    21639673.585
       238.000         197.000
 03  3 19  2  5 30.0000000  0  8G 3G23G31G17G14G 9G15G18
  21786514.679   -14784425.05849 -11501606.09947  21786514.450    21786521.465
       235.000         196.000
  23005296.156   -10469768.44549  -8112956.37246  23005295.805    23005302.668
       226.000         175.000
  22565313.157    -7457601.38049  -5605850.31046  22565312.179    22565319.469
       228.000         181.000
  22932259.260    -4444322.04349  -3452805.95745  22932258.448    22932267.008
       216.000         162.000
  20519593.542   -22291476.40349 -17325820.73548  20519593.381    20519598.282
       241.000         213.000
  23469653.144    -7413982.93349  -5768032.02745  23469653.517    23469661.213
       215.000         159.000
  20703203.505   -23735678.79649 -18481803.81347  20703202.951    20703209.732
       241.000         208.000
  21649498.664   -17109393.32449 -13311494.83347  21649498.564    21649503.658
       239.000         198.000
 03  3 19  2  6  0.0000000  0  8G 3G23G31G17G14G 9G15G18
  21791081.199   -14760427.42049 -11482906.63547  21791080.949    21791087.716
       236.000         196.000
  23016424.527   -10411288.57049  -8067387.63246  23016424.701    23016431.100
       225.000         176.000
  22560309.018    -7483898.04649  -5626341.19046  22560309.063    22560315.435
       228.000         181.000
  22947798.086    -4362664.79449  -3389176.95045  22947797.261    22947806.565
       216.000         162.000
  20511647.235   -22333234.16549 -17358359.20848  20511646.842    20511651.854
       240.000         213.000
  23471666.720    -7403401.66349  -5759786.83745  23471666.773    23471674.349
       214.000         158.000
  20711312.066   -23693067.89949 -18448600.52647  20711311.797    20711318.559
       240.000         208.000
  21659352.383   -17057611.74849 -13271145.53347  21659352.232    21659356.899
       238.000         198.000
 03  3 19  2  6 30.0000000  0  8G 3G23G31G17G14G 9G15G18
  21795747.865   -14735904.06949 -11463797.53347  21795747.938    21795754.384
       236.000         196.000
  23027556.696   -10352788.81749  -8021803.40346  23027556.984    23027563.168
       226.000         176.000
  22555412.255    -7509630.11149  -5646392.12046  22555412.073    22555418.973
       227.000         181.000
  22963392.479    -4280716.74349  -3325321.34945  22963392.224    22963400.308
       218.000         161.000
  20503800.611   -22374468.35649 -17390489.71148  20503800.045    20503805.177
       240.000         213.000
  23473791.717    -7392234.84749  -5751085.36945  23473791.642    23473798.565
       218.000         159.000
  20719499.175   -23650044.38649 -18415075.71747  20719498.650    20719505.578
       241.000         208.000
  21669229.868   -17005705.17449 -13230698.83147  21669229.944    21669234.861
       239.000         198.000
 03  3 19  2  7  0.0000000  0  8G 3G23G31G17G14G 9G15G18
  21800514.312   -14710856.15949 -11444279.67447  21800514.248    21800521.186
       235.000         196.000
  23038692.614   -10294269.47049  -7976203.91246  23038692.265    23038699.663
       226.000         176.000
  22550623.160    -7534797.14749  -5666002.77146  22550623.098    22550629.103
       228.000         181.000
  22979041.788    -4198478.39549  -3261239.54445  22979040.761    22979049.812
       215.000         160.000
  20496053.700   -22415178.39149 -17422211.77848  20496053.258    20496058.200
       240.000         213.000
  23476028.203    -7380482.37249  -5741927.54545  23476027.464    23476035.390
       216.000         159.000
  20727764.833   -23606608.25749 -18381229.38947  20727764.227    20727771.336
       241.000         208.000
  21679130.994   -16953674.49049 -13190155.43547  21679131.130    21679135.852
       238.000         198.000
 03  3 19  2  7 30.0000000  0  8G 3G23G31G17G14G 9G15G18
  21805380.432   -14685284.44149 -11424353.65447  21805380.539    21805387.213
       236.000         195.000
  23049832.278   -10235730.19249  -7930588.88446  23049831.833    23049837.785
       224.000         176.000
  22545941.803    -7559398.13549  -5685172.35446  22545941.060    22545947.966
       229.000         181.000
  22994746.283    -4115949.87749  -3196931.64245  22994746.228    22994754.460
       214.000         158.000
  20488406.757   -22455363.13749 -17453524.53048  20488406.511    20488411.401
       240.000         213.000
  23478376.220    -7368143.41949  -5732312.71045  23478376.188    23478383.882
       215.000         158.000
  20736109.124   -23562758.86749 -18347061.04247  20736108.531    20736115.408
       241.000         208.000
  21689055.691   -16901519.96649 -13149515.53047  21689055.309    21689060.734
       238.000         198.000
 03  3 19  2  8  0.0000000  0  8G 3G23G31G17G14G 9G15G18
  21810346.013   -14659190.01349 -11404020.33947  21810345.822    21810352.558
       235.000         195.000
  23060975.682   -10177171.02049  -7884958.35946  23060974.849    23060981.622
       224.000         175.000
  22541368.226    -7583432.28849  -5703900.23946  22541367.906    22541374.402
       228.000         181.000
  23010505.996    -4033132.02349  -3132398.27145  23010505.179    23010514.363
       212.000         158.000
  20480859.923   -22495021.86149 -17484427.39248  20480859.656    20480864.654
       240.000         213.000
  23480835.867    -7355217.61849  -5722240.63145  23480835.506    23480843.127
       215.000         158.000
  20744532.111   -23518495.93749 -18312570.44947  20744531.560    20744538.555
       241.000         208.000
  21699003.851   -16849241.89749 -13108779.35747  21699003.832    21699008.822
       238.000         198.000
 03  3 19  2  8 30.0000000  0  8G 3G23G31G17G14G 9G15G18
  21815410.711   -14632575.13049 -11383281.47047  21815410.576    21815417.725
       236.000         195.000
  23072122.703   -10118592.97249  -7839313.12346  23072123.171    23072129.097
       224.000         175.000
  22536902.440    -7606899.75349  -5722186.54146  22536901.778    22536907.764
       227.000         181.000
  23026320.474    -3950026.40649  -3067640.66945  23026319.711    23026328.861
       214.000         157.000
  20473413.192   -22534154.53049 -17514920.34548  20473412.841    20473417.926
       240.000         213.000
  23483407.033    -7341705.39749  -5711711.57245  23483407.425    23483413.871
       217.000         157.000
  20753033.581   -23473820.32949 -18277758.29247  20753033.074    20753039.851
       242.000         208.000
  21708975.324   -16796841.63649 -13067947.97347  21708975.409    21708980.052
       238.000         198.000
 03  3 19  2  9  0.0000000  0  8G 3G23G31G17G14G 9G15G18
  21820573.959   -14605441.54949 -11362138.42947  21820573.871    21820581.094
       235.000         195.000
  23083273.206   -10059996.51849  -7793653.54346  23083272.333    23083279.586
       224.000         175.000
  22532544.602    -7629800.36649  -5740031.16346  22532544.714    22532551.522
       227.000         181.000
  23042189.550    -3866633.90949  -3002659.53345  23042189.644    23042198.298
       214.000         156.000
  20466066.610   -22572760.85049 -17545003.15448  20466066.187    20466071.427
       239.000         214.000
  23486089.895    -7327606.94449  -5700725.72545  23486089.129    23486096.699
       216.000         157.000
  20761613.581   -23428732.26449 -18242624.73747  20761613.164    20761619.754
       241.000         208.000
  21718969.931   -16744319.77649 -13027021.84547  21718969.680    21718974.681
       238.000         198.000
 03  3 19  2  9 30.0000000  0  8G 3G23G31G17G14G 9G15G18
  21825835.760   -14577790.63449 -11340592.26747  21825835.858    21825842.539
       235.000         195.000
  23094427.122   -10001381.76649  -7747979.70546  23094426.981    23094433.538
       224.000         175.000
  22528294.725    -7652133.50349  -5757433.57546  22528293.507    22528300.959
       227.000         181.000
  23058113.266    -3782955.08449  -2937455.29745  23058113.510    23058120.920
       213.000         157.000
  20458820.278   -22610840.24249 -17574675.37048  20458820.084    20458825.010
       240.000         214.000
  23488884.311    -7312921.85049  -5689282.75445  23488884.873    23488891.146
       214.000         157.000
  20770272.079   -23383231.73949 -18207169.78947  20770271.530    20770278.391
       241.000         207.000
  21728987.419   -16691677.03949 -12986001.51247  21728986.706    21728992.530
       237.000         197.000
 03  3 19  2 10  0.0000000  0  8G 3G23G31G17G14G 9G15G18
  21831195.719   -14549623.56749 -11318643.90947  21831195.548    21831202.947
       235.000         195.000
  23105584.529    -9942748.84849  -7702291.72346  23105584.177    23105591.739
       224.000         175.000
  22524152.971    -7673898.66549  -5774393.41546  22524152.564    22524159.440
       228.000         181.000
  23074091.095    -3698991.07249  -2872028.82645  23074090.020    23074098.565
       217.000         157.000
  20451674.416   -22648392.09049 -17603936.51648  20451674.380    20451679.093
       241.000         214.000
  23491790.335    -7297649.92749  -5677382.50745  23491789.413    23491797.508
       214.000         157.000
  20779009.018   -23337318.76549 -18171393.44547  20779008.442    20779015.256
       241.000         207.000
  21739027.778   -16638914.03849 -12944887.46847  21739027.295    21739032.533
       238.000         196.000
 03  3 19  2 10 30.0000000  0  8G 3G23G31G17G14G 9G15G18
  21836653.737   -14520941.72449 -11296294.42147  21836653.779    21836660.589
       235.000         195.000
  23116745.471    -9884097.77049  -7656589.58346  23116745.060    23116752.135
       224.000         175.000
  22520119.403    -7695095.38749  -5790910.32246  22520119.006    22520125.684
       227.000         182.000
  23090123.224    -3614742.49849  -2806380.59345  23090122.531    23090131.740
       214.000         158.000
  20444629.010   -22685416.01749 -17632786.29148  20444628.718    20444633.577
       241.000         214.000
  23494808.146    -7281791.09149  -5665024.92545  23494807.543    23494814.580
       215.000         157.000
  20787824.433   -23290993.24949 -18135295.63847  20787823.839    20787830.630
       240.000         206.000
  21749091.065   -16586031.34549 -12903680.15647  21749090.788    21749095.884
       238.000         196.000
 03  3 19  2 11  0.0000000  0  8G 3G23G31G17G14G 9G15G18
  21842209.370   -14491747.12849 -11273545.38447  21842209.383    21842216.107
       234.000         195.000
  23127909.786    -9825429.00649  -7610873.65546  23127909.571    23127916.440
       224.000         175.000
  22516193.999    -7715723.45749  -5806984.11546  22516193.853    22516200.041
       227.000         182.000
  23106209.190    -3530210.17449  -2740511.28945  23106209.274    23106216.475
       216.000         157.000
  20437684.138   -22721911.49049 -17661224.28548  20437684.056    20437688.732
       241.000         215.000
  23497937.678    -7265345.44349  -5652210.08445  23497937.496    23497944.433
       214.000         157.000
  20796718.335   -23244255.30149 -18098876.44747  20796717.932    20796724.429
       241.000         207.000
  21759177.012   -16533029.43749 -12862379.95747  21759177.215    21759182.256
       238.000         196.000
 03  3 19  2 11 30.0000000  0  8G 3G23G31G17G14G 9G15G18
  21847862.257   -14462040.81949 -11250397.60947  21847861.640    21847869.028
       235.000         194.000
  23139077.493    -9766742.16249  -7565143.63746  23139076.840    23139084.902
       224.000         174.000
  22512376.918    -7735782.01449  -5822614.13146  22512376.746    22512383.106
       227.000         181.000
  23122349.079    -3445394.41249  -2674421.09145  23122348.391    23122357.916
       216.000         158.000
  20430840.021   -22757877.67349 -17689249.84648  20430839.854    20430844.472
       240.000         215.000
  23501178.855    -7248312.69449  -5638937.77945  23501179.362    23501185.612
       214.000         157.000
  20805690.814   -23197104.78149 -18062135.77647  20805690.240    20805696.965
       241.000         207.000
  21769285.553   -16479908.69249 -12820987.14947  21769285.167    21769290.172
       237.000         196.000
 03  3 19  2 12  0.0000000  0  8G 3G23G31G17G14G 9G15G18
  21853612.258   -14431824.12049 -11226852.13347  21853612.319    21853619.012
       234.000         194.000
  23150248.554    -9708037.64849  -7519399.85146  23150247.527    23150254.632
       222.000         173.000
  22508668.253    -7755270.77649  -5837800.14546  22508667.594    22508674.620
       228.000         181.000
  23138542.608    -3360296.48149  -2608111.07445  23138542.370    23138550.956
       214.000         159.000
  20424096.611   -22793314.25749 -17716862.73548  20424096.472    20424101.188
       240.000         215.000
  23504531.795    -7230692.80649  -5625207.96645  23504531.581    23504539.106
       216.000         157.000
  20814741.710   -23149541.77249 -18025073.68747  20814741.065    20814747.828
       240.000         207.000
  21779416.605   -16426669.67249 -12779502.18747  21779416.024    21779421.561
       237.000         195.000
 03  3 19  2 12 30.0000000  0  8G 3G23G31G17G14G 9G15G18
  21859459.146   -14401098.60249 -11202910.16847  21859458.991    21859465.764
       233.000         193.000
  23161422.943    -9649315.32749  -7473642.19446  23161423.011    23161429.998
       223.000         172.000
  22505068.106    -7774189.20249  -5852541.74246  22505067.776    22505074.071
       227.000         182.000
  23154789.916    -3274916.88149  -2541581.52745  23154789.113    23154797.286
       210.000         157.000
  20417454.182   -22828220.43049 -17744062.31248  20417453.911    20417458.725
       240.000         215.000
  23507996.432    -7212485.68249  -5611020.54545  23507996.133    23508003.585
       213.000         156.000
  20823871.205   -23101565.90449 -17987689.87947  20823870.674    20823876.964
       241.000         207.000
  21789570.164   -16373312.45149 -12737925.10747  21789570.085    21789575.012
       237.000         195.000
 03  3 19  2 13  0.0000000  0  8G 3G23G31G17G14G 9G15G18
  21865402.324   -14369866.50949 -11178573.48047  21865402.257    21865409.119
       233.000         193.000
  23172600.720    -9590575.91849  -7427871.22246  23172599.843    23172607.306
       224.000         172.000
  22501576.591    -7792537.51149  -5866839.09046  22501576.543    22501582.907
       228.000         182.000
  23171090.277    -3189257.21449  -2474833.77345  23171090.358    23171098.720
       213.000         156.000
  20410912.587   -22862596.72949 -17770849.00448  20410912.409    20410916.953
       241.000         215.000
  23511572.756    -7193691.68449  -5596375.82545  23511572.477    23511579.130
       215.000         155.000
  20833079.146   -23053177.91249 -17949984.94447  20833078.890    20833085.227
       241.000         207.000
  21799745.936   -16319838.25549 -12696256.89147  21799745.550    21799750.393
       237.000         194.000
 03  3 19  2 13 30.0000000  0  8G 3G23G31G17G14G 9G15G18
  21871441.802   -14338128.78549 -11153842.77947  21871441.276    21871448.394
       234.000         193.000
  23183781.802    -9531819.08749  -7382086.66746  23183781.712    23183788.528
       224.000         172.000
  22498193.641    -7810314.99949  -5880691.63446  22498192.785    22498199.340
       228.000         182.000
  23187444.031    -3103317.81549  -2407868.02545  23187443.917    23187451.498
       214.000         156.000
  20404472.030   -22896441.88849 -17797221.82048  20404471.608    20404476.394
       241.000         215.000
  23515260.716    -7174310.47549  -5581273.53245  23515260.434    23515266.709
       213.000         153.000
  20842365.626   -23004377.43749 -17911958.58447  20842365.201    20842371.608
       241.000         207.000
  21809943.949   -16266247.24149 -12654497.64147  21809943.830    21809948.811
       236.000         194.000
 03  3 19  2 14  0.0000000  0  8G 3G23G31G17G14G 9G15G18
  21877577.105   -14305887.21049 -11128719.46147  21877577.278    21877584.250
       234.000         193.000
  23194966.212    -9473044.99949  -7336288.66846  23194966.789    23194973.216
       223.000         172.000
  22494919.278    -7827521.46049  -5894099.23746  22494918.902    22494925.392
       228.000         181.000
  23203850.761    -3017099.54849  -2340684.97145  23203850.329    23203859.300
       213.000         155.000
  20398132.573   -22929755.82649 -17823180.69748  20398132.197    20398136.944
       240.000         215.000
  23519060.442    -7154342.05849  -5565713.66045  23519059.944    23519067.170
       211.000         153.000
  20851730.473   -22955164.81549 -17873611.08047  20851729.848    20851736.566
       241.000         207.000
  21820164.128   -16212539.95449 -12612647.79647  21820163.425    21820168.326
       236.000         193.000
 03  3 19  2 14 30.0000000  0  8G 3G23G31G17G14G 9G15G18
  21883808.038   -14273143.73949 -11103205.05547  21883807.625    21883814.483
       234.000         193.000
  23206153.804    -9414254.07149  -7290477.54846  23206153.424    23206160.374
       223.000         172.000
  22491753.545    -7844156.95549  -5907061.92046  22491753.543    22491759.704
       228.000         180.000
  23220310.378    -2930603.54549  -2273285.51945  23220310.044    23220318.286
       213.000         156.000
  20391894.207   -22962538.43149 -17848725.55248  20391893.906    20391898.643
       240.000         215.000
  23522971.842    -7133786.88749  -5549696.57345  23522971.606    23522978.891
       211.000         154.000
  20861173.710   -22905540.28249 -17834942.60547  20861173.430    20861179.661
       241.000         207.000
  21830406.100   -16158717.23049 -12570707.98947  21830405.505    21830410.353
       236.000         192.000
 03  3 19  2 15  0.0000000  0  8G 3G23G31G17G14G 9G15G18
  21890134.052   -14239900.37149 -11077301.12247  21890133.786    21890140.771
       234.000         193.000
  23217344.429    -9355446.80949  -7244653.70446  23217344.227    23217351.453
       224.000         172.000
  22488696.487    -7860221.46049  -5919579.68546  22488695.960    22488702.480
       227.000         181.000
  23236822.807    -2843830.48249  -2205670.18245  23236823.092    23236830.599
       212.000         154.000
  20385756.966   -22994789.57549 -17873856.28248  20385756.614    20385761.496
       240.000         215.000
  23526994.824    -7112645.29249  -5533222.53845  23526995.270    23527002.015
       213.000         154.000
  20870695.210   -22855504.30949 -17795953.52347  20870694.989    20870701.173
       241.000         207.000
  21840669.974   -16104779.77349 -12528678.79047  21840669.739    21840674.649
       235.000         192.000
 03  3 19  2 15 30.0000000  0  8G 3G23G31G17G14G 9G15G18
  21896554.786   -14206159.22149 -11051009.30447  21896554.681    21896561.219
       233.000         193.000
  23228538.157    -9296623.65049  -7198817.47546  23228538.148    23228544.082
       223.000         171.000
  22485747.994    -7875715.28649  -5931652.76446  22485747.441    22485754.461
       227.000         181.000
  23253387.791    -2756782.26949  -2137840.43145  23253387.675    23253396.307
       213.000         155.000
  20379720.799   -23026509.44649 -17898573.03348  20379720.413    20379725.277
       240.000         215.000
  23531129.453    -7090918.15549  -5516292.25845  23531128.749    23531136.162
       212.000         154.000
  20880294.887   -22805057.58449 -17756644.37547  20880294.463    20880301.000
       241.000         207.000
  21850955.462   -16050728.56249 -12486560.95247  21850955.378    21850960.361
       235.000         192.000
 03  3 19  2 16  0.0000000  0  8G 3G23G31G17G14G 9G15G18
  21903070.093   -14171921.08749 -11024330.22647  21903070.190    21903076.989
       235.000         193.000
  23239735.002    -9237783.84049  -7152968.26146  23239734.227    23239741.171
       221.000         170.000
  22482908.294    -7890637.38949  -5943280.33146  22482908.496    22482914.949
       228.000         181.000
  23270004.892    -2669458.86449  -2069796.25945  23270004.061    23270013.191
       210.000         155.000
  20373785.981   -23057696.94549 -17922874.94948  20373785.692    20373790.547
       240.000         215.000
  23535375.411    -7068604.64349  -5498905.05345  23535374.529    23535382.628
       211.000         154.000
  20889972.852   -22754199.56049 -17717014.73947  20889972.363    20889979.079
       241.000         206.000
  21861262.745   -15996563.31749 -12444354.25647  21861262.363    21861267.607
       236.000         192.000
 03  3 19  2 16 30.0000000  0  8G 3G23G31G17G14G 9G15G18
  21909679.701   -14137187.42749 -10997265.01747  21909679.295    21909686.559
       234.000         193.000
  23250935.037    -9178927.32049  -7107106.03546  23250934.443    23250941.744
       221.000         170.000
  22480177.531    -7904987.66849  -5954462.33146  22480177.447    22480184.685
       228.000         182.000
  23286674.041    -2581861.10049  -2001538.28345  23286673.511    23286682.932
       210.000         153.000
  20367952.527   -23088351.71949 -17946761.75748  20367952.270    20367956.938
       240.000         215.000
  23539732.954    -7045705.01649  -5481061.14245  23539733.062    23539740.500
       212.000         155.000
  20899729.035   -22702930.33849 -17677064.68747  20899728.329    20899735.287
       240.000         206.000
  21871591.636   -15942284.59749 -12402059.13447  21871591.442    21871596.294
       236.000         192.000
 03  3 19  2 17  0.0000000  0  8G 3G23G31G17G14G 9G15G18
  21916383.204   -14101960.07349 -10969815.11347  21916383.344    21916390.385
       234.000         193.000
  23262138.101    -9120054.14849  -7061230.81946  23262137.657    23262144.698
       221.000         169.000
  22477555.629    -7918765.83549  -5965198.52146  22477555.792    22477562.193
       228.000         183.000
  23303395.230    -2493990.00149  -1933067.31845  23303395.005    23303404.175
       213.000         154.000
  20362220.565   -23118473.47949 -17970233.23248  20362220.298    20362225.085
       240.000         215.000
  23544202.181    -7022219.32849  -5462760.57145  23544202.997    23544209.874
       215.000         156.000
  20909563.429   -22651249.92049 -17636794.22547  20909562.631    20909569.963
       241.000         206.000
  21881942.127   -15887892.55549 -12359675.71447  21881942.017    21881946.818
       236.000         192.000
 03  3 19  2 17 30.0000000  0  8G 3G23G31G17G14G 9G15G18
  21923180.337   -14066241.35549 -10941982.33047  21923180.328    21923187.190
       233.000         193.000
  23273344.248    -9061165.13149  -7015343.26546  23273344.379    23273350.466
       223.000         169.000
  22475042.508    -7931972.48249  -5975489.37246  22475042.782    22475049.406
       227.000         183.000
  23320168.263    -2405847.04149  -1864384.53345  23320168.363    23320176.882
       213.000         156.000
  20356589.907   -23148062.67449 -17993289.71848  20356589.716    20356594.365
       241.000         215.000
  23548782.634    -6998148.54149  -5444004.08045  23548782.177    23548789.494
       213.000         155.000
  20919475.998   -22599158.90949 -17596203.81947  20919475.808    20919482.286
       241.000         206.000
  21892313.919   -15833388.52049 -12317205.02447  21892313.637    21892318.793
       236.000         192.000
 03  3 19  2 18  0.0000000  0  8G 3G23G31G17G14G 9G15G18
  21930070.541   -14030033.07849 -10913768.06847  21930070.038    21930077.048
       234.000         193.000
  23284553.524    -9002260.15749  -6969443.28546  23284552.839    23284559.329
       221.000         169.000
  22472638.158    -7944607.56949  -5985334.85546  22472637.487    22472644.658
       227.000         183.000
  23336992.877    -2317433.31249  -1795490.73945  23336992.896    23337002.331
       214.000         155.000
  20351060.602   -23177119.19949 -18015931.13748  20351060.104    20351065.273
       240.000         215.000
  23553474.449    -6973492.85949  -5424791.83445  23553475.818    23553481.819
       214.000         156.000
  20929466.661   -22546657.57249 -17555293.68047  20929466.392    20929472.797
       241.000         206.000
  21902706.961   -15778772.77449 -12274647.27747  21902706.932    21902711.784
       235.000         192.000
 03  3 19  2 18 30.0000000  0  8G 3G23G31G17G14G 9G15G18
  21937053.534   -13993337.02549 -10885173.72947  21937053.314    21937060.246
       234.000         193.000
  23295765.739    -8943339.26749  -6923530.90246  23295765.467    23295772.938
       221.000         170.000
  22470342.491    -7956670.97849  -5994734.88246  22470342.276    22470349.217
       228.000         182.000
  23353868.905    -2228749.72649  -1726386.66345  23353868.753    23353877.726
       213.000         154.000
  20345632.708   -23205642.74149 -18038157.24648  20345632.392    20345637.049
       240.000         215.000
  23558277.814    -6948252.39349  -5405123.90445  23558278.283    23558284.885
       214.000         156.000
  20939535.411   -22493746.10749 -17514063.95847  20939534.982    20939541.547
       241.000         206.000
  21913121.181   -15724045.66649 -12232002.77047  21913120.792    21913126.173
       236.000         192.000
 03  3 19  2 19  0.0000000  0  8G 3G23G31G17G14G 9G15G18
  21944129.018   -13956154.88049 -10856200.62247  21944128.746    21944135.095
       234.000         192.000
  23306981.065    -8884402.46149  -6877606.12746  23306980.553    23306987.247
       221.000         170.000
  22468155.602    -7968162.62349  -6003689.37746  22468155.739    22468161.823
       226.000         181.000
  23370796.163    -2139796.73249  -1657072.68445  23370796.144    23370805.031
       214.000         154.000
  20340306.341   -23233632.99749 -18059967.80948  20340306.189    20340310.803
       241.000         216.000
  23563192.143    -6922427.67149  -5385000.71845  23563192.032    23563199.813
       214.000         155.000
  20949682.123   -22440424.87949 -17472514.94847  20949681.577    20949688.088
       241.000         206.000
  21923556.503   -15669207.64049 -12189271.82647  21923556.418    21923561.818
       236.000         192.000
 03  3 19  2 19 30.0000000  0  8G 3G23G31G17G14G 9G15G18
  21951296.708   -13918488.45749 -10826850.15847  21951296.664    21951303.306
       234.000         192.000
  23318199.349    -8825449.77249  -6831668.95746  23318198.397    23318205.981
       223.000         169.000
  22466077.632    -7979082.44349  -6012198.30046  22466077.098    22466084.156
       228.000         182.000
  23387774.506    -2050575.68349  -1587549.80445  23387774.411    23387782.467
       211.000         153.000
  20335081.478   -23261089.95049 -18081362.81048  20335081.286    20335085.634
       240.000         216.000
  23568217.414    -6896019.25149  -5364422.69545  23568217.393    23568224.547
       213.000         155.000
  20959906.755   -22386694.22149 -17430646.89847  20959906.089    20959912.980
       241.000         206.000
  21934012.938   -15614259.11949 -12146454.78947  21934012.459    21934017.371
       236.000         192.000
 03  3 19  2 20  0.0000000  0  8G 3G23G31G17G14G 9G15G18
  21958556.205   -13880339.27249 -10797123.51547  21958555.898    21958563.151
       233.000         192.000
  23329420.777    -8766480.96449  -6785719.23646  23329421.158    23329427.441
       222.000         169.000
  22464108.563    -7989430.09449  -6020261.36046  22464108.002    22464114.777
       227.000         182.000
  23404803.535    -1961087.04549  -1517818.44045  23404803.612    23404811.386
       212.000         152.000
  20329958.153   -23288013.02049 -18102341.79448  20329957.773    20329962.600
       240.000         216.000
  23573353.527    -6869027.12249  -5343389.83145  23573353.137    23573360.947
       215.000         153.000
  20970209.247   -22332554.03449 -17388459.72947  20970208.547    20970215.765
       241.000         206.000
  21944490.283   -15559200.07349 -12103551.62347  21944490.116    21944495.517
       236.000         192.000
 03  3 19  2 20 30.0000000  0  8G 3G23G31G17G14G 9G15G18
  21965907.106   -13841709.78749 -10767022.61247  21965907.259    21965914.003
       234.000         192.000
  23340645.174    -8707496.64949  -6739757.43746  23340644.608    23340651.218
       221.000         169.000
  22462248.216    -7999206.23049  -6027879.12446  22462248.389    22462254.513
       227.000         182.000
  23421883.376    -1871332.07749  -1447879.51945  23421883.388    23421891.736
       210.000         152.000
  20324936.344   -23314402.69849 -18122905.15448  20324936.189    20324940.883
       240.000         216.000
  23578600.792    -6841451.99049  -5321902.68345  23578600.255    23578607.289
       214.000         153.000
  20980589.549   -22278005.03949 -17345954.01947  20980589.400    20980596.146
       241.000         206.000
  21954988.449   -15504031.70649 -12060563.26647  21954988.278    21954993.200
       235.000         191.000
 03  3 19  2 21  0.0000000  0  8G 3G23G31G17G14G 9G15G18
  21973349.141   -13802601.68349 -10736548.76647  21973349.397    21973355.721
       232.000         192.000
  23351872.554    -8648496.67849  -6693783.43746  23351872.795    23351879.134
       218.000         168.000
  22460496.627    -8008410.84549  -6035051.51646  22460496.582    22460503.006
       226.000         182.000
  23439013.631    -1781312.21449  -1377734.20245  23439013.229    23439022.581
       209.000         151.000
  20320016.101   -23340258.82349 -18143052.75648  20320015.876    20320020.377
       240.000         216.000
  23583958.917    -6813294.30149  -5299961.59245  23583958.805    23583966.938
       213.000         154.000
  20991047.704   -22223047.36949 -17303129.85447  20991047.660    20991054.216
       241.000         205.000
  21965507.317   -15448754.40949 -12017490.02747  21965506.646    21965512.328
       235.000         191.000
 03  3 19  2 21 30.0000000  0  8G 3G23G31G17G14G 9G15G18
  21980881.845   -13763017.27249 -10705703.76847  21980881.772    21980888.324
       234.000         192.000
  23363102.706    -8589481.33849  -6647797.44546  23363101.701    23363109.356
       218.000         168.000
  22458853.701    -8017044.24849  -6041778.81746  22458852.970    22458860.366
       228.000         182.000
  23456194.091    -1691028.68649  -1307383.44145  23456194.305    23456202.405
       210.000         152.000
  20315197.257   -23365581.73249 -18162784.86548  20315196.832    20315201.622
       240.000         216.000
  23589427.952    -6784554.62749  -5277567.00645  23589429.358    23589435.471
       214.000         155.000
  21001583.422   -22167681.98849 -17259987.99647  21001583.296    21001589.433
       240.000         205.000
  21976046.894   -15393368.56949 -11974332.21747  21976046.600    21976051.759
       236.000         191.000
 03  3 19  2 22  0.0000000  0  8G 3G23G31G17G14G 9G15G18
  21988504.835   -13722958.31249 -10674488.98747  21988504.745    21988511.481
       233.000         192.000
  23374335.629    -8530450.59149  -6601799.44946  23374334.805    23374342.608
       218.000         166.000
  22457319.584    -8025106.52549  -6048061.08946  22457318.992    22457326.364
       228.000         182.000
  23473424.390    -1600482.57449  -1236828.06945  23473423.437    23473432.802
       209.000         149.000
  20310479.962   -23390370.99349 -18182101.14848  20310479.687    20310484.325
       239.000         216.000
  23595007.510    -6755233.73049  -5254719.52645  23595007.656    23595014.611
       216.000         154.000
  21012196.675   -22111908.83649 -17216528.39547  21012196.009    21012203.067
       241.000         204.000
  21986607.038   -15337874.55249 -11931090.10747  21986607.239    21986612.179
       235.000         191.000
 03  3 19  2 22 30.0000000  0  8G 3G23G31G17G14G 9G15G18
  21996217.785   -13682426.56749 -10642905.80647  21996218.105    21996223.982
       234.000         192.000
  23385571.745    -8471403.94749  -6555789.08346  23385570.157    23385578.852
       219.000         165.000
  22455894.016    -8032597.48849  -6053898.19446  22455893.658    22455900.187
       227.000         182.000
  23490704.548    -1509674.17249  -1166068.29645  23490704.224    23490712.820
       211.000         150.000
  20305864.240   -23414626.43149 -18201001.46148  20305864.023    20305868.696
       240.000         216.000
  23600697.802    -6725331.64449  -5231419.17045  23600698.496    23600704.674
       214.000         154.000
  21022887.456   -22055727.86649 -17172751.00647  21022886.908    21022893.761
       240.000         204.000
  21997187.867   -15282272.62549 -11887763.92047  21997187.694    21997192.359
       235.000         191.000
 03  3 19  2 23  0.0000000  0  8G 3G23G31G17G14G 9G15G18
  22004020.340   -13641423.94649 -10610955.70547  22004020.204    22004027.059
       233.000         191.000
  23396810.736    -8412341.74549  -6509766.57846  23396810.095    23396817.324
       218.000         164.000
  22454577.146    -8039517.49449  -6059290.39946  22454577.150    22454583.649
       229.000         182.000
  23508034.558    -1418604.81649  -1095105.19145  23508034.297    23508043.195
       209.000         151.000
  20301350.102   -23438348.37549 -18219486.06348  20301349.778    20301354.393
       240.000         216.000
  23606498.442    -6694849.14849  -5207666.56745  23606498.701    23606505.462
       212.000         154.000
  21033655.761   -21999139.77349 -17128656.38347  21033655.393    21033661.916
       241.000         203.000
  22007789.036   -15226563.27649 -11844354.01647  22007788.565    22007793.530
       234.000         190.000
 03  3 19  2 23 30.0000000  0  8G 3G23G31G17G14G 9G15G18
  22011911.927   -13599952.61949 -10578640.38947  22011911.821    22011918.742
       232.000         191.000
  23408052.747    -8353264.05249  -6463731.99746  23408052.582    23408059.115
       219.000         164.000
  22453369.001    -8045866.96649  -6064238.03046  22453368.506    22453375.411
       229.000         182.000
  23525414.005    -1327275.65449  -1023939.64045  23525414.824    23525422.539
       208.000         150.000
  20296937.423   -23461536.95549 -18237555.05948  20296937.073    20296941.564
       239.000         216.000
  23612409.364    -6663787.16649  -5183462.39745  23612409.469    23612415.969
       214.000         154.000
  21044501.587   -21942144.75349 -17084244.67847  21044501.135    21044507.652
       240.000         203.000
  22018410.460   -15170746.92049 -11800860.73247  22018410.602    22018414.731
       235.000         190.000
 03  3 19  2 24  0.0000000  0  8G 3G23G31G17G14G 9G15G18
  22019892.436   -13558014.75449 -10545961.53647  22019892.656    22019899.339
       233.000         191.000
  23419297.736    -8294170.98749  -6417685.45846  23419297.887    23419304.156
       220.000         164.000
  22452269.298    -8051646.14849  -6068741.28146  22452269.167    22452275.085
       229.000         182.000
  23542842.489    -1235688.27049   -952572.88045  23542842.389    23542850.475
       209.000         149.000
  20292626.225   -23484192.14349 -18255208.42148  20292625.847    20292630.608
       239.000         215.000
  23618430.605    -6632146.21749  -5158807.07945  23618429.362    23618436.478
       211.000         154.000
  21055424.681   -21884743.52649 -17039516.44347  21055424.313    21055430.731
       241.000         203.000
  22029052.141   -15114824.03749 -11757284.43947  22029051.285    22029056.652
       233.000         189.000
 03  3 19  2 24 30.0000000  0  8G 3G23G31G17G14G 9G15G18
  22027961.403   -13515612.19249 -10512920.57747  22027961.420    22027968.044
       233.000         191.000
  23430545.848    -8235062.49249  -6371626.87746  23430545.531    23430552.897
       218.000         164.000
  22451278.029    -8056855.28049  -6072800.33546  22451277.934    22451283.979
       227.000         181.000
  23560320.057    -1143843.66749   -881005.67345  23560320.290    23560328.397
       212.000         149.000
  20288416.492   -23506314.26449 -18272446.41348  20288416.192    20288420.939
       240.000         215.000
  23624561.590    -6599926.79649  -5133701.00745  23624561.107    23624568.485
       214.000         154.000
  21066424.964   -21826936.57149 -16994472.06347  21066424.328    21066431.050
       240.000         203.000
  22039713.980   -15058795.12349 -11713625.51647  22039713.674    22039718.955
       234.000         188.000
 03  3 19  2 25  0.0000000  0  8G 3G23G31G17G14G 9G15G18
  22036118.393   -13472746.80449 -10479518.98147  22036118.832    22036125.130
       233.000         191.000
  23441796.929    -8175938.36149  -6325556.12746  23441796.622    23441803.403
       220.000         165.000
  22450395.118    -8061494.60049  -6076415.39046  22450394.565    22450400.898
       227.000         180.000
  23577846.392    -1051742.45849   -809238.51545  23577845.797    23577854.707
       209.000         148.000
  20284308.268   -23527903.12349 -18289268.87448  20284308.076    20284312.620
       239.000         216.000
  23630802.684    -6567129.50749  -5108144.63645  23630803.145    23630811.209
       214.000         154.000
  21077502.420   -21768724.04349 -16949111.65047  21077501.959    21077508.623
       241.000         203.000
  22050396.047   -15002660.41049 -11669884.16247  22050395.189    22050400.776
       233.000         188.000
 03  3 19  2 25 30.0000000  0  8G 3G23G31G17G14G 9G15G18
  22044363.053   -13429421.27349 -10445758.81747  22044363.185    22044370.184
       234.000         191.000
  23453050.842    -8116798.87849  -6279473.40246  23453051.580    23453057.212
       219.000         166.000
  22449620.516    -8065564.58049  -6079586.80046  22449620.261    22449626.918
       226.000         180.000
  23595421.260     -959386.03349   -737272.49445  23595420.710    23595429.591
       209.000         146.000
  20280301.463   -23548958.96249 -18305675.99648  20280301.260    20280305.782
       240.000         216.000
  23637153.552    -6533755.49549  -5082138.88945  23637153.049    23637161.686
       210.000         154.000
  21088657.026   -21710106.73149 -16903435.81547  21088656.697    21088663.224
       241.000         203.000
  22061098.096   -14946420.50749 -11626060.83947  22061098.259    22061102.695
       234.000         188.000
 03  3 19  2 26  0.0000000  0  8G 3G23G31G17G14G 9G15G18
  22052694.903   -13385637.00649 -10411641.20147  22052694.357    22052701.718
       233.000         190.000
  23464307.718    -8057643.50749  -6233378.29646  23464307.318    23464314.878
       219.000         165.000
  22448954.357    -8069065.14849  -6082314.50746  22448953.253    22448960.921
       227.000         181.000
  23613044.607     -866775.16049   -665108.19245  23613045.089    23613053.042
       209.000         146.000
  20276396.099   -23569481.85749 -18321667.83648  20276395.713    20276400.590
       240.000         216.000
  23643614.148    -6499804.96149  -5055683.89645  23643614.117    23643622.331
       212.000         154.000
  21099888.602   -21651084.34549 -16857444.34147  21099887.942    21099894.772
       240.000         203.000
  22071820.278   -14890075.26649 -11582155.44047  22071820.487    22071824.767
       234.000         188.000
 03  3 19  2 26 30.0000000  0  8G 3G23G31G17G14G 9G15G18
  22061113.558   -13341396.31749 -10377167.92747  22061113.369    22061120.134
       232.000         190.000
  23475567.665    -7998472.38749  -6187270.94246  23475567.823    23475574.746
       219.000         166.000
  22448396.418    -8071996.87449  -6084598.96346  22448396.059    22448402.756
       227.000         181.000
  23630716.183     -773910.87049   -592746.43545  23630715.336    23630725.106
       206.000         146.000
  20272592.046   -23589472.11049 -18337244.63048  20272591.827    20272596.579
       240.000         216.000
  23650184.276    -6465278.77849  -5028780.35245  23650184.518    23650192.131
       214.000         155.000
  21111197.010   -21591657.84349 -16811137.97047  21111196.473    21111203.292
       240.000         202.000
  22082562.375   -14833625.25449 -11538168.40447  22082562.290    22082567.094
       234.000         188.000
 03  3 19  2 27  0.0000000  0  8G 3G23G31G17G14G 9G15G18
  22069618.695   -13296701.63149 -10342340.89347  22069618.571    22069625.269
       232.000         190.000
  23486830.622    -7939285.68649  -6141151.45046  23486830.875    23486837.608
       219.000         166.000
  22447946.559    -8074360.36449  -6086440.63646  22447946.280    22447953.239
       227.000         181.000
  23648435.474     -680795.09049   -520188.73345  23648434.839    23648442.102
       208.000         146.000
  20268889.355   -23608929.92449 -18352406.54448  20268889.270    20268893.810
       240.000         216.000
  23656863.795    -6430177.94149  -5001429.02045  23656863.414    23656870.195
       214.000         155.000
  21122582.220   -21531827.98249 -16764517.30647  21122581.541    21122588.407
       239.000         202.000
  22093324.242   -14777071.31949 -11494100.39247  22093324.180    22093329.021
       233.000         188.000
 03  3 19  2 27 30.0000000  0  8G 3G23G31G17G14G 9G15G18
  22078209.863   -13251554.71049 -10307161.47547  22078209.454    22078216.297
       232.000         190.000
  23498096.568    -7880083.07249  -6095019.55446  23498096.027    23498103.166
       218.000         166.000
  22447604.908    -8076155.76449  -6087839.66146  22447604.397    22447611.297
       228.000         181.000
  23666202.524     -587428.62049   -447435.64545  23666200.600    23666210.933
       209.000         146.000
  20265287.968   -23627855.47949 -18367153.70748  20265287.683    20265292.293
       240.000         216.000
  23663652.470    -6394503.11849  -4973630.44545  23663653.084    23663658.133
       215.000         154.000
  21134044.175   -21471594.74949 -16717582.31947  21134043.716    21134050.421
       240.000         201.000
  22104105.904   -14720413.16849 -11449951.17447  22104105.736    22104110.633
       234.000         188.000
